[[{"header":{"parameterUnit":"m.s-1","parameterCategory":1,"la1":31.0,"la2":29.5877,"lo1":-88.7671,"lo2":-86.6584,"dy":0.0162,"dx":0.0185,"nx":115,"ny":88,"refTime":"2024-07-17T18:00:00:Z","depth":0,"parameterNumber":2,"parameterNumberName":"U-component_of_WINDS"},"data":[0.0,0.0,0.0,0.0,0.0,0.0,0.0,0.0,0.0,0.0,0.0,0.0,0.0,0.0,0.0,0.0,0.0,0.0,0.0,0.0,0.0,0.0,0.0,0.0,0.0,0.0,0.0,0.0,0.0,0.0,0.0,0.0,0.0,0.0,0.0,0.0,0.0,0.0,0.0,0.0,0.0,0.0,0.0,0.0,0.0,0.0,0.0,0.0,0.0,0.0,0.0,0.0,0.0,0.0,0.0,0.0,0.0,0.0,0.0,0.0,0.0,0.0,0.0,0.0,0.0,0.0,0.0,0.0,0.0,0.0,0.0,0.0,0.0,0.0,0.0,0.0,0.0,0.0,0.0,0.0,0.0,0.0,0.0,0.0,0.0,0.0,0.0,0.0,0.0,0.0,0.0,0.0,0.0,0.0,0.0,0.0,0.0,0.0,0.0,0.0,0.0,0.0,0.0,0.0,0.0,0.0,0.0,0.0,0.0,0.0,0.0,0.0,0.0,0.0,0.0,0.0,0.0,0.0,0.0,0.0,0.0,0.0,0.0,0.0,0.0,0.0,0.0,0.0,0.0,0.0,0.0,0.0,0.0,0.0,0.0,0.0,0.0,0.0,0.0,0.0,0.0,0.0,0.0,0.0,0.0,0.0,0.0,0.0,0.0,0.0,0.0,0.0,0.0,0.0,0.0,0.0,0.0,0.0,0.0,0.0,0.0,0.0,0.0,0.0,0.0,0.0,0.0,0.0,0.0,0.0,0.0,0.0,0.0,0.0,0.0,0.0,0.0,0.0,0.0,0.0,0.0,0.0,0.0,0.0,0.0,0.0,0.0,0.0,0.0,0.0,0.0,0.0,0.0,0.0,0.0,0.0,0.0,0.0,0.0,0.0,0.0,0.0,0.0,0.0,0.0,0.0,0.0,0.0,0.0,0.0,0.0,0.0,0.0,0.0,0.0,0.0,0.0,0.0,0.0,0.0,0.0,0.0,0.0,0.0,0.0,0.0,0.0,0.0,0.0,0.0,0.0,0.0,0.0,0.0,0.0,0.0,0.0,0.0,0.0,0.0,0.0,0.0,0.0,0.0,0.0,0.0,0.0,0.0,0.0,0.0,0.0,0.0,0.0,0.0,0.0,0.0,0.0,0.0,0.0,0.0,0.0,0.0,0.0,0.0,0.0,0.0,0.0,0.0,0.0,0.0,0.0,0.0,0.0,0.0,0.0,0.0,0.0,0.0,0.0,0.0,0.0,0.0,0.0,0.0,0.0,0.0,0.0,0.0,0.0,0.0,0.0,0.0,0.0,0.0,0.0,0.0,0.0,0.0,0.0,0.0,0.0,0.0,0.0,0.0,0.0,0.0,0.0,0.0,0.0,0.0,0.0,0.0,0.0,0.0,0.0,0.0,0.0,0.0,0.0,0.0,0.0,0.0,0.0,0.0,0.0,0.0,0.0,0.0,0.0,0.0,0.0,0.0,0.0,0.0,0.0,0.0,0.0,0.0,0.0,0.0,0.0,0.0,0.0,0.0,0.0,0.0,0.0,0.0,0.0,0.0,0.0,0.0,0.0,0.0,0.0,0.0,0.0,0.0,0.0,0.0,0.0,0.0,0.0,0.0,0.0,0.0,0.0,0.0,0.0,0.0,0.0,0.0,0.0,0.0,0.0,0.0,0.0,0.0,0.0,0.0,0.0,0.0,0.0,0.0,0.0,0.0,0.0,0.0,0.0,0.0,0.0,0.0,0.0,0.0,0.0,0.0,0.0,0.0,0.0,0.0,0.0,0.0,0.0,0.0,0.0,0.0,0.0,0.0,0.0,0.0,0.0,0.0,0.0,0.0,0.0,0.0,0.0,0.0,0.0,0.0,0.0,0.0,0.0,0.0,0.0,0.0,0.0,0.0,0.0,0.0,0.0,0.0,0.0,0.0,0.0,0.0,0.0,0.0,0.0,0.0,0.0,0.0,0.0,0.0,0.0,0.0,0.0,0.0,0.0,0.0,0.0,0.0,0.0,0.0,0.0,0.0,0.0,0.0,0.0,0.0,0.0,0.0,0.0,0.0,0.0,0.0,0.0,0.0,0.0,0.0,0.0,0.0,0.0,0.0,0.0,0.0,0.0,0.0,0.0,0.0,0.0,0.0,0.0,0.0,0.0,0.0,0.0,0.0,0.0,0.0,0.0,0.0,0.0,0.0,0.0,0.0,0.0,0.0,0.0,0.0,0.0,0.0,0.0,0.0,0.0,0.0,0.0,0.0,0.0,0.0,0.0,0.0,0.0,0.0,0.0,0.0,0.0,0.0,0.0,0.0,0.0,0.0,0.0,0.0,0.0,0.0,0.0,0.0,0.0,0.0,0.0,0.0,0.0,0.0,0.0,0.0,0.0,0.0,0.0,0.0,0.0,0.0,0.0,0.0,0.0,0.0,0.0,0.0,0.0,0.0,0.0,0.0,0.0,0.0,0.0,0.0,0.0,0.0,0.0,0.0,0.0,0.0,0.0,0.0,0.0,0.0,0.0,0.0,0.0,0.0,0.0,0.0,0.0,0.0,0.0,0.0,0.0,0.0,0.0,0.0,0.0,0.0,0.0,0.0,0.0,0.0,0.0,0.0,0.0,0.0,0.0,0.0,0.0,0.0,0.0,0.0,0.0,0.0,0.0,0.0,0.0,0.0,0.0,0.0,0.0,0.0,0.0,0.0,0.0,0.0,0.0,0.0,0.0,0.0,0.0,0.0,0.0,0.0,0.0,0.0,0.0,0.0,0.0,0.0,0.0,0.0,0.0,0.0,0.0,0.0,0.0,0.0,0.0,0.0,0.0,0.0,0.0,0.0,0.0,0.0,0.0,0.0,0.0,0.0,0.0,0.0,0.0,0.0,0.0,0.0,0.0,0.0,0.0,0.0,0.0,0.0,0.0,0.0,0.0,0.0,0.0,0.0,0.0,0.0,0.0,0.0,0.0,0.0,0.0,0.0,0.0,0.0,0.0,0.0,0.0,0.0,0.0,0.0,0.0,0.0,0.0,0.0,0.0,0.0,0.0,0.0,0.0,0.0,0.0,0.0,0.0,0.0,0.0,0.0,0.0,0.0,0.0,0.0,0.0,0.0,0.0,0.0,0.0,0.0,0.0,0.0,0.0,0.0,0.0,0.0,0.0,0.0,0.0,0.0,0.0,0.0,0.0,0.0,0.0,0.0,0.0,0.0,0.0,0.0,0.0,0.0,0.0,0.0,0.0,0.0,0.0,0.0,0.0,0.0,0.0,0.0,0.0,0.0,0.0,0.0,0.0,0.0,0.0,0.0,0.0,0.0,0.0,0.0,0.0,0.0,0.0,0.0,0.0,0.0,0.0,0.0,0.0,0.0,0.0,0.0,0.0,0.0,0.0,0.0,0.0,0.0,0.0,0.0,0.0,0.0,0.0,0.0,0.0,0.0,0.0,0.0,0.0,0.0,0.0,0.0,0.0,0.0,0.0,0.0,0.0,0.0,0.0,0.0,0.0,0.0,0.0,0.0,0.0,0.0,0.0,0.0,0.0,0.0,0.0,0.0,0.0,0.0,0.0,0.0,0.0,0.0,0.0,0.0,0.0,0.0,0.0,0.0,0.0,0.0,0.0,0.0,0.0,0.0,0.0,0.0,0.0,0.0,0.0,0.0,0.0,0.0,0.0,0.0,0.0,0.0,0.0,0.0,0.0,0.0,0.0,0.0,0.0,0.0,0.0,0.0,0.0,0.0,0.0,0.0,0.0,0.0,0.0,0.0,0.0,0.0,0.0,0.0,0.0,0.0,0.0,0.0,0.0,0.0,0.0,0.0,0.0,0.0,0.0,0.0,0.0,0.0,0.0,0.0,0.0,0.0,0.0,0.0,0.0,0.0,0.0,0.0,0.0,0.0,0.0,0.0,0.0,0.0,0.0,0.0,0.0,0.0,0.0,0.0,0.0,0.0,0.0,0.0,0.0,0.0,0.0,0.0,0.0,0.0,0.0,0.0,0.0,0.0,0.0,0.0,0.0,0.0,0.0,0.0,0.0,0.0,0.0,0.0,0.0,0.0,0.0,0.0,0.0,0.0,0.0,0.0,0.0,0.0,0.0,0.0,0.0,0.0,0.0,0.0,0.0,0.0,0.0,0.0,0.0,0.0,0.0,0.0,0.0,0.0,0.0,0.0,0.0,0.0,0.0,0.0,0.0,0.0,0.0,0.0,0.0,0.0,0.0,0.0,0.0,0.0,0.0,0.0,0.0,0.0,0.0,0.0,0.0,0.0,0.0,0.0,0.0,0.0,-2.7689,0.0,0.0,0.0,0.0,0.0,0.0,0.0,0.0,0.0,0.0,0.0,0.0,0.0,0.0,0.0,0.0,0.0,0.0,0.0,0.0,0.0,0.0,0.0,0.0,0.0,0.0,0.0,0.0,0.0,0.0,0.0,0.0,0.0,0.0,0.0,0.0,0.0,0.0,0.0,0.0,0.0,0.0,0.0,0.0,0.0,0.0,0.0,0.0,0.0,0.0,0.0,0.0,0.0,0.0,0.0,0.0,0.0,0.0,0.0,0.0,0.0,0.0,0.0,0.0,0.0,0.0,0.0,0.0,0.0,0.0,0.0,0.0,0.0,0.0,0.0,0.0,0.0,0.0,0.0,0.0,0.0,0.0,0.0,0.0,0.0,0.0,0.0,0.0,0.0,0.0,0.0,0.0,0.0,0.0,0.0,0.0,0.0,0.0,0.0,0.0,0.0,0.0,0.0,0.0,0.0,0.0,0.0,0.0,0.0,0.0,-2.9929,-3.0346,-2.8818,-2.7928,-2.7859,0.0,0.0,0.0,0.0,0.0,0.0,0.0,0.0,0.0,0.0,0.0,0.0,0.0,0.0,0.0,0.0,0.0,0.0,0.0,0.0,0.0,0.0,0.0,0.0,0.0,0.0,0.0,0.0,0.0,0.0,0.0,0.0,0.0,0.0,0.0,0.0,0.0,0.0,0.0,0.0,0.0,0.0,0.0,0.0,0.0,0.0,0.0,0.0,0.0,0.0,0.0,0.0,0.0,0.0,0.0,0.0,0.0,0.0,0.0,0.0,0.0,0.0,0.0,0.0,0.0,0.0,0.0,0.0,0.0,0.0,0.0,0.0,0.0,0.0,0.0,0.0,0.0,0.0,0.0,0.0,0.0,0.0,0.0,0.0,0.0,0.0,0.0,0.0,0.0,0.0,0.0,0.0,0.0,0.0,0.0,0.0,0.0,0.0,0.0,0.0,0.0,0.0,0.0,0.0,0.0,0.0,0.0,0.0,0.0,0.0,0.0,0.0,-2.9813,-2.8849,-2.8452,0.0,0.0,0.0,0.0,0.0,0.0,0.0,0.0,0.0,0.0,0.0,0.0,0.0,0.0,0.0,0.0,0.0,0.0,0.0,0.0,0.0,0.0,0.0,0.0,0.0,0.0,0.0,0.0,0.0,0.0,0.0,0.0,0.0,0.0,0.0,0.0,0.0,0.0,0.0,0.0,0.0,0.0,0.0,0.0,0.0,0.0,0.0,0.0,0.0,0.0,0.0,0.0,0.0,0.0,0.0,0.0,0.0,0.0,0.0,0.0,0.0,0.0,0.0,0.0,0.0,0.0,0.0,0.0,0.0,0.0,0.0,0.0,0.0,0.0,0.0,0.0,0.0,0.0,0.0,0.0,0.0,0.0,0.0,0.0,0.0,0.0,0.0,0.0,0.0,0.0,0.0,0.0,0.0,0.0,0.0,0.0,0.0,0.0,0.0,0.0,0.0,0.0,0.0,0.0,0.0,0.0,0.0,0.0,0.0,0.0,-3.0627,-3.3718,-3.2891,0.0,-3.0309,0.0,0.0,0.0,0.0,0.0,0.0,0.0,0.0,0.0,0.0,0.0,0.0,0.0,0.0,0.0,0.0,0.0,0.0,0.0,0.0,0.0,0.0,0.0,0.0,0.0,0.0,0.0,0.0,0.0,0.0,0.0,0.0,0.0,0.0,0.0,0.0,0.0,0.0,0.0,0.0,0.0,0.0,0.0,0.0,0.0,0.0,0.0,0.0,0.0,0.0,0.0,0.0,0.0,0.0,0.0,0.0,0.0,0.0,0.0,0.0,0.0,0.0,0.0,0.0,0.0,0.0,0.0,0.0,0.0,0.0,0.0,0.0,0.0,0.0,0.0,0.0,0.0,0.0,0.0,0.0,0.0,0.0,0.0,0.0,0.0,0.0,0.0,0.0,0.0,0.0,0.0,0.0,0.0,0.0,0.0,0.0,0.0,0.0,0.0,0.0,0.0,0.0,0.0,0.0,0.0,0.0,0.0,0.0,0.0,0.0,0.0,-3.4141,-3.2884,-3.1174,0.0,0.0,0.0,0.0,0.0,0.0,0.0,0.0,0.0,0.0,0.0,0.0,0.0,0.0,0.0,0.0,0.0,0.0,0.0,0.0,0.0,0.0,0.0,0.0,0.0,0.0,0.0,0.0,0.0,0.0,0.0,0.0,0.0,0.0,0.0,0.0,0.0,0.0,0.0,0.0,0.0,0.0,0.0,0.0,0.0,0.0,0.0,0.0,0.0,0.0,0.0,0.0,0.0,0.0,0.0,0.0,0.0,0.0,0.0,0.0,0.0,0.0,0.0,0.0,0.0,0.0,0.0,0.0,0.0,0.0,0.0,0.0,0.0,0.0,0.0,0.0,0.0,0.0,0.0,0.0,0.0,0.0,0.0,0.0,0.0,0.0,0.0,0.0,0.0,0.0,0.0,0.0,0.0,0.0,0.0,0.0,0.0,0.0,0.0,0.0,0.0,0.0,0.0,0.0,0.0,0.0,0.0,0.0,0.0,0.0,-3.1121,0.0,-3.4686,-3.3511,-3.1342,-2.8367,0.0,0.0,0.0,0.0,0.0,0.0,0.0,0.0,0.0,0.0,0.0,0.0,0.0,0.0,0.0,0.0,0.0,0.0,0.0,0.0,0.0,0.0,0.0,0.0,0.0,0.0,0.0,0.0,0.0,0.0,0.0,0.0,0.0,0.0,0.0,0.0,0.0,0.0,0.0,0.0,0.0,0.0,0.0,0.0,0.0,0.0,0.0,0.0,0.0,0.0,0.0,0.0,0.0,0.0,0.0,0.0,0.0,0.0,0.0,0.0,0.0,0.0,0.0,0.0,0.0,0.0,0.0,0.0,0.0,0.0,0.0,0.0,0.0,0.0,0.0,0.0,0.0,0.0,0.0,0.0,0.0,0.0,0.0,0.0,0.0,0.0,0.0,0.0,0.0,0.0,0.0,0.0,0.0,0.0,0.0,0.0,0.0,0.0,0.0,0.0,0.0,0.0,0.0,0.0,0.0,0.0,0.0,0.0,0.0,-3.2852,-3.3276,-3.6469,-3.5817,-3.3442,0.0,0.0,0.0,0.0,0.0,0.0,0.0,0.0,0.0,0.0,0.0,0.0,0.0,0.0,0.0,0.0,0.0,0.0,0.0,0.0,0.0,0.0,0.0,0.0,0.0,0.0,0.0,0.0,0.0,0.0,0.0,0.0,0.0,0.0,0.0,0.0,0.0,0.0,0.0,0.0,0.0,0.0,0.0,0.0,0.0,0.0,0.0,0.0,0.0,0.0,0.0,0.0,0.0,0.0,0.0,0.0,0.0,0.0,0.0,0.0,0.0,0.0,0.0,0.0,0.0,0.0,0.0,0.0,0.0,0.0,0.0,0.0,0.0,0.0,0.0,0.0,0.0,0.0,0.0,0.0,0.0,0.0,0.0,0.0,0.0,0.0,0.0,0.0,0.0,0.0,0.0,0.0,0.0,0.0,0.0,0.0,0.0,0.0,0.0,0.0,0.0,0.0,0.0,0.0,0.0,0.0,0.0,0.0,0.0,-2.9698,-3.1525,-3.4353,0.0,-3.4468,-3.1582,0.0,0.0,0.0,0.0,0.0,0.0,0.0,0.0,0.0,0.0,0.0,0.0,0.0,0.0,0.0,0.0,0.0,0.0,0.0,0.0,0.0,0.0,0.0,0.0,0.0,0.0,0.0,0.0,0.0,0.0,0.0,0.0,0.0,0.0,0.0,0.0,0.0,0.0,0.0,0.0,0.0,0.0,0.0,0.0,0.0,0.0,0.0,0.0,0.0,0.0,0.0,0.0,0.0,0.0,0.0,0.0,0.0,0.0,0.0,0.0,0.0,0.0,0.0,0.0,0.0,0.0,0.0,0.0,0.0,0.0,0.0,0.0,0.0,0.0,0.0,0.0,0.0,0.0,0.0,0.0,0.0,0.0,0.0,0.0,0.0,0.0,0.0,0.0,0.0,0.0,0.0,0.0,0.0,0.0,0.0,0.0,0.0,0.0,0.0,0.0,0.0,0.0,0.0,0.0,0.0,0.0,0.0,0.0,0.0,-2.9063,0.0,-3.5988,0.0,-3.3968,-3.0703,0.0,0.0,0.0,0.0,0.0,0.0,0.0,0.0,0.0,0.0,0.0,0.0,0.0,0.0,0.0,0.0,0.0,0.0,0.0,0.0,0.0,0.0,0.0,0.0,0.0,0.0,0.0,0.0,0.0,0.0,0.0,0.0,0.0,0.0,0.0,0.0,0.0,0.0,0.0,0.0,0.0,0.0,0.0,0.0,0.0,0.0,0.0,0.0,0.0,0.0,0.0,0.0,0.0,0.0,0.0,0.0,0.0,0.0,0.0,0.0,0.0,0.0,0.0,0.0,0.0,0.0,0.0,0.0,0.0,0.0,0.0,0.0,0.0,0.0,0.0,0.0,0.0,0.0,0.0,0.0,0.0,0.0,0.0,0.0,0.0,0.0,0.0,0.0,0.0,0.0,0.0,0.0,0.0,0.0,0.0,0.0,0.0,0.0,0.0,0.0,0.0,0.0,0.0,0.0,0.0,0.0,0.0,0.0,-2.8231,-3.3878,-3.7257,-3.7853,-3.5673,-3.4597,-3.1039,0.0,0.0,0.0,0.0,0.0,0.0,0.0,0.0,0.0,0.0,0.0,0.0,0.0,0.0,0.0,0.0,0.0,0.0,0.0,0.0,0.0,0.0,0.0,0.0,0.0,0.0,0.0,0.0,0.0,0.0,0.0,0.0,0.0,0.0,0.0,0.0,0.0,0.0,0.0,0.0,0.0,0.0,0.0,0.0,0.0,0.0,0.0,0.0,0.0,0.0,0.0,0.0,0.0,0.0,0.0,0.0,0.0,0.0,0.0,0.0,0.0,0.0,0.0,0.0,0.0,0.0,0.0,0.0,0.0,0.0,0.0,0.0,0.0,0.0,0.0,0.0,0.0,0.0,0.0,0.0,0.0,0.0,0.0,0.0,0.0,0.0,0.0,0.0,0.0,0.0,0.0,0.0,0.0,0.0,0.0,0.0,0.0,0.0,0.0,0.0,0.0,0.0,0.0,0.0,0.0,0.0,0.0,0.0,0.0,-3.2468,-3.4641,-3.6526,-3.7873,-3.325,-3.0483,0.0,0.0,0.0,0.0,0.0,0.0,0.0,0.0,0.0,0.0,0.0,0.0,0.0,0.0,0.0,0.0,0.0,0.0,0.0,0.0,0.0,0.0,0.0,0.0,0.0,0.0,0.0,0.0,0.0,0.0,0.0,0.0,0.0,0.0,0.0,0.0,0.0,0.0,0.0,0.0,0.0,0.0,0.0,0.0,0.0,0.0,0.0,0.0,0.0,0.0,0.0,0.0,0.0,0.0,0.0,0.0,0.0,0.0,0.0,0.0,0.0,0.0,0.0,0.0,0.0,0.0,0.0,0.0,0.0,0.0,0.0,0.0,0.0,0.0,0.0,0.0,0.0,0.0,0.0,0.0,0.0,0.0,0.0,0.0,0.0,0.0,0.0,0.0,0.0,0.0,0.0,0.0,0.0,0.0,0.0,0.0,0.0,0.0,0.0,0.0,0.0,0.0,0.0,0.0,0.0,0.0,0.0,0.0,0.0,-3.5007,-3.6315,-3.7697,-3.9149,-3.4084,-3.1327,-3.119,0.0,0.0,0.0,0.0,0.0,0.0,0.0,0.0,0.0,0.0,0.0,0.0,0.0,0.0,0.0,0.0,0.0,0.0,0.0,0.0,0.0,0.0,0.0,0.0,0.0,0.0,0.0,0.0,0.0,0.0,0.0,0.0,0.0,0.0,0.0,0.0,0.0,0.0,0.0,0.0,0.0,0.0,0.0,0.0,0.0,0.0,0.0,0.0,0.0,0.0,0.0,0.0,0.0,0.0,0.0,0.0,0.0,0.0,0.0,0.0,0.0,0.0,0.0,0.0,0.0,0.0,0.0,0.0,0.0,0.0,0.0,0.0,0.0,0.0,0.0,0.0,0.0,0.0,0.0,0.0,0.0,0.0,0.0,0.0,0.0,0.0,0.0,0.0,0.0,0.0,0.0,0.0,0.0,0.0,0.0,0.0,0.0,0.0,0.0,0.0,0.0,0.0,0.0,0.0,0.0,0.0,0.0,0.0,-4.0442,-4.1473,-4.1108,-3.9369,-3.6747,-3.3402,0.0,0.0,0.0,0.0,0.0,0.0,0.0,0.0,0.0,0.0,0.0,0.0,0.0,0.0,0.0,0.0,0.0,0.0,0.0,0.0,0.0,0.0,0.0,0.0,0.0,0.0,0.0,0.0,0.0,0.0,0.0,0.0,0.0,0.0,0.0,0.0,0.0,0.0,0.0,0.0,0.0,0.0,0.0,0.0,0.0,0.0,0.0,0.0,0.0,0.0,0.0,0.0,0.0,0.0,0.0,0.0,0.0,0.0,0.0,0.0,0.0,0.0,0.0,0.0,0.0,0.0,0.0,0.0,0.0,0.0,0.0,0.0,0.0,0.0,0.0,0.0,0.0,0.0,0.0,0.0,0.0,0.0,0.0,0.0,0.0,0.0,0.0,0.0,0.0,0.0,0.0,0.0,0.0,0.0,0.0,0.0,0.0,0.0,0.0,0.0,0.0,0.0,0.0,0.0,0.0,0.0,0.0,0.0,0.0,-4.0137,-4.2929,-4.3848,-4.2718,-3.8832,-3.5363,0.0,0.0,0.0,0.0,0.0,0.0,0.0,0.0,0.0,0.0,0.0,0.0,0.0,0.0,0.0,0.0,0.0,0.0,0.0,0.0,0.0,0.0,0.0,0.0,0.0,0.0,0.0,0.0,0.0,0.0,0.0,0.0,0.0,0.0,0.0,0.0,0.0,0.0,0.0,0.0,0.0,0.0,0.0,0.0,0.0,0.0,0.0,0.0,0.0,0.0,0.0,0.0,0.0,0.0,0.0,0.0,0.0,0.0,0.0,0.0,0.0,0.0,0.0,0.0,0.0,0.0,0.0,0.0,0.0,0.0,0.0,0.0,0.0,0.0,0.0,0.0,0.0,0.0,0.0,0.0,0.0,0.0,0.0,0.0,0.0,0.0,0.0,0.0,0.0,0.0,0.0,0.0,0.0,0.0,0.0,0.0,0.0,0.0,0.0,0.0,0.0,0.0,0.0,0.0,0.0,0.0,0.0,0.0,-3.8308,-4.2161,-4.4711,-4.5646,-4.4866,-4.1283,-3.767,0.0,0.0,0.0,0.0,0.0,0.0,0.0,0.0,0.0,0.0,0.0,0.0,0.0,0.0,0.0,0.0,0.0,0.0,0.0,0.0,0.0,0.0,0.0,0.0,0.0,0.0,0.0,0.0,0.0,0.0,0.0,0.0,0.0,0.0,0.0,0.0,0.0,0.0,0.0,0.0,0.0,0.0,0.0,0.0,0.0,0.0,0.0,0.0,0.0,0.0,0.0,0.0,0.0,0.0,0.0,0.0,0.0,0.0,0.0,0.0,0.0,0.0,0.0,0.0,0.0,0.0,0.0,0.0,0.0,0.0,0.0,0.0,0.0,0.0,0.0,0.0,0.0,0.0,0.0,0.0,0.0,0.0,0.0,0.0,0.0,0.0,0.0,0.0,0.0,0.0,0.0,0.0,0.0,0.0,0.0,0.0,0.0,0.0,0.0,0.0,0.0,0.0,0.0,0.0,0.0,0.0,0.0,0.0,-4.0062,-4.4865,-4.6314,-4.6685,-4.5962,-4.3656,-3.9939,0.0,0.0,0.0,0.0,0.0,0.0,0.0,0.0,0.0,0.0,0.0,0.0,0.0,0.0,0.0,0.0,0.0,0.0,0.0,0.0,0.0,0.0,0.0,0.0,0.0,0.0,0.0,0.0,0.0,0.0,0.0,0.0,0.0,0.0,0.0,0.0,0.0,0.0,0.0,0.0,0.0,0.0,0.0,0.0,0.0,0.0,0.0,0.0,0.0,0.0,0.0,0.0,0.0,0.0,0.0,0.0,0.0,0.0,0.0,0.0,0.0,0.0,0.0,0.0,0.0,0.0,0.0,0.0,0.0,0.0,0.0,0.0,0.0,0.0,0.0,0.0,0.0,0.0,0.0,0.0,0.0,0.0,0.0,0.0,0.0,0.0,0.0,0.0,0.0,0.0,0.0,0.0,0.0,0.0,0.0,0.0,0.0,0.0,0.0,0.0,0.0,0.0,0.0,0.0,0.0,0.0,0.0,0.0,-4.0075,-4.3522,-4.5879,-4.692,-4.6611,-4.4224,-4.0315,0.0,0.0,0.0,0.0,0.0,0.0,0.0,0.0,0.0,0.0,0.0,0.0,0.0,0.0,0.0,0.0,0.0,0.0,0.0,0.0,0.0,0.0,0.0,0.0,0.0,0.0,0.0,0.0,0.0,0.0,0.0,0.0,0.0,0.0,0.0,0.0,0.0,0.0,0.0,0.0,0.0,0.0,0.0,0.0,0.0,0.0,0.0,0.0,-3.0354,0.0,0.0,0.0,0.0,0.0,0.0,0.0,0.0,0.0,0.0,0.0,0.0,0.0,0.0,0.0,0.0,0.0,0.0,0.0,0.0,0.0,0.0,0.0,0.0,0.0,0.0,0.0,0.0,0.0,0.0,0.0,0.0,0.0,0.0,0.0,0.0,0.0,0.0,0.0,0.0,0.0,0.0,0.0,0.0,0.0,0.0,0.0,0.0,0.0,0.0,0.0,0.0,0.0,0.0,0.0,0.0,0.0,0.0,0.0,-4.0552,-4.3729,-4.5467,-4.6325,-4.6181,-4.4261,-4.0871,0.0,0.0,0.0,0.0,0.0,0.0,0.0,0.0,0.0,0.0,0.0,0.0,0.0,0.0,0.0,0.0,0.0,0.0,0.0,0.0,0.0,0.0,0.0,0.0,0.0,0.0,0.0,0.0,0.0,0.0,0.0,0.0,0.0,0.0,0.0,0.0,0.0,0.0,0.0,0.0,0.0,0.0,0.0,0.0,0.0,0.0,0.0,0.0,0.0,0.0,0.0,0.0,0.0,0.0,0.0,0.0,0.0,0.0,0.0,0.0,0.0,0.0,0.0,0.0,0.0,0.0,0.0,0.0,0.0,0.0,0.0,0.0,0.0,0.0,0.0,0.0,0.0,0.0,0.0,0.0,0.0,0.0,0.0,0.0,0.0,0.0,0.0,0.0,0.0,0.0,0.0,0.0,0.0,0.0,0.0,0.0,0.0,0.0,0.0,0.0,0.0,0.0,0.0,0.0,0.0,0.0,0.0,-3.7454,-4.0969,-4.4491,-4.5215,-4.5526,-4.5577,-4.4111,-4.1342,-3.7207,0.0,0.0,0.0,0.0,0.0,0.0,0.0,0.0,0.0,0.0,0.0,0.0,0.0,0.0,0.0,0.0,0.0,0.0,0.0,0.0,0.0,0.0,0.0,0.0,0.0,0.0,0.0,0.0,0.0,0.0,0.0,0.0,0.0,0.0,0.0,0.0,0.0,0.0,-2.834,-3.0539,0.0,0.0,0.0,0.0,0.0,0.0,0.0,0.0,-3.2496,0.0,0.0,0.0,0.0,0.0,0.0,0.0,0.0,0.0,0.0,0.0,0.0,0.0,0.0,0.0,0.0,0.0,0.0,0.0,0.0,0.0,0.0,0.0,0.0,0.0,0.0,0.0,0.0,0.0,0.0,0.0,0.0,0.0,0.0,0.0,0.0,0.0,0.0,0.0,0.0,0.0,0.0,0.0,0.0,0.0,0.0,0.0,0.0,0.0,0.0,0.0,0.0,0.0,0.0,0.0,0.0,-3.7043,-3.7811,-4.0467,-4.5189,-4.5439,-4.5556,-4.5631,-4.4139,-4.1271,-3.6994,0.0,0.0,0.0,0.0,0.0,0.0,0.0,0.0,0.0,0.0,0.0,0.0,0.0,0.0,0.0,0.0,0.0,0.0,0.0,0.0,0.0,0.0,0.0,0.0,0.0,0.0,0.0,0.0,0.0,0.0,0.0,0.0,0.0,0.0,0.0,0.0,0.0,0.0,0.0,-3.2131,-3.3619,0.0,0.0,0.0,0.0,0.0,0.0,0.0,0.0,-3.2396,0.0,0.0,0.0,0.0,0.0,0.0,0.0,0.0,0.0,0.0,0.0,0.0,0.0,0.0,0.0,0.0,0.0,0.0,0.0,0.0,0.0,0.0,0.0,0.0,0.0,0.0,0.0,0.0,0.0,0.0,0.0,0.0,0.0,0.0,0.0,0.0,0.0,0.0,0.0,0.0,0.0,0.0,0.0,0.0,0.0,0.0,0.0,0.0,0.0,0.0,0.0,0.0,0.0,0.0,0.0,-3.5751,-3.8079,-4.1045,-4.4715,-4.4864,-4.4938,-4.4989,-4.2176,-3.94,0.0,0.0,0.0,0.0,0.0,0.0,0.0,0.0,0.0,0.0,0.0,0.0,0.0,0.0,0.0,0.0,0.0,0.0,0.0,0.0,0.0,0.0,0.0,0.0,0.0,0.0,0.0,0.0,0.0,0.0,0.0,0.0,0.0,0.0,0.0,0.0,0.0,0.0,0.0,0.0,-3.2924,-3.4293,-3.5842,0.0,0.0,0.0,0.0,0.0,0.0,-3.3917,-3.3728,0.0,0.0,0.0,0.0,0.0,0.0,0.0,0.0,0.0,0.0,0.0,0.0,0.0,0.0,0.0,0.0,0.0,0.0,0.0,0.0,0.0,0.0,0.0,0.0,0.0,0.0,0.0,0.0,0.0,0.0,0.0,0.0,0.0,0.0,0.0,0.0,0.0,0.0,0.0,0.0,0.0,0.0,0.0,0.0,0.0,0.0,0.0,0.0,0.0,0.0,0.0,0.0,0.0,0.0,0.0,-3.3918,-3.7902,-4.1264,-4.3907,-4.4221,-4.4312,-4.4182,-4.0574,-3.7853,0.0,0.0,0.0,0.0,0.0,0.0,0.0,0.0,0.0,0.0,0.0,0.0,0.0,0.0,0.0,0.0,0.0,0.0,0.0,0.0,0.0,0.0,0.0,0.0,0.0,0.0,0.0,0.0,0.0,0.0,0.0,0.0,0.0,0.0,0.0,0.0,0.0,0.0,0.0,0.0,0.0,-3.5248,-3.7036,-3.6131,0.0,0.0,0.0,0.0,-3.5096,-3.5241,0.0,0.0,0.0,0.0,0.0,0.0,0.0,0.0,0.0,0.0,0.0,0.0,0.0,0.0,0.0,0.0,0.0,0.0,0.0,0.0,0.0,0.0,0.0,0.0,0.0,0.0,0.0,0.0,0.0,0.0,0.0,0.0,0.0,0.0,0.0,0.0,0.0,0.0,0.0,0.0,0.0,0.0,0.0,0.0,0.0,0.0,0.0,0.0,0.0,0.0,0.0,0.0,0.0,0.0,0.0,0.0,-3.3057,-3.654,-3.9847,-4.3011,-4.398,-4.4107,-4.3426,-4.1351,-3.8391,0.0,0.0,0.0,0.0,0.0,0.0,0.0,0.0,0.0,0.0,0.0,0.0,0.0,0.0,0.0,0.0,0.0,0.0,0.0,0.0,0.0,0.0,0.0,0.0,0.0,0.0,0.0,0.0,0.0,0.0,0.0,0.0,0.0,0.0,0.0,0.0,0.0,0.0,0.0,0.0,0.0,-3.7342,-3.5515,-3.6149,-3.6768,0.0,0.0,0.0,-3.7296,-3.6754,0.0,0.0,0.0,0.0,0.0,0.0,0.0,0.0,0.0,0.0,0.0,0.0,0.0,0.0,0.0,0.0,0.0,0.0,0.0,0.0,0.0,0.0,0.0,0.0,0.0,0.0,0.0,0.0,0.0,0.0,0.0,0.0,0.0,0.0,0.0,0.0,0.0,0.0,0.0,0.0,0.0,0.0,0.0,0.0,0.0,0.0,0.0,0.0,0.0,0.0,0.0,0.0,0.0,0.0,0.0,-2.8479,-3.2662,-3.639,-3.9723,-4.2597,-4.3415,-4.3547,-4.3076,-3.9811,-3.6768,0.0,0.0,0.0,0.0,0.0,0.0,0.0,0.0,0.0,0.0,0.0,0.0,0.0,0.0,0.0,0.0,0.0,0.0,0.0,0.0,0.0,0.0,0.0,0.0,0.0,0.0,0.0,0.0,0.0,0.0,0.0,0.0,0.0,0.0,0.0,0.0,0.0,0.0,0.0,0.0,0.0,0.0,-3.7589,-3.7766,0.0,0.0,0.0,-3.7904,-3.7738,0.0,0.0,0.0,0.0,0.0,0.0,0.0,0.0,0.0,0.0,0.0,0.0,0.0,0.0,0.0,0.0,0.0,0.0,0.0,0.0,0.0,0.0,0.0,0.0,0.0,0.0,0.0,0.0,0.0,0.0,0.0,0.0,0.0,0.0,0.0,0.0,0.0,0.0,0.0,0.0,0.0,0.0,0.0,0.0,0.0,0.0,0.0,0.0,0.0,0.0,0.0,0.0,0.0,0.0,0.0,0.0,0.0,-3.2188,-3.645,-3.9755,-4.2023,-4.2943,-4.3117,-4.2471,-3.8796,0.0,0.0,0.0,0.0,0.0,0.0,0.0,0.0,0.0,0.0,0.0,0.0,0.0,0.0,0.0,0.0,0.0,0.0,0.0,0.0,0.0,0.0,0.0,0.0,0.0,0.0,0.0,-2.0351,0.0,0.0,0.0,0.0,0.0,0.0,0.0,0.0,0.0,0.0,0.0,0.0,0.0,0.0,-3.6727,-3.9169,-3.9286,-3.9133,0.0,0.0,-3.9376,-3.8409,-3.793,-3.6848,0.0,0.0,0.0,0.0,0.0,0.0,0.0,0.0,0.0,0.0,0.0,0.0,0.0,0.0,0.0,0.0,0.0,0.0,0.0,0.0,0.0,0.0,0.0,0.0,0.0,0.0,0.0,0.0,0.0,0.0,0.0,0.0,0.0,0.0,0.0,0.0,0.0,0.0,0.0,0.0,0.0,0.0,0.0,0.0,0.0,0.0,0.0,0.0,0.0,0.0,0.0,0.0,0.0,0.0,0.0,-3.1437,-3.6381,-3.9626,-4.1007,-4.2752,-4.2957,-4.1434,-3.9485,-3.6263,0.0,0.0,0.0,0.0,0.0,0.0,0.0,0.0,0.0,0.0,0.0,0.0,0.0,0.0,0.0,0.0,0.0,0.0,0.0,0.0,0.0,0.0,0.0,0.0,0.0,0.0,0.0,0.0,0.0,0.0,0.0,0.0,0.0,0.0,0.0,0.0,0.0,0.0,0.0,0.0,0.0,-3.9045,-3.8474,-4.0109,-4.1428,0.0,0.0,-4.0063,-4.0026,-3.897,-3.7041,-3.3795,0.0,0.0,0.0,0.0,0.0,0.0,0.0,0.0,0.0,0.0,0.0,0.0,0.0,0.0,0.0,0.0,0.0,0.0,0.0,0.0,0.0,0.0,0.0,0.0,0.0,0.0,0.0,0.0,0.0,0.0,0.0,0.0,0.0,0.0,0.0,0.0,0.0,0.0,0.0,0.0,0.0,0.0,0.0,0.0,0.0,0.0,0.0,0.0,0.0,0.0,0.0,0.0,0.0,-2.8235,-3.0944,-3.5809,-3.8808,-3.9853,-4.1307,-4.1523,-4.0336,-3.8558,-3.5809,0.0,0.0,0.0,0.0,0.0,0.0,0.0,0.0,0.0,0.0,0.0,0.0,0.0,0.0,0.0,0.0,0.0,0.0,0.0,0.0,0.0,0.0,0.0,0.0,0.0,0.0,0.0,0.0,-2.2217,-2.2557,-2.2421,0.0,0.0,0.0,0.0,0.0,0.0,0.0,0.0,0.0,0.0,-3.8952,-3.9347,-4.0663,0.0,0.0,-4.1362,-4.0965,-3.971,-3.8708,-3.7061,-3.4169,-3.2731,0.0,0.0,0.0,0.0,0.0,0.0,0.0,0.0,0.0,0.0,0.0,0.0,0.0,0.0,0.0,0.0,0.0,0.0,0.0,0.0,0.0,0.0,0.0,0.0,0.0,0.0,0.0,0.0,0.0,0.0,0.0,0.0,0.0,0.0,0.0,0.0,0.0,0.0,0.0,0.0,0.0,0.0,0.0,0.0,0.0,0.0,0.0,0.0,0.0,0.0,0.0,0.0,-2.8164,-3.1042,-3.5385,-3.8092,-3.9067,-4.0269,-4.0509,-3.9622,-3.7909,-3.56,0.0,0.0,0.0,0.0,0.0,0.0,0.0,0.0,0.0,0.0,0.0,0.0,0.0,0.0,0.0,0.0,0.0,0.0,0.0,0.0,0.0,0.0,0.0,0.0,0.0,0.0,0.0,0.0,-2.2866,-2.2955,-2.2719,0.0,0.0,0.0,0.0,0.0,0.0,0.0,0.0,0.0,0.0,-3.9583,-4.0677,-4.1576,-4.2007,-4.1765,-4.1707,-4.1208,-3.9838,-3.8866,-3.7394,-3.4791,0.0,0.0,0.0,0.0,0.0,0.0,0.0,0.0,0.0,0.0,0.0,0.0,0.0,0.0,0.0,0.0,0.0,0.0,0.0,0.0,0.0,0.0,0.0,0.0,0.0,0.0,0.0,0.0,0.0,0.0,0.0,0.0,0.0,0.0,0.0,0.0,0.0,0.0,0.0,0.0,0.0,0.0,0.0,0.0,0.0,0.0,0.0,0.0,0.0,0.0,0.0,0.0,0.0,0.0,-3.1845,-3.5234,-3.7553,-3.8776,-3.9914,-4.013,-3.9386,-3.7828,-3.5854,-3.3339,0.0,0.0,0.0,0.0,0.0,0.0,0.0,0.0,0.0,0.0,0.0,0.0,0.0,0.0,0.0,0.0,0.0,0.0,0.0,0.0,0.0,0.0,0.0,0.0,0.0,0.0,-2.2538,-2.226,-2.1783,0.0,0.0,0.0,0.0,0.0,0.0,0.0,0.0,0.0,0.0,-3.9733,-4.1462,-4.2276,-4.2907,-4.3279,-4.3518,-4.188,-4.0617,-4.0802,-3.9785,-3.8133,0.0,0.0,0.0,0.0,0.0,0.0,0.0,0.0,0.0,0.0,0.0,0.0,0.0,0.0,0.0,0.0,0.0,0.0,0.0,0.0,0.0,0.0,0.0,0.0,0.0,0.0,0.0,-2.8481,-2.7343,0.0,0.0,0.0,0.0,0.0,0.0,0.0,0.0,0.0,0.0,0.0,-3.5583,-3.6235,0.0,0.0,0.0,0.0,0.0,0.0,0.0,0.0,0.0,0.0,0.0,0.0,-2.9199,-3.1681,-3.5512,-3.7666,-3.8006,-3.8977,-3.9228,-3.8608,-3.7557,-3.5111,-3.1125,0.0,0.0,0.0,0.0,0.0,0.0,0.0,0.0,0.0,0.0,0.0,0.0,0.0,0.0,0.0,0.0,0.0,0.0,0.0,0.0,0.0,0.0,0.0,0.0,0.0,-2.2426,0.0,0.0,0.0,0.0,0.0,0.0,0.0,0.0,0.0,0.0,0.0,-3.6912,-3.8326,-4.0551,-4.2053,-4.1991,-4.2739,-4.3178,0.0,0.0,0.0,0.0,0.0,0.0,0.0,0.0,0.0,0.0,0.0,0.0,0.0,0.0,-3.6861,-3.3019,-3.2282,-3.2004,-3.1269,0.0,0.0,0.0,0.0,0.0,0.0,0.0,0.0,0.0,0.0,0.0,0.0,0.0,0.0,0.0,0.0,-3.0254,0.0,0.0,0.0,0.0,0.0,0.0,0.0,0.0,-3.6882,-3.8572,-3.8937,-3.9556,-3.875,0.0,-3.6808,-3.3962,0.0,0.0,0.0,0.0,0.0,0.0,0.0,0.0,-3.006,-3.2362,-3.5612,-3.7399,-3.7613,-3.8331,-3.856,-3.8209,-3.7142,-3.4888,-3.1256,-2.9247,-2.74,0.0,0.0,0.0,0.0,0.0,0.0,0.0,0.0,0.0,0.0,0.0,0.0,0.0,0.0,0.0,0.0,0.0,0.0,0.0,0.0,0.0,0.0,0.0,-2.3373,0.0,0.0,0.0,0.0,0.0,0.0,0.0,0.0,0.0,-3.398,-3.6751,-3.9296,-4.0738,-4.191,-4.2608,-4.2539,0.0,0.0,0.0,0.0,0.0,0.0,0.0,-3.9987,-3.9669,-3.9503,-3.9111,-3.8342,-3.9254,-3.9869,-3.9068,0.0,0.0,-3.6419,-3.5628,-3.5302,-3.453,-3.5197,-3.5649,-3.4874,-3.5722,-3.6267,0.0,0.0,0.0,0.0,0.0,0.0,0.0,0.0,-3.6488,-3.6161,0.0,-3.4244,0.0,0.0,0.0,0.0,0.0,0.0,0.0,0.0,-4.1816,-4.3177,-4.1618,-4.2018,-4.1738,-4.0857,-4.1184,-3.9426,-3.563,-3.1655,0.0,0.0,0.0,0.0,0.0,0.0,-3.0838,-3.3838,-3.5615,-3.6827,-3.7595,-3.8003,-3.8191,-3.8118,-3.6635,-3.5118,-3.3698,-3.2041,-3.0246,-2.8189,-2.5629,0.0,0.0,0.0,0.0,0.0,0.0,0.0,0.0,0.0,0.0,0.0,0.0,0.0,0.0,0.0,0.0,0.0,0.0,0.0,0.0,-2.4029,0.0,0.0,0.0,0.0,0.0,0.0,0.0,0.0,0.0,0.0,-3.7486,-3.8998,-4.1301,-4.4415,0.0,0.0,0.0,0.0,-4.3186,-4.3744,-4.3162,-4.2846,-4.3312,-4.319,-4.2798,-4.2051,0.0,0.0,-4.0976,-4.1797,-4.1986,-3.981,-4.0617,-4.1248,-4.0075,-3.9407,-3.8933,-3.8181,-3.8041,-3.8146,-3.8178,-3.8587,-3.8972,-4.1336,0.0,0.0,0.0,0.0,-3.8442,-3.9835,-4.2431,-4.1393,-4.0388,-3.9425,-3.8786,0.0,0.0,0.0,0.0,0.0,0.0,-3.9547,-4.0604,-4.2291,-4.3416,-4.4092,-4.3926,-4.3391,-4.2554,-4.1903,-4.0393,-3.8114,-3.6098,-3.2704,-2.8103,0.0,0.0,0.0,0.0,-3.2688,-3.4659,-3.6364,-3.7435,-3.7793,-3.8055,-3.7937,-3.7357,-3.6345,-3.5074,-3.3535,-3.2621,-3.109,-2.893,-2.7577,0.0,0.0,0.0,0.0,0.0,0.0,0.0,0.0,0.0,0.0,0.0,0.0,0.0,0.0,0.0,0.0,0.0,0.0,0.0,-2.4069,-2.4046,-2.4749,0.0,0.0,0.0,0.0,0.0,0.0,0.0,0.0,0.0,-4.2267,-4.2687,-4.3423,0.0,0.0,-4.4764,-4.4189,-4.4229,-4.4335,-4.436,0.0,0.0,0.0,-4.3368,-4.316,-4.3281,-4.3652,-4.3676,-4.3026,-4.2868,-4.2394,-4.1148,-4.1306,-4.149,-4.1156,-4.0591,-3.9884,-3.9217,-3.941,-3.9694,-3.9491,-3.9981,-4.028,-4.4954,-4.2198,-4.0677,-4.0788,-4.1926,-4.1481,-4.264,-4.4793,-4.397,-4.3243,-4.2591,-4.2331,-4.0672,-3.8028,-3.682,0.0,0.0,0.0,-4.1698,-4.3051,-4.3454,-4.4197,-4.5112,-4.4726,-4.4238,-4.3712,-4.2314,-4.1124,-4.0091,-3.8567,-3.5805,-3.1915,0.0,0.0,-3.1212,-3.2855,-3.4335,-3.5545,-3.697,-3.7793,-3.7917,-3.8107,-3.7828,-3.7013,-3.6218,-3.5206,-3.3918,-3.3219,-3.1949,-3.0056,-2.9239,-2.7452,0.0,0.0,0.0,0.0,0.0,0.0,0.0,0.0,0.0,0.0,0.0,-1.9427,0.0,0.0,0.0,0.0,-2.2772,-2.4517,-2.6397,-2.7238,0.0,0.0,0.0,0.0,0.0,0.0,0.0,-3.997,-4.2382,-4.4276,-4.524,-4.5552,-4.5866,-4.6451,-4.6011,-4.5492,-4.5057,0.0,-4.4822,-4.4903,-4.4934,-4.4888,-4.4812,-4.4548,-4.4436,-4.477,-4.4817,-4.4536,-4.3957,-4.3518,-4.2868,-4.192,-4.1604,-4.1604,-4.1604,-4.1218,-4.0797,-4.034,-4.0586,-4.0837,-4.0615,-4.0918,-4.1007,-4.7956,-4.7001,-4.4461,-4.3794,-4.4374,-4.4393,-4.488,-4.5616,-4.4834,-4.4954,-4.563,-4.4924,-4.3667,-4.2029,-4.0514,0.0,0.0,-4.2702,-4.3928,-4.4703,-4.5064,-4.5222,-4.518,-4.4732,-4.451,-4.4463,-4.2585,-4.1683,-4.158,-3.9528,-3.7695,-3.6109,-3.5296,-3.4645,-3.4269,-3.4969,-3.5756,-3.6524,-3.7434,-3.7899,-3.7917,-3.8035,-3.772,-3.6888,-3.6057,-3.5206,-3.4425,-3.3628,-3.2591,-3.1263,-3.0502,-2.8748,-2.5834,0.0,0.0,0.0,0.0,0.0,0.0,0.0,0.0,0.0,0.0,0.0,0.0,0.0,0.0,0.0,-2.6184,0.0,-2.9486,-3.2256,0.0,0.0,0.0,-3.7271,-3.8904,-4.1003,-4.2578,-4.323,0.0,0.0,0.0,0.0,-4.8292,-4.885,-4.7059,-4.585,-4.6402,-4.554,-4.5022,-4.5531,-4.5505,-4.5658,-4.5982,-4.6021,-4.6028,-4.6056,-4.6144,-4.546,-4.4202,-4.3781,-4.3202,-4.1868,-4.1604,-4.1604,-4.1604,-4.1569,-4.1604,-4.1534,-4.1552,-4.1587,-4.1529,-4.1565,-4.1386,-4.8934,-4.8062,-4.6718,-4.5823,-4.5287,-4.5287,-4.543,-4.5593,-4.5448,-4.5499,-4.5688,-4.5544,-4.4887,-4.3885,-4.4143,-4.3989,-4.3629,-4.4718,-4.5327,-4.5503,-4.5456,-4.5343,-4.5171,-4.4868,-4.4642,-4.4388,-4.2585,-4.1683,-4.1595,-3.9528,-3.8293,-3.7878,-3.7526,-3.656,-3.5111,-3.5756,-3.6594,-3.7541,-3.7774,-3.7899,-3.7881,-3.7511,-3.6839,-3.5861,-3.4638,-3.3592,-3.2795,-3.1999,-3.1206,-3.0435,-3.0307,-2.9351,-2.7411,-2.5097,0.0,0.0,0.0,0.0,0.0,0.0,0.0,0.0,0.0,-2.345,-2.0956,0.0,-2.6425,0.0,-2.8203,-3.0627,-3.354,-3.3949,0.0,0.0,-3.963,-4.1034,-4.3047,-4.4304,-4.5254,-4.5769,-4.6934,-4.7719,-4.7684,-4.8394,-4.8959,-4.9047,-4.8453,-4.774,-4.7055,-4.6827,-4.6689,-4.674,-4.6318,-4.6059,-4.6151,-4.6214,-4.6161,-4.6214,-4.5723,-4.5027,-4.4044,-4.3412,-4.2745,-4.1815,-4.1604,-4.1604,-4.1604,-4.1604,-4.1604,-4.1604,-4.1604,-4.1604,-4.1604,-4.1604,-4.1538,-4.9382,-4.8492,-4.755,-4.6575,-4.5684,-4.5629,-4.5622,-4.5648,-4.5676,-4.5715,-4.5758,-4.5783,-4.5539,-4.5112,-4.5595,-4.5537,-4.5131,-4.5578,-4.5805,-4.5793,-4.5594,-4.539,-4.5201,-4.4919,-4.4688,-4.4444,-4.3077,-4.2156,-4.1613,-4.0018,-3.8982,-3.851,-3.8307,-3.7622,-3.652,-3.6948,-3.7484,-3.8039,-3.7934,-3.7846,-3.7757,-3.7091,-3.6172,-3.4988,-3.4217,-3.312,-3.1727,-3.1596,-3.0894,-2.9544,-2.9941,-2.932,-2.7382,-2.6131,-2.5051,0.0,0.0,0.0,0.0,0.0,0.0,0.0,0.0,0.0,0.0,0.0,-2.9306,0.0,-3.2722,0.0,-3.7516,-3.8315,-3.9641,-4.1876,-4.2827,-4.4029,-4.5936,-4.6465,-4.704,-4.7845,-4.8381,-4.8602,-4.8443,-4.8783,-4.9046,-4.9015,-4.891,-4.8548,-4.7774,-4.7373,-4.7129,-4.7102,-4.6596,-4.6074,-4.5758,-4.5389,-4.5161,-4.5144,-4.4852,-4.4308,-4.357,-4.3079,-4.2552,-4.178,-4.1604,-4.1604,-4.1604,-4.1604,-4.1604,-4.1604,-4.1604,-4.1604,-4.1604,-4.1604,-4.1582,-4.9666,-4.8801,-4.7796,-4.6862,-4.5983,-4.575,-4.5657,-4.5693,-4.5684,-4.5731,-4.5815,-4.5815,-4.5815,-4.5815,-4.5815,-4.5815,-4.5815,-4.5812,-4.5807,-4.5793,-4.5618,-4.5437,-4.5191,-4.4954,-4.4726,-4.4458,-4.3688,-4.2749,-4.1726,-4.0674,-3.9607,-3.8593,-3.834,-3.8089,-3.7916,-3.8056,-3.8141,-3.8106,-3.7969,-3.7775,-3.7558,-3.672,-3.5665,-3.4456,-3.4036,-3.294,-3.1084,-3.1564,-3.093,-2.8956,-2.9734,-2.9343,-2.7266,-2.7216,-2.6921,0.0,-2.5152,0.0,0.0,0.0,0.0,0.0,0.0,0.0,0.0,-3.1499,-3.2977,-3.5577,-3.8025,-3.9959,-4.1113,-4.3272,-4.4619,-4.4672,-4.5299,-4.6291,-4.768,-4.7834,-4.8239,-4.938,-4.9514,-4.9346,-4.9006,-4.8943,-4.889,-4.889,-4.8779,-4.8508,-4.8199,-4.7456,-4.6944,-4.6905,-4.6441,-4.5741,-4.5081,-4.4448,-4.409,-4.4055,-4.3932,-4.3627,-4.307,-4.2806,-4.2462,-4.1802,-4.1604,-4.1604,-4.1604,-4.1604,-4.1604,-4.1604,-4.1604,-4.1604,-4.1604,-4.1604,-4.1604,-5.062,-4.9777,-4.8821,-4.7903,-4.7032,-4.6145,-4.5708,-4.5631,-4.5676,-4.5746,-4.5812,-4.5812,-4.5812,-4.5812,-4.5812,-4.5812,-4.5812,-4.58,-4.5807,-4.5807,-4.5759,-4.556,-4.5211,-4.514,-4.4898,-4.4472,-4.367,-4.2817,-4.1919,-4.0868,-3.9824,-3.8837,-3.8415,-3.8086,0.0,0.0,0.0,0.0,-3.7685,-3.754,-3.7319,-3.6079,-3.5224,-3.4746,-3.2552,0.0,-3.0772,-3.0442,-3.0056,-2.9652,-3.0674,0.0,0.0,0.0,0.0,0.0,0.0,0.0,0.0,0.0,0.0,0.0,-3.3491,-3.3343,-3.2718,-3.5725,-3.8134,-3.8986,-4.0834,-4.2421,-4.3456,-4.4163,-4.4851,-4.5498,-4.6279,-4.7071,-4.7737,-4.8332,-4.9017,-4.9657,-4.9554,-4.9396,-4.9305,-4.9077,-4.8909,-4.8872,-4.8333,-4.7927,-4.784,-4.7315,-4.6973,-4.6917,-4.6003,-4.505,-4.4266,-4.4248,-4.424,-4.4329,-4.3849,-4.3454,-4.3219,-4.2708,-4.2207,-4.1675,-4.1604,-4.1604,-4.1604,-4.1604,-4.1604,-4.1604,-4.1604,-4.1604,-4.1604,-4.1604,-4.1604,-5.0633,0.0,-4.895,-4.7986,0.0,-4.6138,-4.5828,-4.568,-4.5708,-4.5754,-4.58,-4.5807,-4.5807,-4.5807,-4.5807,-4.5807,-4.5807,-4.5807,-4.5807,-4.5807,-4.5807,-4.5574,-4.5201,-4.5201,-4.4965,-4.4496,-4.4102,-4.3257,-4.201,-4.1353,-4.0261,-3.877,-3.8378,-3.8,-3.7612,-3.7392,-3.7336,-3.7466,-3.7466,-3.7353,-3.7127,-3.6073,-3.5119,-3.4288,0.0,0.0,0.0,0.0,0.0,0.0,0.0,0.0,0.0,0.0,0.0,-3.2321,-3.1888,-3.2001,-3.2826,-3.3247,-3.4383,-3.6482,-3.8154,-3.8241,-3.6223,-3.9261,-4.1386,-4.1692,-4.294,-4.4043,-4.4743,-4.4958,-4.526,-4.5761,-4.6194,-4.6703,-4.7299,-4.7742,-4.8391,-4.9222,-4.9296,-4.9248,-4.9389,-4.9255,-4.9077,-4.8887,-4.8203,-4.77,-4.7662,-4.6963,-4.6341,-4.6077,-4.5228,-4.4441,-4.4014,-4.3716,-4.3584,-4.3367,-4.3051,-4.2753,-4.254,-4.2182,-4.1831,-4.1631,-4.1604,-4.1604,-4.1604,-4.1604,-4.1604,-4.1604,-4.1604,-4.1604,-4.1604,-4.1604,-4.152,-5.034,-4.9013,-4.8701,-4.7723,-4.6349,-4.6115,-4.5928,-4.5808,0.0,0.0,0.0,-4.5807,-4.5807,-4.5807,-4.5807,-4.5807,-4.5807,-4.5807,-4.5807,-4.5807,-4.5807,-4.561,-4.5244,-4.5222,-4.4969,-4.456,-4.451,-4.3637,-4.2029,-4.1829,-4.0669,-3.8756,-3.8346,-3.7879,-3.726,-3.7085,-3.7085,-3.7239,-3.7239,-3.7163,-3.6989,-3.6292,-3.5327,-3.4076,-3.3951,-3.3005,-3.1153,-3.1793,-3.1601,-3.0367,-3.1379,-3.2125,-3.2354,-3.3142,-3.432,-3.5756,-3.5845,-3.6155,-3.6848,-3.6891,-3.7684,-3.9417,-4.1553,-4.1973,-3.9979,-4.2025,-4.3455,-4.3662,-4.4348,-4.4935,-4.5333,-4.5463,-4.5571,-4.5735,-4.5792,-4.6113,-4.6877,-4.6976,-4.7517,-4.8602,-4.8802,-4.8824,-4.8955,-4.8904,-4.884,-4.8436,-4.7662,-4.7231,-4.7078,-4.6325,-4.5589,-4.4983,-4.4436,-4.4033,-4.3753,-4.3392,-4.279,-4.2667,-4.2514,-4.2259,-4.1941,-4.1809,-4.1744,-4.1626,-4.1604,-4.1604,-4.1604,-4.1604,-4.1604,-4.1604,-4.1604,-4.1604,-4.1604,-4.1604,-4.1475,-5.0143,-4.9811,-4.8367,-4.7623,-4.7342,-4.6443,-4.6005,-4.5871,-4.5752,-4.5734,-4.5807,-4.5807,-4.5807,-4.5807,-4.5807,-4.5807,-4.5807,-4.5807,-4.5807,0.0,-4.5807,-4.5692,-4.5445,-4.5274,-4.5041,-4.4758,-4.4568,-4.3637,-4.2141,-4.1924,-4.077,-3.8808,-3.8326,-3.7808,-3.7087,-3.7027,-3.7027,-3.7046,-3.7046,-3.7027,-3.6989,-3.6556,-3.6077,-3.5499,-3.4689,-3.3968,-3.3297,-3.3836,-3.409,-3.3905,-3.5205,-3.6018,-3.6056,-3.6223,-3.6514,-3.6702,-3.6677,-3.6968,-3.7684,-3.7726,-3.8748,-4.1014,-4.2222,-4.266,-4.2451,-4.3394,-4.4117,-4.4266,-4.4521,-4.477,-4.4919,-4.5246,-4.5491,-4.5566,-4.5703,-4.6113,-4.6857,-4.6921,-4.7225,-4.8153,-4.8064,-4.7835,-4.7757,-4.7523,-4.7335,-4.6869,-4.648,-4.5615,-4.5229,-4.5251,-4.5026,-4.4227,-4.4071,-4.3828,-4.3414,-4.3269,-4.3266,-4.3248,-4.3195,-4.3032,-4.2619,-4.2501,-4.23,-4.174,-4.1631,-4.1626,-4.1626,-4.1604,-4.1604,-4.1604,-4.1604,-4.1604,-4.1604,-4.1582,-4.1448,-4.9811,-4.9267,-4.8094,-4.7317,-4.6851,-4.6311,-4.6063,-4.5998,-4.5879,-4.5808,-4.5807,-4.5807,-4.5807,-4.5807,-4.5807,-4.5807,-4.5807,-4.5807,-4.5807,-4.5807,-4.5807,-4.57,-4.5509,-4.5284,-4.5044,-4.4769,-4.4143,-4.3206,-4.2061,-4.1528,-4.0337,-3.851,-3.7861,-3.7357,-3.7009,-3.6989,-3.6989,-3.6989,-3.6989,-3.6989,-3.6989,-3.6813,-3.6423,-3.5829,-3.5331,-3.4836,-3.4269,-3.4715,-3.497,-3.497,-3.6007,-3.6803,-3.7307,-3.7499,-3.7785,-3.8227,-3.815,-3.8221,-3.8539,-3.9398,-4.0568,-4.211,-4.2983,-4.3444,-4.349,-4.3953,-4.427,-4.4325,-4.4505,-4.4636,-4.4795,-4.4981,-4.5225,-4.5464,-4.558,-4.5838,-4.6244,-4.6333,-4.6629,-4.733,-4.7366,-4.7324,-4.7491,-4.7295,-4.7024,-4.6757,-4.6064,-4.5227,-4.4489,-4.4687,-4.4759,-4.4172,-4.4147,-4.4082,-4.3724,-4.3775,-4.3793,-4.3609,-4.3559,-4.337,-4.2941,-4.2717,-4.2424,-4.2154,-4.1938,-4.1784,-4.1762,-4.1762,-4.1719,-4.1604,-4.1604,-4.1604,-4.1582,-4.1277,-4.0896,-4.9423,-4.874,-4.7725,-4.691,-4.6294,-4.6199,-4.6136,-4.6115,-4.6002,-4.5914,-4.5841,-4.5801,-4.5807,-4.5807,-4.5807,-4.5807,-4.5807,-4.5807,-4.5807,-4.5807,-4.5807,-4.5703,-4.5569,-4.5362,-4.5044,-4.4561,-4.3756,-4.2816,-4.1773,-4.1085,-3.9919,-3.8366,-3.7523,-3.7106,-3.6989,-3.6989,-3.6989,-3.6989,-3.7069,-3.7108,-3.7108,-3.7185,-3.6904,-3.6243,-3.6247,-3.5982,-3.5418,-3.5788,-3.6067,-3.6148,-3.6771,-3.7448,-3.8152,-3.8351,-3.8733,-3.9292,-3.9301,-3.9295,-3.9486,-4.094,-4.2129,-4.276,-4.354,-4.4005,-4.402,-4.4177,-4.4318,-4.4333,-4.4416,-4.4565,-4.4701,-4.4776,-4.4954,-4.5285,-4.5445,-4.559,-4.5711,-4.5758,-4.5955,-4.6538,-4.66,-4.6752,-4.7002,-4.696,-4.6664,-4.6317,-4.5839,-4.5129,-4.4557,-4.4454,-4.4444,-4.4387,-4.4329,-4.4314,-4.4329,-4.4285,-4.4143,-4.3855,-4.3839,-4.3625,-4.3247,-4.2848,-4.2621,-4.2619,-4.2338,-4.2092,-4.2026,-4.1938,-4.1827,-4.1653,-4.1604,-4.156,-4.1408,-4.0937,-4.0449,-4.8876,-4.8545,-4.71,-4.6368,-4.6301,-4.6284,-4.6238,-4.6193,-4.6099,-4.6039,-4.5986,-4.5867,-4.5807,-4.5807,-4.5807,-4.5807,-4.5807,-4.5807,-4.5807,-4.5807,-4.5807,-4.5793,-4.5745,-4.5569,-4.4949,-4.4111,-4.37,-4.2674,-4.1123,-4.0752,-3.983,-3.8352,-3.7773,-3.7339,-3.7048,-3.6989,-3.6989,-3.7007,-3.7282,-3.745,-3.7487,-3.7809,-3.7772,-3.7362,-3.7524,-3.7524,-3.7256,-3.7962,-3.8367,-3.8588,-3.8984,-3.9314,-3.9408,-3.9452,-3.9421,-3.9399,-3.9391,-3.9642,-4.03,-4.1794,-4.2705,-4.2835,-4.354,-4.4023,-4.402,-4.4177,-4.4318,-4.4314,-4.4354,-4.4454,-4.4537,-4.4688,-4.4849,-4.4969,-4.5275,-4.55,-4.5566,-4.5643,-4.575,-4.5797,-4.5851,-4.5657,-4.5665,-4.5619,-4.5388,-4.523,-4.5081,-4.4826,-4.4575,-4.4482,-4.4501,-4.4473,-4.4426,-4.4397,-4.4401,-4.4325,-4.4266,-4.4222,-4.4237,-4.4033,-4.3707,-4.354,-4.3473,-4.3105,-4.279,-4.2519,-4.2302,-4.2092,-4.187,-4.1697,-4.1604,-4.1475,-4.114,-4.0724,-4.0441,-4.8798,-4.8642,-4.7002,-4.629,-4.6302,-4.6288,-4.6268,-4.6244,-4.6177,-4.6142,-4.6109,-4.5968,-4.5886,-4.5807,-4.5807,-4.5807,-4.5807,-4.5807,-4.5807,-4.5807,-4.5807,-4.5807,-4.5786,-4.5602,-4.5262,-4.4786,-4.4002,-4.2965,-4.1693,-4.033,-3.9219,-3.8473,-3.7995,-3.7578,-3.722,-3.7182,-3.7222,-3.7301,-3.7703,-3.8013,-3.8178,-3.8181,-3.8115,-3.8013,-3.8047,-3.808,-3.8062,-3.8511,-3.881,-3.891,-3.9343,-3.9608,-3.9608,-3.9608,-3.9546,-3.9455,-3.9778,-4.0323,-4.1084,-4.2166,-4.302,-4.3466,-4.3884,-4.4119,-4.4135,-4.4252,-4.4354,-4.4373,-4.443,-4.4524,-4.4655,-4.4764,-4.4908,-4.5163,-4.5275,-4.54,-4.5599,-4.5556,-4.5538,-4.5631,-4.5603,-4.5549,-4.5438,-4.5332,-4.5159,-4.4929,-4.4827,-4.4739,-4.4668,-4.4587,-4.4496,-4.4501,-4.4468,-4.4454,-4.444,-4.4444,-4.4416,-4.4397,-4.4416,-4.431,-4.4155,-4.3886,-4.3689,-4.3644,-4.3213,-4.2884,-4.2753,-4.2478,-4.2228,-4.1934,-4.1648,-4.1493,-4.1088,-4.07,-4.0392,-4.8993,-4.8566,-4.7008,-4.6294,-4.6302,-4.6289,-4.6289,-4.6289,-4.6216,-4.6204,-4.6175,-4.6072,-4.5963,-4.5879,-4.5828,-4.5807,-4.5807,-4.5807,-4.5807,-4.5807,-4.5807,-4.5807,-4.5793,-4.565,-4.5426,-4.5012,-4.3909,-4.2754,-4.1588,-4.0019,-3.8915,-3.8594,-3.8243,-3.7826,-3.7372,-3.7409,-3.7449,-3.7578,-3.8064,-3.8468,-3.8681,-3.8545,-3.8405,-3.8376,-3.8293,-3.831,-3.8389,-3.877,-3.9031,-3.91,-3.9426,-3.9608,-3.9608,-3.9608,-3.9546,-3.9511,-4.0267,-4.1016,-4.1615,-4.2616,-4.3468,-4.4008,-4.418,-4.4229,-4.424,-4.4383,-4.4472,-4.4519,-4.4608,-4.4758,-4.477,-4.4861,-4.5066,-4.5371,-4.5314,-4.5371,-4.5573,-4.5521,-4.5531,-4.5586,-4.5594,-4.5594,-4.5577,-4.5457,-4.5322,-4.5148,-4.5034,-4.4881,-4.4807,-4.4681,-4.4554,-4.451,-4.4501,-4.4482,-4.4482,-4.4501,-4.4482,-4.4482,-4.4482,-4.4473,-4.4426,-4.4151,-4.3992,-4.3999,-4.3526,-4.3177,-4.3051,-4.2845,-4.245,-4.2023,-4.174,-4.1493,-4.1071,-4.0683,-4.0368,-4.9558,-4.8607,-4.6999,-4.6301,-4.6302,-4.6288,-4.6289,-4.6289,-4.6237,-4.6204,-4.62,-4.6128,-4.6095,-4.6076,-4.5902,-4.5814,-4.5807,-4.5807,-4.5807,-4.5807,-4.5807,-4.5807,-4.5807,-4.5773,-4.5295,-4.4562,-4.3589,-4.1998,-4.0088,-3.969,-3.9237,-3.8624,-3.8548,-3.8132,-3.7485,-3.7649,-3.7721,-3.7755,-3.8323,-3.8741,-3.89,-3.8994,-3.8855,-3.8554,-3.8314,-3.836,-3.8609,-3.8966,-3.9309,-3.9552,-3.9577,-3.9608,-3.9608,-3.9589,-3.9546,-3.9605,-4.0886,-4.1703,-4.1907,-4.3233,-4.421,-4.4281,-4.4296,-4.4314,-4.4364,-4.4589,-4.4695,-4.4695,-4.4973,-4.5063,-4.4908,-4.5044,-4.5192,-4.5264,-4.539,-4.5436,-4.5428,-4.5573,-4.5643,-4.562,-4.5594,-4.5594,-4.5594,-4.5586,-4.5513,-4.5419,-4.5362,-4.5251,-4.4915,-4.4788,-4.4688,-4.4546,-4.4482,-4.4482,-4.4482,-4.4482,-4.4482,-4.4482,-4.4501,-4.4501,-4.4501,-4.4487,-4.4473,-4.434,-4.3873,-4.3526,-4.3336,-4.2959,-4.2454,-4.2061,-4.1762,-4.1453,-4.1071,-4.0683,-4.0417,-4.9288,-4.7948,-4.6787,-4.6303,-4.6306,-4.6289,-4.6289,-4.6289,-4.6268,-4.6246,-4.6263,-4.6199,-4.616,-4.6175,-4.6045,-4.5968,-4.5935,-4.5828,-4.5807,-4.5807,-4.5807,-4.5807,-4.5807,-4.5807,-4.565,-4.5229,-4.4729,-4.3434,-4.1517,-4.0728,-3.9813,-3.8943,-3.8785,-3.8457,-3.7999,-3.8,-3.813,-3.8368,-3.8711,-3.8975,-3.9237,-3.9215,-3.9069,-3.8956,-3.8884,-3.897,-3.9224,-3.9375,-3.9496,-3.9608,-3.9608,-3.9608,-3.9608,-3.9558,-3.9738,-4.0221,-4.1203,-4.1997,-4.2537,-4.3602,-4.4368,-4.4481,-4.4535,-4.4636,-4.4801,-4.4957,-4.5019,-4.5063,-4.5254,-4.5314,-4.5294,-4.5352,-4.5445,-4.5541,-4.5524,-4.5543,-4.5599,-4.5573,-4.5549,-4.5612,-4.5612,-4.5594,-4.5594,-4.5594,-4.5603,-4.5601,-4.5494,-4.5322,-4.5096,-4.4919,-4.4752,-4.456,-4.4482,-4.4482,-4.4482,-4.4482,-4.4482,-4.4482,-4.4482,-4.4501,-4.4501,-4.4501,-4.4468,-4.4397,-4.4048,-4.3646,-4.3355,-4.2719,-4.2264,-4.2023,-4.1723,-4.1178,-4.1071,-4.0739,-4.0566,-4.9041,-4.7935,-4.677,-4.6305,-4.6287,-4.6289,-4.6289,-4.6289,-4.6289,-4.6289,-4.6289,-4.6244,-4.6238,-4.6213,-4.6158,-4.6112,-4.6048,-4.5933,-4.5854,-4.5807,-4.5807,-4.5807,-4.5807,-4.5807,-4.5807,-4.5694,-4.5216,-4.3922,-4.204,-4.1168,-4.0184,-3.9058,-3.9007,-3.8766,-3.8426,-3.8423,-3.8624,-3.8828,-3.9004,-3.9251,-3.9476,-3.9309,-3.9237,-3.9309,-3.9256,-3.9283,-3.947,-3.9552,-3.9608,-3.9608,-3.9608,-3.9608,-3.9608,-3.9558,-3.9738,-4.0267,-4.1276,-4.2067,-4.2641,-4.3741,-4.4522,-4.4656,-4.4776,-4.4943,-4.5118,-4.5243,-4.5303,-4.5333,-4.5472,-4.5602,-4.5602,-4.5602,-4.5669,-4.5759,-4.5665,-4.5665,-4.5765,-4.5624,-4.5593,-4.5665,-4.5657,-4.5631,-4.5603,-4.5622,-4.5646,-4.568,-4.5582,-4.5485,-4.5313,-4.5096,-4.4843,-4.4648,-4.4537,-4.451,-4.4482,-4.4482,-4.4482,-4.4482,-4.4482,-4.4482,-4.4482,-4.4482,-4.4468,-4.4378,-4.4124,-4.3712,-4.3158,-4.2495,-4.2116,-4.1892,-4.1159,-4.0482,-4.0593,-4.0816,-4.0678,-4.8853,-4.8584,-4.7028,-4.6306,-4.6287,-4.6289,-4.6289,-4.6289,-4.6289,-4.6289,-4.6289,-4.6289,-4.6289,-4.6289,-4.6215,-4.6181,-4.6158,-4.6044,-4.5922,-4.5834,-4.5814,-4.5807,-4.5807,-4.5807,-4.5807,-4.5747,-4.4583,-4.2979,-4.1293,-4.1117,-4.0493,-3.9485,-3.9319,-3.9151,-3.8646,-3.8935,-3.9008,-3.9045,-3.9296,-3.9502,-3.9552,-3.9367,-3.9349,-3.9527,-3.9367,-3.9237,-3.9237,-3.947,-3.9608,-3.9608,-3.9608,-3.9608,-3.962,-3.9614,-3.9621,-3.9939,-4.1128,-4.1929,-4.2235,-4.3794,-4.4807,-4.4865,-4.5063,-4.5192,-4.5274,-4.5409,-4.5518,-4.5524,-4.565,-4.5793,-4.5786,-4.5786,-4.5786,-4.5807,-4.5778,-4.5771,-4.5795,-4.5807,-4.5777,-4.5706,-4.5682,-4.5665,-4.564,-4.5657,-4.5687,-4.57,-4.5735,-4.5676,-4.5491,-4.5294,-4.5077,-4.4831,-4.4655,-4.4573,-4.4519,-4.4482,-4.4482,-4.4482,-4.4482,-4.4482,-4.4482,-4.4482,-4.4482,-4.4411,-4.4048,-4.3629,-4.2886,-4.2243,-4.1736,-4.1357,-4.0528,-4.001,-4.0258,-4.0539,-4.0731,-4.8846,-4.8677,-4.7039,-4.6303,-4.6307,-4.6288,-4.6289,-4.6289,-4.6289,-4.6289,-4.6289,-4.6289,-4.6289,-4.6289,-4.6287,-4.6261,-4.6199,-4.6109,-4.6012,-4.5927,-4.5854,-4.5807,-4.5807,-4.5807,-4.5807,-4.5691,-4.5141,-4.4175,-4.3057,-4.2593,-4.1986,-4.1036,-4.0286,-3.9988,-3.9746,-3.9407,-3.9224,-3.9388,-3.9496,-3.9577,-3.9589,-3.9527,-3.9527,-3.9596,-3.9527,-3.947,-3.9489,-3.9552,-3.9608,-3.9608,-3.9608,-3.9608,-3.9626,-3.9738,-4.0011,-4.058,-4.1742,-4.2742,-4.3285,-4.43,-4.512,-4.5255,-4.5352,-4.5472,-4.5574,-4.565,-4.5708,-4.5708,-4.5759,-4.5807,-4.5807,-4.5807,-4.5807,-4.5807,-4.5807,-4.58,-4.5805,-4.5803,-4.5765,-4.57,-4.5684,-4.5676,-4.5687,-4.5684,-4.5719,-4.5758,-4.58,-4.5743,-4.5543,-4.5464,-4.5225,-4.4884,-4.4745,-4.4629,-4.456,-4.4515,-4.4487,-4.4468,-4.4482,-4.4482,-4.4482,-4.4482,-4.4482,-4.4321,-4.3971,-4.3456,-4.27,-4.1932,-4.1375,-4.0831,-4.015,-3.9999,-4.0108,-4.0244,-4.0364,-4.8852,-4.8701,-4.7024,-4.6305,-4.6288,-4.6288,-4.6289,-4.6289,-4.6289,-4.6289,-4.6289,-4.6289,-4.6289,-4.6289,-4.6289,-4.6289,-4.6237,-4.6162,-4.6072,-4.6022,-4.5867,-4.5807,-4.5807,-4.5807,-4.5708,-4.556,-4.5314,-4.4677,-4.37,-4.3397,-4.2645,-4.1431,-4.0806,-4.0371,-4.0115,-3.9629,-3.9445,-3.9577,-3.9608,-3.9608,-3.9608,-3.9608,-3.9608,-3.9608,-3.9608,-3.9608,-3.9608,-3.9608,-3.9608,-3.9633,-3.9656,-3.9731,-3.9823,-3.9956,-4.0217,-4.0815,-4.1909,-4.2917,-4.345,-4.4535,-4.5352,-4.5491,-4.5577,-4.565,-4.5766,-4.5807,-4.5807,-4.5807,-4.5807,-4.5807,-4.5807,-4.5807,-4.5807,-4.5807,-4.5807,-4.5807,-4.58,-4.5805,-4.5795,-4.5739,-4.575,-4.5723,-4.5708,-4.5723,-4.5758,-4.58,-4.5815,-4.5795,-4.5637,-4.5552,-4.5314,-4.5055,-4.4868,-4.4745,-4.4619,-4.4542,-4.4473,-4.4473,-4.4468,-4.4482,-4.4482,-4.4501,-4.4501,-4.4262,-4.3939,-4.3526,-4.2831,-4.1534,-4.069,-4.0188,-3.9924,-3.9562,-3.9499,-3.9634,-3.9819,-4.8861,-4.8611,-4.7011,-4.6289,-4.6289,-4.6289,-4.6289,-4.6289,-4.6289,-4.6289,-4.6289,-4.6289,-4.6289,-4.6289,-4.6289,-4.6289,-4.6267,-4.6175,-4.6087,-4.6035,-4.5896,-4.5807,-4.5807,-4.5807,-4.5626,-4.5323,-4.5213,-4.4581,-4.368,-4.3517,-4.2562,-4.1334,-4.1059,-4.0484,-3.9984,-3.9652,-3.9596,-3.9608,-3.9608,-3.9608,-3.9608,-3.9608,-3.9608,-3.9608,-3.9608,-3.9608,-3.9608,-3.9626,-3.9638,-3.965,-3.9804,-3.9979,-4.0129,-4.0205,-4.0252,-4.052,-4.1887,-4.2709,-4.3207,-4.4573,-4.5516,-4.5541,-4.5692,-4.5807,-4.58,-4.5807,-4.5807,-4.5807,-4.5807,-4.5807,-4.5807,-4.5807,-4.5807,-4.5807,-4.5807,-4.5807,-4.5807,-4.5807,-4.5805,-4.5795,-4.5788,-4.5781,-4.5731,-4.5773,-4.5788,-4.5803,-4.5798,-4.5786,-4.5745,-4.5642,-4.5526,-4.5314,-4.5074,-4.4941,-4.4833,-4.4605,-4.457,-4.4565,-4.4524,-4.4468,-4.4482,-4.4501,-4.4411,-4.4188,-4.3952,-4.3525,-4.283,-4.1651,-4.0851,-4.0573,-4.0034,-3.9211,-3.8923,-3.9102,-3.9315,-4.8466,-4.7826,-4.6754,-4.6306,-4.6288,-4.6288,-4.6289,-4.6289,-4.6289,-4.6289,-4.6289,-4.6289,-4.6289,-4.6289,-4.6289,-4.6268,-4.6212,-4.6139,-4.6084,-4.6013,-4.5873,-4.5807,-4.5807,-4.58,-4.5658,-4.5409,-4.5223,-4.4935,-4.4436,-4.4197,-4.3557,-4.2656,-4.1867,-4.1248,-4.0553,-3.9871,-3.9627,-3.9608,-3.9608,-3.9608,-3.9608,-3.9608,-3.9608,-3.9608,-3.962,-3.9602,-3.9614,-3.9743,-3.9815,-3.9826,-4.001,-4.0139,-4.0233,-4.0377,-4.0721,-4.1363,-4.2422,-4.3447,-4.413,-4.5067,-4.5665,-4.5723,-4.5771,-4.58,-4.5807,-4.5807,-4.5807,-4.5807,-4.5807,-4.5807,-4.5807,-4.5807,-4.5807,-4.5807,-4.5807,-4.5807,-4.5807,-4.5807,-4.58,-4.5812,-4.5805,-4.5798,-4.5778,-4.5798,-4.5805,-4.5805,-4.5812,-4.58,-4.5766,-4.5752,-4.5642,-4.5538,-4.5332,-4.5208,-4.5019,-4.4783,-4.4672,-4.4685,-4.4587,-4.444,-4.4468,-4.4482,-4.435,-4.4155,-4.4094,-4.3758,-4.3026,-4.2073,-4.1576,-4.0782,-3.9677,-3.8696,-3.8598,-3.8696,-3.8832,-4.8352,-4.7515,-4.6657,-4.6288,-4.6288,-4.6288,-4.6289,-4.6289,-4.6289,-4.6289,-4.6289,-4.6289,-4.6289,-4.6289,-4.6289,-4.6269,-4.6181,-4.6111,-4.6056,-4.5977,-4.5854,-4.5807,-4.5793,-4.5711,-4.5558,-4.5371,-4.5131,-4.4903,-4.4675,-4.4546,-4.3876,-4.2787,-4.2248,-4.1436,-4.0234,-3.989,-3.9608,-3.9608,-3.9608,-3.9608,-3.9608,-3.9608,-3.9608,-3.9645,-3.9668,-3.9743,-3.9859,-4.005,-4.0158,-4.0177,-4.0269,-4.0356,-4.0476,-4.0908,-4.1326,-4.1873,-4.3071,-4.411,-4.4594,-4.5336,-4.5768,-4.58,-4.5807,-4.5807,-4.5807,-4.5807,-4.5807,-4.5807,-4.5807,-4.5807,-4.5807,-4.5807,-4.5807,-4.5807,-4.5807,-4.5807,-4.5807,-4.5807,-4.5807,-4.5807,-4.5807,-4.5807,-4.5807,-4.5807,-4.5807,-4.58,-4.58,-4.5807,-4.58,-4.58,-4.5752,-4.5632,-4.5485,-4.5293,-4.5113,-4.4869,-4.4726,-4.4739,-4.4667,-4.4491,-4.4496,-4.4524,-4.4426,-4.4292,-4.4185,-4.384,-4.3079,-4.2173,-4.1157,-4.0206,-3.9088,-3.8604,-3.859,-3.8646,-3.8755,-4.8338,-4.7382,-4.664,-4.6289,-4.6289,-4.6289,-4.6289,-4.6289,-4.6289,-4.6289,-4.6289,-4.6289,-4.6289,-4.6289,-4.6289,-4.6265,-4.6193,-4.6125,-4.6044,-4.5961,-4.5867,-4.5807,-4.5773,-4.5665,-4.5463,-4.5253,-4.4943,-4.4739,-4.4544,-4.4421,-4.3506,-4.2399,-4.1948,-4.106,-4.0021,-3.9627,-3.9608,-3.9608,-3.9608,-3.9608,-3.9633,-3.9638,-3.9668,-3.9691,-3.9848,-4.002,-4.0196,-4.0383,-4.0492,-4.0512,-4.0539,-4.0605,-4.0842,-4.1538,-4.2041,-4.2402,-4.3601,-4.4555,-4.4833,-4.5471,-4.5807,-4.5807,-4.5807,-4.5807,-4.5807,-4.5807,-4.5807,-4.5807,-4.5807,-4.5807,-4.5807,-4.5807,-4.5807,-4.5807,-4.5807,-4.5807,-4.5807,-4.5807,-4.5807,-4.5807,-4.5807,-4.5807,-4.5807,-4.5807,-4.5807,-4.5807,-4.5807,-4.5807,-4.5807,-4.58,-4.5771,-4.5723,-4.5554,-4.5352,-4.5152,-4.4938,-4.4838,-4.4783,-4.47,-4.4581,-4.4573,-4.456,-4.4524,-4.4402,-4.4059,-4.3654,-4.3074,-4.2063,-4.087,-4.0126,-3.9341,-3.8984,-3.8822,-3.8956,-3.9073,-4.7987,-4.6562,-4.6387,-4.6289,-4.6289,-4.6289,-4.6289,-4.6289,-4.6289,-4.6289,-4.6289,-4.6289,-4.6289,-4.6289,-4.6289,-4.6239,-4.6131,-4.6091,-4.6022,-4.5841,-4.5827,-4.5807,-4.58,-4.5737,-4.5524,-4.5264,-4.5159,-4.4887,-4.4506,-4.3871,-4.305,-4.2117,-4.1366,-4.0591,-3.9777,-3.9633,-3.962,-3.962,-3.9602,-3.9638,-3.9686,-3.9777,-3.9837,-3.987,-4.004,-4.0233,-4.0389,-4.0473,-4.0576,-4.068,-4.0713,-4.0739,-4.0939,-4.1603,-4.2318,-4.3053,-4.3956,-4.4891,-4.5413,-4.5664,-4.5807,-4.5807,-4.5807,-4.5807,-4.5807,-4.5807,-4.5807,-4.5807,-4.5807,-4.5807,-4.5807,-4.5807,-4.5807,-4.5807,-4.5807,-4.5807,-4.5807,-4.5807,-4.5807,-4.5807,-4.5807,-4.5807,-4.5807,-4.5807,-4.5807,-4.5807,-4.5807,-4.5807,-4.5807,-4.5807,-4.5791,-4.5765,-4.5673,-4.5518,-4.5419,-4.5182,-4.4985,-4.485,-4.4714,-4.4621,-4.4608,-4.4398,-4.4261,-4.4069,-4.383,-4.3325,-4.2669,-4.1768,-4.054,-4.0076,-3.9606,-3.9258,-3.9013,-3.9215,-3.9256,-4.7871,-4.6328,-4.6289,-4.6289,-4.6289,-4.6289,-4.6289,-4.6289,-4.6289,-4.6289,-4.6289,-4.6289,-4.6269,-4.6264,-4.6242,-4.6171,-4.6064,-4.5988,-4.5908,-4.5827,-4.5807,-4.5807,-4.5807,-4.5786,-4.5626,-4.5343,-4.5077,-4.4843,-4.4473,-4.3719,-4.2881,-4.2004,-4.1173,-4.0422,-3.9739,-3.9691,-3.9743,-3.9777,-3.9826,-3.99,-3.9914,-3.9988,-4.011,-4.0158,-4.0295,-4.0441,-4.0612,-4.0646,-4.0687,-4.0778,-4.0816,-4.0816,-4.1048,-4.1912,-4.2802,-4.3363,-4.4543,-4.5239,-4.571,-4.5807,-4.5807,-4.5807,-4.5807,-4.5807,-4.5807,-4.5807,-4.5807,-4.5807,-4.5807,-4.5807,-4.5807,-4.5807,-4.5807,-4.5807,-4.5807,-4.5807,-4.5807,-4.5807,-4.5807,-4.5807,-4.5807,-4.5807,-4.5807,-4.5807,-4.5807,-4.5807,-4.5807,-4.5807,-4.5807,-4.58,-4.5805,-4.5788,-4.5754,-4.57,-4.5632,-4.5456,-4.515,-4.4973,-4.477,-4.4655,-4.4568,-4.4245,-4.3876,-4.3675,-4.3431,-4.2631,-4.1917,-4.1025,-4.0303,-3.9714,-3.9291,-3.9171,-3.9142,-3.9215,-3.9229,-4.7773,-4.6308,-4.6289,-4.6289,-4.6289,-4.6289,-4.6289,-4.6289,-4.6289,-4.6289,-4.6289,-4.6289,-4.6266,-4.621,-4.6206,-4.6125,-4.6008,-4.5873,-4.5821,-4.5814,-4.5807,-4.5807,-4.5807,-4.5786,-4.5723,-4.5507,-4.5142,-4.4884,-4.4499,-4.366,-4.2671,-4.1957,-4.1048,-4.0344,-3.9844,-3.9856,-3.9956,-3.9958,-4.007,-4.0139,-4.0177,-4.0214,-4.033,-4.0489,-4.0527,-4.0605,-4.0733,-4.0778,-4.079,-4.0797,-4.0912,-4.0982,-4.1363,-4.2325,-4.3305,-4.3382,-4.4794,-4.5633,-4.5768,-4.5807,-4.5807,-4.5807,-4.5807,-4.5807,-4.5807,-4.5807,-4.5807,-4.5807,-4.5807,-4.5807,-4.5807,-4.5807,-4.5807,-4.5807,-4.5807,-4.5807,-4.5807,-4.5807,-4.5807,-4.5807,-4.5807,-4.5807,-4.5807,-4.5807,-4.5807,-4.5807,-4.5807,-4.5807,-4.5807,-4.58,-4.5805,-4.581,-4.5788,-4.5773,-4.5735,-4.5688,-4.5399,-4.5118,-4.4871,-4.4574,-4.4416,-4.3963,-4.3579,-4.3294,-4.2892,-4.2018,-4.1239,-4.0517,-3.9852,-3.9272,-3.9101,-3.9115,-3.9142,-3.917,-3.9197,-4.7226,-4.6289,-4.6289,-4.6289,-4.6289,-4.6289,-4.6289,-4.6289,-4.6289,-4.6289,-4.6289,-4.6289,-4.6265,-4.6209,-4.6202,-4.6125,-4.5982,-4.5867,-4.5807,-4.5807,-4.5807,-4.5807,-4.5807,-4.58,-4.5786,-4.5658,-4.5323,-4.5041,-4.4464,-4.3152,-4.2511,-4.1973,-4.0878,-4.0103,-4.0115,-4.0139,-4.0158,-4.0167,-4.0233,-4.026,-4.0295,-4.0381,-4.0519,-4.0706,-4.07,-4.0739,-4.0797,-4.0816,-4.0797,-4.0861,-4.1502,-4.1796,-4.2018,-4.278,-4.3324,-4.3744,-4.4878,-4.5807,-4.5807,-4.5807,-4.5807,-4.5807,-4.5807,-4.5807,-4.5807,-4.5807,-4.5807,-4.5807,-4.5807,-4.5807,-4.5807,-4.5807,-4.5807,-4.5807,-4.5807,-4.5807,-4.5807,-4.5807,-4.5807,-4.5807,-4.5807,-4.5807,-4.5807,-4.5807,-4.5807,-4.5807,-4.5807,-4.5807,-4.5807,-4.5807,-4.58,-4.5805,-4.5803,-4.5795,-4.5792,-4.5776,-4.563,-4.5297,-4.4959,-4.4358,-4.409,-4.3642,-4.3262,-4.272,-4.2053,-4.1199,-4.0496,-3.993,-3.9602,-3.9166,-3.9115,-3.9101,-3.9178,-3.9272,-3.9245,-4.709,-4.6308,-4.6289,-4.6289,-4.6289,-4.6289,-4.6289,-4.6289,-4.6289,-4.6289,-4.6289,-4.6289,-4.6265,-4.6206,-4.6175,-4.6068,-4.5922,-4.5848,-4.5807,-4.5807,-4.5807,-4.5807,-4.5807,-4.5807,-4.5807,-4.5723,-4.549,-4.5294,-4.5019,-4.3656,-4.2768,-4.2251,-4.1241,-4.0558,-4.0291,-4.0295,-4.0339,-4.0383,-4.0449,-4.0496,-4.0496,-4.0624,-4.072,-4.0771,-4.0797,-4.0797,-4.0874,-4.13,-4.1195,-4.1181,-4.2092,-4.2416,-4.2674,-4.3272,-4.4025,-4.4232,-4.5125,-4.5807,-4.5807,-4.5807,-4.5807,-4.5807,-4.5807,-4.5807,-4.5807,-4.5807,-4.5807,-4.5807,-4.5807,-4.5807,-4.5807,-4.5807,-4.5807,-4.5807,-4.5807,-4.5807,-4.5807,-4.5807,-4.5807,-4.5807,-4.5807,-4.5807,-4.5807,-4.5807,-4.5807,-4.5807,-4.5807,-4.5807,-4.5807,-4.5807,-4.5807,-4.5819,-4.5805,-4.5817,-4.5745,-4.5636,-4.5508,-4.5245,-4.4748,-4.4154,-4.3422,-4.2796,-4.2259,-4.1762,-4.104,-4.0474,-3.9997,-3.9525,-3.9309,-3.9129,-3.9115,-3.9124,-3.9285,-3.9344,-3.9331,-4.6933,-4.6289,-4.6289,-4.6289,-4.6289,-4.6289,-4.6289,-4.6289,-4.6289,-4.6289,-4.6289,-4.6289,-4.6265,-4.6199,-4.6112,-4.5983,-4.5814,-4.5807,-4.5807,-4.5807,-4.5807,-4.5807,-4.5807,-4.5807,-4.58,-4.5759,-4.5585,-4.5498,-4.5217,-4.4183,-4.3378,-4.2641,-4.1867,-4.1089,-4.0537,-4.0496,-4.0554,-4.0624,-4.0706,-4.079,-4.0797,-4.0797,-4.0797,-4.0797,-4.0797,-4.0797,-4.0855,-4.1259,-4.1485,-4.1675,-4.2434,-4.3214,-4.3084,-4.4167,-4.4934,-4.5054,-4.5531,-4.5743,-4.5807,-4.5807,-4.5807,-4.5807,-4.5807,-4.5807,-4.5807,-4.5807,-4.5807,-4.5807,-4.5807,-4.5807,-4.5807,-4.5807,-4.5807,-4.5807,-4.5807,-4.5807,-4.5807,-4.5807,-4.5807,-4.5807,-4.5807,-4.5807,-4.5807,-4.5807,-4.5807,-4.5807,-4.5807,-4.5807,-4.5807,-4.5807,-4.5807,-4.5807,-4.58,-4.58,-4.5696,-4.5431,-4.5177,-4.4816,-4.416,-4.3464,-4.259,-4.1753,-4.1319,-4.0998,-4.0558,-4.0044,-3.9573,-3.9269,-3.917,-3.9115,-3.9101,-3.9178,-3.935,-3.9458,-3.9477,-4.6387,-4.6289,-4.6289,-4.6289,-4.6289,-4.6289,-4.6289,-4.6289,-4.6289,-4.6289,-4.6289,-4.6289,-4.6265,-4.6191,-4.6068,-4.5944,-4.5848,-4.5807,-4.5793,-4.5778,-4.5793,-4.5793,-4.5793,-4.5807,-4.5807,-4.5766,-4.5618,-4.5507,-4.526,-4.4413,-4.357,-4.2893,-4.2107,-4.1336,-4.0742,-4.0699,-4.0771,-4.0771,-4.0784,-4.0797,-4.0797,-4.0797,-4.0797,-4.0797,-4.0797,-4.0797,-4.0867,-4.1241,-4.1476,-4.2047,-4.3005,-4.3885,-4.4501,-4.5377,-4.581,-4.5846,-4.5841,-4.5807,-4.5821,-4.5814,-4.5821,-4.5827,-4.5827,-4.5807,-4.5848,-4.5835,-4.5835,-4.5807,-4.5821,-4.5827,-4.5834,-4.5814,-4.5807,-4.5807,-4.5807,-4.5807,-4.5807,-4.5807,-4.5807,-4.5807,-4.5807,-4.5807,-4.5807,-4.5807,-4.5807,-4.5807,-4.5807,-4.5807,-4.5807,-4.5807,-4.5807,-4.5807,-4.5749,-4.5729,-4.5406,-4.5179,-4.4597,-4.4237,-4.3538,-4.2761,-4.1906,-4.1118,-4.074,-4.0386,-4.0039,-3.9795,-3.9479,-3.9269,-3.9156,-3.9137,-3.9205,-3.9311,-3.9452,-3.9544,-3.9667,-4.6289,-4.6289,-4.6289,-4.6289,-4.6289,-4.6289,-4.6289,-4.6289,-4.6289,-4.6289,-4.6289,-4.6289,-4.6241,-4.6145,-4.6068,-4.5958,-4.5848,-4.5807,-4.573,-4.5708,-4.573,-4.5737,-4.5692,-4.5757,-4.5807,-4.5786,-4.573,-4.57,-4.5321,-4.4613,-4.3752,-4.3112,-4.2319,-4.1491,-4.0887,-4.0816,-4.079,-4.079,-4.0797,-4.0797,-4.0797,-4.0797,-4.0797,-4.0797,-4.0797,-4.0822,-4.1033,-4.192,-4.2105,-4.2689,-4.3856,-4.492,-4.5123,-4.5601,-4.6061,-4.6052,-4.5972,-4.5929,-4.5917,-4.5854,-4.5848,-4.5886,-4.591,-4.5939,-4.5958,-4.5973,-4.5973,-4.5964,-4.5983,-4.5952,-4.5916,-4.5904,-4.5854,-4.5841,-4.5814,-4.5807,-4.5807,-4.5807,-4.5807,-4.5807,-4.5814,-4.5841,-4.5835,-4.5841,-4.5828,-4.5807,-4.5814,-4.5821,-4.5814,-4.5807,-4.5807,-4.5807,-4.571,-4.5633,-4.5167,-4.4766,-4.3805,-4.3325,-4.2791,-4.2,-4.1253,-4.0623,-4.0386,-4.0173,-3.9959,-3.9707,-3.9445,-3.9309,-3.9237,-3.9272,-3.9337,-3.952,-3.9709,-3.9878,-4.0002,-4.6289,-4.6289,-4.6289,-4.6289,-4.6289,-4.6289,-4.6289,-4.6289,-4.6289,-4.6289,-4.6289,-4.6289,-4.6234,-4.6125,-4.6087,-4.5979,-4.5814,-4.5807,-4.5685,-4.5626,-4.5658,-4.5665,-4.5634,-4.57,-4.5807,-4.5807,-4.5793,-4.5786,-4.5409,-4.4604,-4.3655,-4.3259,-4.2415,-4.1577,-4.1003,-4.0797,-4.0797,-4.0797,-4.0797,-4.0797,-4.0797,-4.0797,-4.0821,-4.0839,-4.0845,-4.0914,-4.1332,-4.2207,-4.262,-4.3557,-4.458,-4.5399,-4.5485,-4.5811,-4.6025,-4.6022,-4.5961,-4.6012,-4.5988,-4.5952,-4.5936,-4.5968,-4.6022,-4.6046,-4.6092,-4.6118,-4.6118,-4.608,-4.6084,-4.6072,-4.6036,-4.6003,-4.5939,-4.5873,-4.5834,-4.5821,-4.5814,-4.5834,-4.5867,-4.5899,-4.5892,-4.5891,-4.5896,-4.5896,-4.586,-4.5815,-4.5801,-4.5815,-4.5724,-4.5659,-4.5432,-4.5316,-4.491,-4.4775,-4.4439,-4.3896,-4.3051,-4.247,-4.1957,-4.1504,-4.092,-4.0567,-4.0373,-4.0139,-3.9937,-3.9848,-3.9705,-3.9533,-3.9343,-3.9401,-3.9508,-3.9769,-3.9972,-4.0158,-4.0278,-4.6289,-4.6289,-4.6289,-4.6289,-4.6289,-4.6289,-4.6289,-4.6289,-4.6289,-4.6289,-4.6289,-4.6289,-4.6215,-4.6128,-4.6087,-4.6003,-4.5807,-4.5807,-4.5685,-4.5626,-4.5685,-4.5658,-4.5634,-4.57,-4.5821,-4.5827,-4.5841,-4.5841,-4.5414,-4.4247,-4.3589,-4.3169,-4.2267,-4.1532,-4.1029,-4.0797,-4.0797,-4.0797,-4.0797,-4.0797,-4.0797,-4.0815,-4.0837,-4.0873,-4.0961,-4.125,-4.2013,-4.2354,-4.3043,-4.4108,-4.4871,-4.559,-4.5794,-4.5975,-4.6011,-4.5949,-4.5993,-4.6041,-4.606,-4.6068,-4.608,-4.6087,-4.6095,-4.6102,-4.6134,-4.6115,-4.6105,-4.6144,-4.6159,-4.6138,-4.608,-4.605,-4.6008,-4.5972,-4.5933,-4.5885,-4.5866,-4.5867,-4.5904,-4.5969,-4.5982,-4.5978,-4.5998,-4.6007,-4.5959,-4.5906,-4.5853,-4.5859,-4.5428,-4.5254,-4.4859,-4.4523,-4.3924,-4.3614,-4.3382,-4.2847,-4.2376,-4.1918,-4.1421,-4.1164,-4.0842,-4.0591,-4.0422,-4.0321,-4.0177,-4.009,-3.9989,-3.9813,-3.969,-3.9604,-3.9698,-3.9951,-4.0158,-4.0294,-4.0381,-4.6289,-4.6289,-4.6289,-4.6289,-4.6289,-4.6289,-4.6289,-4.6289,-4.6289,-4.6289,-4.6289,-4.6289,-4.6215,-4.6131,-4.6091,-4.6003,-4.5834,-4.5807,-4.5665,-4.5626,-4.5658,-4.5658,-4.5658,-4.5761,-4.5916,-4.5927,-4.5952,-4.5998,-4.5789,-4.4224,-4.3592,-4.2998,-4.2013,-4.1287,-4.0855,-4.0803,-4.0809,-4.0809,-4.0803,-4.0797,-4.0815,-4.084,-4.0868,-4.0878,-4.0957,-4.1092,-4.1484,-4.2026,-4.296,-4.3907,-4.4598,-4.5246,-4.5835,-4.5912,-4.5944,-4.5881,-4.5944,-4.6025,-4.6134,-4.6131,-4.6118,-4.6155,-4.616,-4.6186,-4.6211,-4.6211,-4.623,-4.6234,-4.6211,-4.62,-4.6155,-4.6139,-4.6099,-4.6068,-4.6022,-4.5969,-4.5949,-4.5952,-4.5983,-4.6039,-4.6052,-4.6064,-4.6079,-4.6131,-4.6068,-4.5996,-4.5954,-4.5786,-4.5297,-4.475,-4.4324,-4.3788,-4.3208,-4.2763,-4.2531,-4.2164,-4.1796,-4.1397,-4.0978,-4.0894,-4.0784,-4.0733,-4.0583,-4.0489,-4.0381,-4.0278,-4.0177,-4.012,-4.0013,-3.9901,-3.9972,-4.0139,-4.0294,-4.0422,-4.0473,-4.6288,-4.6289,-4.6289,-4.6289,-4.6289,-4.6289,-4.6289,-4.6289,-4.6289,-4.6289,-4.6289,-4.6289,-4.6235,-4.6131,-4.6114,-4.6003,-4.5848,-4.5793,-4.5665,-4.5642,-4.5685,-4.5661,-4.5687,-4.5809,-4.5988,-4.6032,-4.608,-4.6091,-4.5986,-4.4325,-4.365,-4.2931,-4.182,-4.1056,-4.0822,-4.082,-4.0829,-4.0856,-4.0862,-4.0862,-4.0868,-4.0893,-4.0957,-4.0956,-4.1006,-4.1289,-4.1601,-4.2152,-4.2783,-4.3565,-4.4208,-4.4763,-4.5214,-4.5549,-4.5654,-4.5671,-4.5705,-4.5819,-4.6084,-4.6177,-4.6169,-4.6213,-4.6237,-4.6245,-4.6269,-4.6289,-4.6289,-4.6289,-4.6289,-4.625,-4.6191,-4.6184,-4.6167,-4.6128,-4.6087,-4.6056,-4.606,-4.6056,-4.6091,-4.6125,-4.6131,-4.6094,-4.5937,-4.5937,-4.5852,-4.5888,-4.6049,-4.5662,-4.4965,-4.4366,-4.3717,-4.3124,-4.2492,-4.2106,-4.1738,-4.1525,-4.1332,-4.1216,-4.0875,-4.0836,-4.0759,-4.0739,-4.0726,-4.0646,-4.0554,-4.0457,-4.0389,-4.0336,-4.0274,-4.0184,-4.0257,-4.033,-4.0364,-4.0473,-4.0481,-4.6241,-4.6289,-4.6289,-4.6289,-4.6289,-4.6289,-4.6289,-4.6289,-4.6289,-4.6289,-4.6289,-4.6289,-4.6217,-4.6131,-4.6109,-4.6008,-4.5861,-4.5794,-4.5715,-4.5645,-4.5759,-4.5722,-4.5751,-4.5892,-4.6076,-4.6107,-4.6125,-4.6137,-4.6102,-4.4382,-4.3665,-4.3039,-4.1914,-4.0939,-4.0814,-4.0858,-4.0928,-4.099,-4.099,-4.0963,-4.0963,-4.0977,-4.1017,-4.1042,-4.1081,-4.1371,-4.179,-4.1973,-4.2558,-4.332,-4.3516,-4.3831,-4.3992,-4.4556,-4.4763,-4.4757,-4.4787,-4.5214,-4.5986,-4.6147,-4.6094,-4.6211,-4.6289,-4.6289,-4.6289,-4.6289,-4.6172,-4.6055,-4.6074,-4.6113,-4.6152,-4.6074,-4.5898,-4.5984,-4.5916,-4.6061,-4.6047,-4.6145,-4.6169,-4.6081,-4.6126,-4.6133,-4.5859,-4.5683,-4.5605,-4.5695,-4.6,-4.5535,-4.4525,-4.3809,-4.3061,-4.2401,-4.1777,-4.1564,-4.1255,-4.1042,-4.0874,-4.0797,-4.079,-4.079,-4.079,-4.0784,-4.0771,-4.0759,-4.068,-4.0576,-4.0557,-4.0557,-4.0477,-4.0394,-4.0422,-4.0492,-4.0489,-4.0496,-4.0496,-4.624,-4.6289,-4.6289,-4.6289,-4.6289,-4.6289,-4.6289,-4.6289,-4.6289,-4.6289,-4.6289,-4.6289,-4.625,-4.6169,-4.6092,-4.6035,-4.5933,-4.5821,-4.5723,-4.5737,-4.5861,-4.5885,-4.5933,-4.6021,-4.6159,-4.6186,-4.6202,-4.6211,-4.6219,-4.4473,-4.373,-4.3164,-4.1883,-4.1087,-4.0953,-4.0968,-4.0974,-4.0987,-4.0987,-4.099,-4.1019,-4.1033,-4.1078,-4.1112,-4.1144,-4.1348,-4.166,-4.1699,-4.2109,-4.2734,-4.2812,-4.297,-4.3278,-4.3845,-4.388,-4.3941,-4.3989,-4.4083,-4.446,-4.4609,-4.5156,-4.5742,-4.6211,-4.6191,-4.6269,-4.6289,-4.6035,-4.5586,-4.5449,-4.5215,-4.4687,-4.4551,-4.457,-4.5195,-4.5402,-4.5773,-4.5929,-4.6144,-4.6225,-4.6031,-4.5974,-4.5137,-4.4668,-4.4687,-4.4668,-4.4375,-4.4463,-4.4125,-4.3245,-4.2815,-4.2236,-4.1619,-4.1087,-4.0971,-4.0797,-4.0797,-4.0797,-4.0797,-4.0797,-4.079,-4.079,-4.0797,-4.079,-4.0778,-4.0739,-4.07,-4.0707,-4.0688,-4.0633,-4.0598,-4.0593,-4.0569,-4.0523,-4.0496,-4.0496,-4.6231,-4.6289,-4.6289,-4.6289,-4.6289,-4.6289,-4.6289,-4.6289,-4.6289,-4.6289,-4.6289,-4.6289,-4.6265,-4.62,-4.6131,-4.6076,-4.6002,-4.5929,-4.588,-4.588,-4.5988,-4.6031,-4.6098,-4.615,-4.62,-4.623,-4.6269,-4.6289,-4.6191,-4.4551,-4.3379,-4.2489,-4.168,-4.1214,-4.1068,-4.1042,-4.1057,-4.107,-4.1081,-4.108,-4.1083,-4.1112,-4.1122,-4.1146,-4.1172,-4.123,-4.1211,-4.1289,-4.1445,-4.1855,-4.207,-4.2187,-4.2613,-4.2939,-4.301,-4.3131,-4.3489,-4.3438,-4.3397,-4.375,-4.4414,-4.5078,-4.5625,-4.5683,-4.5605,-4.5527,-4.5215,-4.4844,-4.4609,-4.4258,-4.3789,-4.3613,-4.3828,-4.4473,-4.4902,-4.5273,-4.5234,-4.5391,-4.5527,-4.5391,-4.5137,-4.4258,-4.3496,-4.3535,-4.3594,-4.3183,-4.2807,-4.2469,-4.2245,-4.205,-4.1762,-4.1189,-4.0834,-4.0803,-4.0803,-4.0797,-4.0797,-4.0797,-4.0797,-4.0797,-4.0797,-4.0797,-4.0797,-4.0797,-4.0784,-4.0771,-4.08,-4.0787,-4.0756,-4.0724,-4.0718,-4.0649,-4.0561,-4.0523,-4.0496,-4.6169,-4.6289,-4.6289,-4.6289,-4.6289,-4.6289,-4.6289,-4.6289,-4.6289,-4.6289,-4.6289,-4.6289,-4.6269,-4.6206,-4.6159,-4.6099,-4.6032,-4.6022,-4.5988,-4.6018,-4.6088,-4.6128,-4.6162,-4.6206,-4.6241,-4.6269,-4.6172,-4.5937,-4.5996,-4.4277,-4.2715,-4.1738,-4.1348,-4.1172,-4.1152,-4.1122,-4.1139,-4.1166,-4.1172,-4.1152,-4.1152,-4.1172,-4.1172,-4.1191,-4.1191,-4.1191,-4.1191,-4.123,-4.125,-4.1328,-4.1308,-4.125,-4.1431,-4.1867,-4.2123,-4.2501,-4.3081,-4.2832,-4.2637,-4.3008,-4.3262,-4.373,-4.4375,-4.4258,-4.4355,-4.4609,-4.4394,-4.3984,-4.3652,-4.3594,-4.3418,-4.3359,-4.334,-4.3828,-4.4277,-4.4336,-4.416,-4.4238,-4.4394,-4.4336,-4.4121,-4.3496,-4.2695,-4.2539,-4.2812,-4.2266,-4.1973,-4.1978,-4.1809,-4.1922,-4.1575,-4.1121,-4.0848,-4.0808,-4.0796,-4.0821,-4.0797,-4.0797,-4.0797,-4.0797,-4.0797,-4.0797,-4.0797,-4.0797,-4.0809,-4.0814,-4.0851,-4.0869,-4.0891,-4.0878,-4.083,-4.0734,-4.0636,-4.0542,-4.0531,-4.615,-4.6217,-4.6288,-4.6289,-4.6289,-4.6289,-4.6289,-4.6289,-4.6289,-4.6289,-4.6289,-4.6289,-4.6289,-4.6286,-4.6204,-4.6138,-4.6131,-4.6098,-4.6072,-4.6095,-4.6159,-4.6167,-4.6209,-4.6242,-4.6288,-4.6055,-4.5781,-4.543,-4.5,-4.3633,-4.2383,-4.1387,-4.1211,-4.1191,-4.1191,-4.1172,-4.1191,-4.1191,-4.1191,-4.1191,-4.1191,-4.1191,-4.1191,-4.1191,-4.1191,-4.1191,-4.1191,-4.1191,-4.1191,-4.1191,-4.1191,-4.1172,-4.1229,-4.1355,-4.1441,-4.1464,-4.1738,-4.1758,-4.1641,-4.1797,-4.2031,-4.2266,-4.2812,-4.3418,-4.3594,-4.373,-4.3613,-4.3125,-4.2773,-4.2695,-4.248,-4.2383,-4.2519,-4.291,-4.332,-4.3418,-4.334,-4.3555,-4.3672,-4.3476,-4.3262,-4.2832,-4.2031,-4.2109,-4.2266,-4.1582,-4.125,-4.1348,-4.1443,-4.1542,-4.1479,-4.1025,-4.0888,-4.0858,-4.084,-4.0848,-4.0827,-4.0797,-4.0797,-4.0797,-4.0797,-4.0797,-4.0797,-4.0814,-4.0851,-4.0863,-4.0888,-4.0928,-4.0974,-4.0948,-4.0906,-4.0811,-4.0723,-4.0643,-4.0574,-4.6115,-4.6204,-4.6241,-4.6287,-4.6289,-4.6289,-4.6289,-4.6289,-4.6289,-4.6289,-4.6289,-4.6289,-4.6289,-4.6211,-4.5905,-4.5808,-4.6177,-4.5746,-4.5708,-4.6153,-4.6206,-4.6237,-4.6265,-4.6211,-4.6035,-4.5723,-4.5273,-4.4883,-4.4219,-4.3223,-4.1992,-4.1289,-4.1191,-4.1191,-4.1191,-4.1191,-4.1191,-4.1191,-4.1191,-4.1191,-4.1191,-4.1191,-4.1191,-4.1191,-4.1191,-4.1191,-4.1191,-4.1191,-4.1191,-4.1191,-4.1191,-4.1191,-4.1191,-4.1168,-4.1164,-4.1205,-4.1269,-4.1348,-4.1308,-4.1269,-4.123,-4.1308,-4.166,-4.207,-4.2578,-4.2832,-4.2519,-4.2129,-4.1973,-4.1777,-4.1465,-4.1269,-4.1562,-4.1875,-4.2207,-4.2519,-4.2734,-4.2988,-4.2891,-4.2715,-4.2402,-4.2051,-4.1855,-4.1933,-4.1855,-4.1426,-4.1191,-4.123,-4.1261,-4.1288,-4.1274,-4.1025,-4.0957,-4.0928,-4.0912,-4.0888,-4.0846,-4.082,-4.0797,-4.0797,-4.0803,-4.0837,-4.0862,-4.0888,-4.0915,-4.0945,-4.0956,-4.1,-4.1052,-4.103,-4.1008,-4.0948,-4.0863,-4.0757,-4.0693,-4.6072,-4.6177,-4.6126,-4.6145,-4.6289,-4.6211,-4.6191,-4.6289,-4.6289,-4.6289,-4.6289,-4.6289,-4.623,-4.5918,-4.544,-4.5335,-4.5471,-4.5231,-4.5425,-4.6113,-4.6264,-4.623,-4.6035,-4.6113,-4.5547,-4.5117,-4.457,-4.3926,-4.3359,-4.2519,-4.1738,-4.1211,-4.1191,-4.1191,-4.1191,-4.1191,-4.1191,-4.1191,-4.1191,-4.1191,-4.1191,-4.1191,-4.1191,-4.1191,-4.1191,-4.1191,-4.1191,-4.1191,-4.1191,-4.1191,-4.1191,-4.1191,-4.1191,-4.1191,-4.1191,-4.1191,-4.1191,-4.1191,-4.1191,-4.1172,-4.1172,-4.1191,-4.1211,-4.1387,-4.1758,-4.207,-4.1836,-4.1641,-4.1504,-4.1484,-4.1269,-4.1191,-4.1387,-4.1562,-4.1777,-4.1894,-4.1933,-4.2129,-4.2148,-4.1973,-4.1816,-4.1504,-4.1504,-4.1562,-4.1601,-4.1269,-4.1191,-4.1191,-4.1191,-4.1152,-4.1113,-4.1055,-4.1028,-4.099,-4.0956,-4.0937,-4.0893,-4.0862,-4.0843,-4.0834,-4.0868,-4.0888,-4.0928,-4.0937,-4.0967,-4.1017,-4.1064,-4.1083,-4.1115,-4.1141,-4.112,-4.1072,-4.1003,-4.0887,-4.0807,-4.6054,-4.6056,-4.5515,-4.5664,-4.6172,-4.5586,-4.5723,-4.6289,-4.6289,-4.6289,-4.6289,-4.623,-4.5898,-4.5351,-4.4961,-4.4746,-4.4414,-4.4648,-4.5058,-4.5449,-4.5801,-4.5644,-4.541,-4.5273,-4.4785,-4.4043,-4.3359,-4.2754,-4.2168,-4.168,-4.1465,-4.123,-4.1191,-4.1191,-4.1191,-4.1191,-4.1191,-4.1191,-4.1191,-4.1191,-4.1191,-4.1191,-4.1191,-4.1191,-4.1191,-4.1191,-4.1191,-4.1191,-4.1191,-4.1191,-4.1191,-4.1191,-4.1191,-4.1191,-4.1191,-4.1191,-4.1191,-4.1191,-4.1172,-4.1152,-4.1132,-4.1108,-4.1085,-4.1076,-4.1172,-4.1385,-4.1426,-4.1269,-4.1191,-4.1191,-4.1191,-4.1191,-4.1211,-4.1308,-4.1406,-4.1308,-4.123,-4.1328,-4.1426,-4.1348,-4.123,-4.1191,-4.1191,-4.1191,-4.1191,-4.1191,-4.1191,-4.1191,-4.1191,-4.1191,-4.1172,-4.1133,-4.1094,-4.107,-4.1025,-4.0994,-4.0964,-4.0945,-4.0928,-4.0917,-4.0929,-4.0956,-4.0984,-4.1019,-4.1044,-4.1078,-4.1117,-4.1146,-4.117,-4.1191,-4.1191,-4.1133,-4.1133,-4.1051,-4.0939,-4.5195,-4.4861,-4.4545,-4.4666,-4.5078,-4.5019,-4.5293,-4.5742,-4.6113,-4.6289,-4.6211,-4.5898,-4.543,-4.4726,-4.4258,-4.4023,-4.3594,-4.3711,-4.4043,-4.4492,-4.4844,-4.4707,-4.4551,-4.4394,-4.3828,-4.3105,-4.2305,-4.1641,-4.125,-4.1211,-4.123,-4.1191,-4.1191,-4.1191,-4.1191,-4.1191,-4.1191,-4.1191,-4.1191,-4.1191,-4.1191,-4.1191,-4.1191,-4.1191,-4.1191,-4.1191,-4.1191,-4.1191,-4.1191,-4.1191,-4.1191,-4.1191,-4.1191,-4.1191,-4.1191,-4.1191,-4.1172,-4.1171,-4.1152,-4.1111,-4.1068,-4.1038,-4.1028,-4.1014,-4.0967,-4.1152,-4.1177,-4.1055,-4.1133,-4.1152,-4.1152,-4.1172,-4.1191,-4.1269,-4.1289,-4.125,-4.1211,-4.125,-4.1289,-4.1269,-4.1191,-4.1191,-4.1191,-4.1191,-4.1191,-4.1191,-4.1191,-4.1191,-4.1191,-4.1191,-4.1191,-4.1191,-4.1152,-4.1113,-4.1076,-4.1059,-4.102,-4.1011,-4.1006,-4.1009,-4.1011,-4.1025,-4.1037,-4.1074,-4.1113,-4.1141,-4.117,-4.1172,-4.1191,-4.1191,-4.1191,-4.1191,-4.1191,-4.1172,-4.1059,-4.4046,-4.3442,-4.3409,-4.354,-4.373,-4.4316,-4.4687,-4.4922,-4.5566,-4.5879,-4.5683,-4.4941,-4.4746,-4.4238,-4.3281,-4.3203,-4.3086,-4.291,-4.3105,-4.3418,-4.3769,-4.3769,-4.3672,-4.3476,-4.2949,-4.2363,-4.1641,-4.1387,-4.1211,-4.1191,-4.1191,-4.1191,-4.1191,-4.1191,-4.1191,-4.1191,-4.1191,-4.1191,-4.1191,-4.1191,-4.1191,-4.1191,-4.1191,-4.1191,-4.1191,-4.1191,-4.1191,-4.1191,-4.1191,-4.1191,-4.1191,-4.1172,-4.1172,-4.1172,-4.1172,-4.1171,-4.1132,-4.1131,-4.111,-4.1108,-4.1055,-4.1014,-4.1001,-4.0953,-4.0893,-4.089,-4.0917,-4.0974,-4.1035,-4.1111,-4.1119,-4.1152,-4.1172,-4.1191,-4.1191,-4.1191,-4.1191,-4.1191,-4.1191,-4.1191,-4.1191,-4.1191,-4.1191,-4.1191,-4.1191,-4.1191,-4.1191,-4.1191,-4.1191,-4.1191,-4.1191,-4.1191,-4.1191,-4.1152,-4.1133,-4.1113,-4.1094,-4.1081,-4.108,-4.1081,-4.1083,-4.1091,-4.1133,-4.1152,-4.1191,-4.1172,-4.1191,-4.1191,-4.1191,-4.1191,-4.1191,-4.1191,-4.1191,-4.1172,-4.1152,-4.3503,-4.335,-4.2737,-4.2858,-4.3395,-4.3005,-4.3162,-4.3812,-4.4049,-4.4154,-4.4101,-4.3457,-4.3223,-4.3887,-4.2851,-4.2368,-4.1976,-4.1976,-4.2269,-4.2578,-4.3061,-4.3027,-4.2832,-4.2598,-4.2129,-4.168,-4.1308,-4.125,-4.1172,-4.1191,-4.1191,-4.1172,-4.1191,-4.1191,-4.1191,-4.1191,-4.1191,-4.1172,-4.1172,-4.1191,-4.1191,-4.1191,-4.1191,-4.1191,-4.1191,-4.1191,-4.1191,-4.1191,-4.1191,-4.1191,-4.1171,-4.1151,-4.113,-4.113,-4.113,-4.115,-4.1109,-4.1108,-4.1107,-4.1103,-4.1065,-4.0956,-4.0926,-4.0882,-4.082,-4.0757,-4.0809,-4.0869,-4.0941,-4.1068,-4.1111,-4.1147,-4.1172,-4.1191,-4.1191,-4.1191,-4.1191,-4.1191,-4.1191,-4.1191,-4.1191,-4.1191,-4.1191,-4.1191,-4.1191,-4.1191,-4.1191,-4.1191,-4.1191,-4.1191,-4.1191,-4.1191,-4.1191,-4.1191,-4.1191,-4.1172,-4.1152,-4.1152,-4.1152,-4.1133,-4.1152,-4.1172,-4.1191,-4.1191,-4.1191,-4.1191,-4.1191,-4.1191,-4.1191,-4.1191,-4.1191,-4.1191,-4.1191,-4.1191,-4.1172]},{"header":{"parameterUnit":"m.s-1","parameterCategory":1,"la1":31.0,"la2":29.5877,"lo1":-88.7671,"lo2":-86.6584,"dy":0.0162,"dx":0.0185,"nx":115,"ny":88,"refTime":"2024-07-17T18:00:00:Z","depth":0,"parameterNumber":3,"parameterNumberName":"V-component_of_WINDS"},"data":[0.0,0.0,0.0,0.0,0.0,0.0,0.0,0.0,0.0,0.0,0.0,0.0,0.0,0.0,0.0,0.0,0.0,0.0,0.0,0.0,0.0,0.0,0.0,0.0,0.0,0.0,0.0,0.0,0.0,0.0,0.0,0.0,0.0,0.0,0.0,0.0,0.0,0.0,0.0,0.0,0.0,0.0,0.0,0.0,0.0,0.0,0.0,0.0,0.0,0.0,0.0,0.0,0.0,0.0,0.0,0.0,0.0,0.0,0.0,0.0,0.0,0.0,0.0,0.0,0.0,0.0,0.0,0.0,0.0,0.0,0.0,0.0,0.0,0.0,0.0,0.0,0.0,0.0,0.0,0.0,0.0,0.0,0.0,0.0,0.0,0.0,0.0,0.0,0.0,0.0,0.0,0.0,0.0,0.0,0.0,0.0,0.0,0.0,0.0,0.0,0.0,0.0,0.0,0.0,0.0,0.0,0.0,0.0,0.0,0.0,0.0,0.0,0.0,0.0,0.0,0.0,0.0,0.0,0.0,0.0,0.0,0.0,0.0,0.0,0.0,0.0,0.0,0.0,0.0,0.0,0.0,0.0,0.0,0.0,0.0,0.0,0.0,0.0,0.0,0.0,0.0,0.0,0.0,0.0,0.0,0.0,0.0,0.0,0.0,0.0,0.0,0.0,0.0,0.0,0.0,0.0,0.0,0.0,0.0,0.0,0.0,0.0,0.0,0.0,0.0,0.0,0.0,0.0,0.0,0.0,0.0,0.0,0.0,0.0,0.0,0.0,0.0,0.0,0.0,0.0,0.0,0.0,0.0,0.0,0.0,0.0,0.0,0.0,0.0,0.0,0.0,0.0,0.0,0.0,0.0,0.0,0.0,0.0,0.0,0.0,0.0,0.0,0.0,0.0,0.0,0.0,0.0,0.0,0.0,0.0,0.0,0.0,0.0,0.0,0.0,0.0,0.0,0.0,0.0,0.0,0.0,0.0,0.0,0.0,0.0,0.0,0.0,0.0,0.0,0.0,0.0,0.0,0.0,0.0,0.0,0.0,0.0,0.0,0.0,0.0,0.0,0.0,0.0,0.0,0.0,0.0,0.0,0.0,0.0,0.0,0.0,0.0,0.0,0.0,0.0,0.0,0.0,0.0,0.0,0.0,0.0,0.0,0.0,0.0,0.0,0.0,0.0,0.0,0.0,0.0,0.0,0.0,0.0,0.0,0.0,0.0,0.0,0.0,0.0,0.0,0.0,0.0,0.0,0.0,0.0,0.0,0.0,0.0,0.0,0.0,0.0,0.0,0.0,0.0,0.0,0.0,0.0,0.0,0.0,0.0,0.0,0.0,0.0,0.0,0.0,0.0,0.0,0.0,0.0,0.0,0.0,0.0,0.0,0.0,0.0,0.0,0.0,0.0,0.0,0.0,0.0,0.0,0.0,0.0,0.0,0.0,0.0,0.0,0.0,0.0,0.0,0.0,0.0,0.0,0.0,0.0,0.0,0.0,0.0,0.0,0.0,0.0,0.0,0.0,0.0,0.0,0.0,0.0,0.0,0.0,0.0,0.0,0.0,0.0,0.0,0.0,0.0,0.0,0.0,0.0,0.0,0.0,0.0,0.0,0.0,0.0,0.0,0.0,0.0,0.0,0.0,0.0,0.0,0.0,0.0,0.0,0.0,0.0,0.0,0.0,0.0,0.0,0.0,0.0,0.0,0.0,0.0,0.0,0.0,0.0,0.0,0.0,0.0,0.0,0.0,0.0,0.0,0.0,0.0,0.0,0.0,0.0,0.0,0.0,0.0,0.0,0.0,0.0,0.0,0.0,0.0,0.0,0.0,0.0,0.0,0.0,0.0,0.0,0.0,0.0,0.0,0.0,0.0,0.0,0.0,0.0,0.0,0.0,0.0,0.0,0.0,0.0,0.0,0.0,0.0,0.0,0.0,0.0,0.0,0.0,0.0,0.0,0.0,0.0,0.0,0.0,0.0,0.0,0.0,0.0,0.0,0.0,0.0,0.0,0.0,0.0,0.0,0.0,0.0,0.0,0.0,0.0,0.0,0.0,0.0,0.0,0.0,0.0,0.0,0.0,0.0,0.0,0.0,0.0,0.0,0.0,0.0,0.0,0.0,0.0,0.0,0.0,0.0,0.0,0.0,0.0,0.0,0.0,0.0,0.0,0.0,0.0,0.0,0.0,0.0,0.0,0.0,0.0,0.0,0.0,0.0,0.0,0.0,0.0,0.0,0.0,0.0,0.0,0.0,0.0,0.0,0.0,0.0,0.0,0.0,0.0,0.0,0.0,0.0,0.0,0.0,0.0,0.0,0.0,0.0,0.0,0.0,0.0,0.0,0.0,0.0,0.0,0.0,0.0,0.0,0.0,0.0,0.0,0.0,0.0,0.0,0.0,0.0,0.0,0.0,0.0,0.0,0.0,0.0,0.0,0.0,0.0,0.0,0.0,0.0,0.0,0.0,0.0,0.0,0.0,0.0,0.0,0.0,0.0,0.0,0.0,0.0,0.0,0.0,0.0,0.0,0.0,0.0,0.0,0.0,0.0,0.0,0.0,0.0,0.0,0.0,0.0,0.0,0.0,0.0,0.0,0.0,0.0,0.0,0.0,0.0,0.0,0.0,0.0,0.0,0.0,0.0,0.0,0.0,0.0,0.0,0.0,0.0,0.0,0.0,0.0,0.0,0.0,0.0,0.0,0.0,0.0,0.0,0.0,0.0,0.0,0.0,0.0,0.0,0.0,0.0,0.0,0.0,0.0,0.0,0.0,0.0,0.0,0.0,0.0,0.0,0.0,0.0,0.0,0.0,0.0,0.0,0.0,0.0,0.0,0.0,0.0,0.0,0.0,0.0,0.0,0.0,0.0,0.0,0.0,0.0,0.0,0.0,0.0,0.0,0.0,0.0,0.0,0.0,0.0,0.0,0.0,0.0,0.0,0.0,0.0,0.0,0.0,0.0,0.0,0.0,0.0,0.0,0.0,0.0,0.0,0.0,0.0,0.0,0.0,0.0,0.0,0.0,0.0,0.0,0.0,0.0,0.0,0.0,0.0,0.0,0.0,0.0,0.0,0.0,0.0,0.0,0.0,0.0,0.0,0.0,0.0,0.0,0.0,0.0,0.0,0.0,0.0,0.0,0.0,0.0,0.0,0.0,0.0,0.0,0.0,0.0,0.0,0.0,0.0,0.0,0.0,0.0,0.0,0.0,0.0,0.0,0.0,0.0,0.0,0.0,0.0,0.0,0.0,0.0,0.0,0.0,0.0,0.0,0.0,0.0,0.0,0.0,0.0,0.0,0.0,0.0,0.0,0.0,0.0,0.0,0.0,0.0,0.0,0.0,0.0,0.0,0.0,0.0,0.0,0.0,0.0,0.0,0.0,0.0,0.0,0.0,0.0,0.0,0.0,0.0,0.0,0.0,0.0,0.0,0.0,0.0,0.0,0.0,0.0,0.0,0.0,0.0,0.0,0.0,0.0,0.0,0.0,0.0,0.0,0.0,0.0,0.0,0.0,0.0,0.0,0.0,0.0,0.0,0.0,0.0,0.0,0.0,0.0,0.0,0.0,0.0,0.0,0.0,0.0,0.0,0.0,0.0,0.0,0.0,0.0,0.0,0.0,0.0,0.0,0.0,0.0,0.0,0.0,0.0,0.0,0.0,0.0,0.0,0.0,0.0,0.0,0.0,0.0,0.0,0.0,0.0,0.0,0.0,0.0,0.0,0.0,0.0,0.0,0.0,0.0,0.0,0.0,0.0,0.0,0.0,0.0,0.0,0.0,0.0,0.0,0.0,0.0,0.0,0.0,0.0,0.0,0.0,0.0,0.0,0.0,0.0,0.0,0.0,0.0,0.0,0.0,0.0,0.0,0.0,0.0,0.0,0.0,0.0,0.0,0.0,0.0,0.0,0.0,0.0,0.0,0.0,0.0,0.0,0.0,0.0,0.0,0.0,0.0,0.0,0.0,0.0,0.0,0.0,0.0,0.0,0.0,0.0,0.0,0.0,0.0,0.0,0.0,0.0,0.0,0.0,0.0,0.0,0.0,0.0,0.0,0.0,0.0,0.0,0.0,0.0,0.0,0.0,0.0,0.0,0.0,0.0,0.0,0.0,0.0,0.0,0.0,0.0,0.0,0.0,0.0,0.0,0.0,0.0,0.0,0.0,0.0,0.0,0.0,0.0,0.0,0.0,0.0,0.0,0.0,0.0,0.0,0.0,0.0,0.0,0.0,0.0,0.0,0.0,0.0,0.0,0.0,0.0,0.0,0.0,0.0,-0.482,0.0,0.0,0.0,0.0,0.0,0.0,0.0,0.0,0.0,0.0,0.0,0.0,0.0,0.0,0.0,0.0,0.0,0.0,0.0,0.0,0.0,0.0,0.0,0.0,0.0,0.0,0.0,0.0,0.0,0.0,0.0,0.0,0.0,0.0,0.0,0.0,0.0,0.0,0.0,0.0,0.0,0.0,0.0,0.0,0.0,0.0,0.0,0.0,0.0,0.0,0.0,0.0,0.0,0.0,0.0,0.0,0.0,0.0,0.0,0.0,0.0,0.0,0.0,0.0,0.0,0.0,0.0,0.0,0.0,0.0,0.0,0.0,0.0,0.0,0.0,0.0,0.0,0.0,0.0,0.0,0.0,0.0,0.0,0.0,0.0,0.0,0.0,0.0,0.0,0.0,0.0,0.0,0.0,0.0,0.0,0.0,0.0,0.0,0.0,0.0,0.0,0.0,0.0,0.0,0.0,0.0,0.0,0.0,0.0,0.0,-0.5277,-0.5385,-0.4822,-0.458,-0.4756,0.0,0.0,0.0,0.0,0.0,0.0,0.0,0.0,0.0,0.0,0.0,0.0,0.0,0.0,0.0,0.0,0.0,0.0,0.0,0.0,0.0,0.0,0.0,0.0,0.0,0.0,0.0,0.0,0.0,0.0,0.0,0.0,0.0,0.0,0.0,0.0,0.0,0.0,0.0,0.0,0.0,0.0,0.0,0.0,0.0,0.0,0.0,0.0,0.0,0.0,0.0,0.0,0.0,0.0,0.0,0.0,0.0,0.0,0.0,0.0,0.0,0.0,0.0,0.0,0.0,0.0,0.0,0.0,0.0,0.0,0.0,0.0,0.0,0.0,0.0,0.0,0.0,0.0,0.0,0.0,0.0,0.0,0.0,0.0,0.0,0.0,0.0,0.0,0.0,0.0,0.0,0.0,0.0,0.0,0.0,0.0,0.0,0.0,0.0,0.0,0.0,0.0,0.0,0.0,0.0,0.0,0.0,0.0,0.0,0.0,0.0,0.0,-0.5257,-0.499,-0.4761,0.0,0.0,0.0,0.0,0.0,0.0,0.0,0.0,0.0,0.0,0.0,0.0,0.0,0.0,0.0,0.0,0.0,0.0,0.0,0.0,0.0,0.0,0.0,0.0,0.0,0.0,0.0,0.0,0.0,0.0,0.0,0.0,0.0,0.0,0.0,0.0,0.0,0.0,0.0,0.0,0.0,0.0,0.0,0.0,0.0,0.0,0.0,0.0,0.0,0.0,0.0,0.0,0.0,0.0,0.0,0.0,0.0,0.0,0.0,0.0,0.0,0.0,0.0,0.0,0.0,0.0,0.0,0.0,0.0,0.0,0.0,0.0,0.0,0.0,0.0,0.0,0.0,0.0,0.0,0.0,0.0,0.0,0.0,0.0,0.0,0.0,0.0,0.0,0.0,0.0,0.0,0.0,0.0,0.0,0.0,0.0,0.0,0.0,0.0,0.0,0.0,0.0,0.0,0.0,0.0,0.0,0.0,0.0,0.0,0.0,-0.5366,-0.5945,-0.58,0.0,-0.4902,0.0,0.0,0.0,0.0,0.0,0.0,0.0,0.0,0.0,0.0,0.0,0.0,0.0,0.0,0.0,0.0,0.0,0.0,0.0,0.0,0.0,0.0,0.0,0.0,0.0,0.0,0.0,0.0,0.0,0.0,0.0,0.0,0.0,0.0,0.0,0.0,0.0,0.0,0.0,0.0,0.0,0.0,0.0,0.0,0.0,0.0,0.0,0.0,0.0,0.0,0.0,0.0,0.0,0.0,0.0,0.0,0.0,0.0,0.0,0.0,0.0,0.0,0.0,0.0,0.0,0.0,0.0,0.0,0.0,0.0,0.0,0.0,0.0,0.0,0.0,0.0,0.0,0.0,0.0,0.0,0.0,0.0,0.0,0.0,0.0,0.0,0.0,0.0,0.0,0.0,0.0,0.0,0.0,0.0,0.0,0.0,0.0,0.0,0.0,0.0,0.0,0.0,0.0,0.0,0.0,0.0,0.0,0.0,0.0,0.0,0.0,-0.602,-0.5614,-0.5182,0.0,0.0,0.0,0.0,0.0,0.0,0.0,0.0,0.0,0.0,0.0,0.0,0.0,0.0,0.0,0.0,0.0,0.0,0.0,0.0,0.0,0.0,0.0,0.0,0.0,0.0,0.0,0.0,0.0,0.0,0.0,0.0,0.0,0.0,0.0,0.0,0.0,0.0,0.0,0.0,0.0,0.0,0.0,0.0,0.0,0.0,0.0,0.0,0.0,0.0,0.0,0.0,0.0,0.0,0.0,0.0,0.0,0.0,0.0,0.0,0.0,0.0,0.0,0.0,0.0,0.0,0.0,0.0,0.0,0.0,0.0,0.0,0.0,0.0,0.0,0.0,0.0,0.0,0.0,0.0,0.0,0.0,0.0,0.0,0.0,0.0,0.0,0.0,0.0,0.0,0.0,0.0,0.0,0.0,0.0,0.0,0.0,0.0,0.0,0.0,0.0,0.0,0.0,0.0,0.0,0.0,0.0,0.0,0.0,0.0,-0.5488,0.0,-0.6077,-0.5533,-0.4999,-0.4556,0.0,0.0,0.0,0.0,0.0,0.0,0.0,0.0,0.0,0.0,0.0,0.0,0.0,0.0,0.0,0.0,0.0,0.0,0.0,0.0,0.0,0.0,0.0,0.0,0.0,0.0,0.0,0.0,0.0,0.0,0.0,0.0,0.0,0.0,0.0,0.0,0.0,0.0,0.0,0.0,0.0,0.0,0.0,0.0,0.0,0.0,0.0,0.0,0.0,0.0,0.0,0.0,0.0,0.0,0.0,0.0,0.0,0.0,0.0,0.0,0.0,0.0,0.0,0.0,0.0,0.0,0.0,0.0,0.0,0.0,0.0,0.0,0.0,0.0,0.0,0.0,0.0,0.0,0.0,0.0,0.0,0.0,0.0,0.0,0.0,0.0,0.0,0.0,0.0,0.0,0.0,0.0,0.0,0.0,0.0,0.0,0.0,0.0,0.0,0.0,0.0,0.0,0.0,0.0,0.0,0.0,0.0,0.0,0.0,-0.5793,-0.5867,-0.643,-0.5833,-0.5222,0.0,0.0,0.0,0.0,0.0,0.0,0.0,0.0,0.0,0.0,0.0,0.0,0.0,0.0,0.0,0.0,0.0,0.0,0.0,0.0,0.0,0.0,0.0,0.0,0.0,0.0,0.0,0.0,0.0,0.0,0.0,0.0,0.0,0.0,0.0,0.0,0.0,0.0,0.0,0.0,0.0,0.0,0.0,0.0,0.0,0.0,0.0,0.0,0.0,0.0,0.0,0.0,0.0,0.0,0.0,0.0,0.0,0.0,0.0,0.0,0.0,0.0,0.0,0.0,0.0,0.0,0.0,0.0,0.0,0.0,0.0,0.0,0.0,0.0,0.0,0.0,0.0,0.0,0.0,0.0,0.0,0.0,0.0,0.0,0.0,0.0,0.0,0.0,0.0,0.0,0.0,0.0,0.0,0.0,0.0,0.0,0.0,0.0,0.0,0.0,0.0,0.0,0.0,0.0,0.0,0.0,0.0,0.0,0.0,-0.5237,-0.5559,-0.6057,0.0,-0.5729,-0.5108,0.0,0.0,0.0,0.0,0.0,0.0,0.0,0.0,0.0,0.0,0.0,0.0,0.0,0.0,0.0,0.0,0.0,0.0,0.0,0.0,0.0,0.0,0.0,0.0,0.0,0.0,0.0,0.0,0.0,0.0,0.0,0.0,0.0,0.0,0.0,0.0,0.0,0.0,0.0,0.0,0.0,0.0,0.0,0.0,0.0,0.0,0.0,0.0,0.0,0.0,0.0,0.0,0.0,0.0,0.0,0.0,0.0,0.0,0.0,0.0,0.0,0.0,0.0,0.0,0.0,0.0,0.0,0.0,0.0,0.0,0.0,0.0,0.0,0.0,0.0,0.0,0.0,0.0,0.0,0.0,0.0,0.0,0.0,0.0,0.0,0.0,0.0,0.0,0.0,0.0,0.0,0.0,0.0,0.0,0.0,0.0,0.0,0.0,0.0,0.0,0.0,0.0,0.0,0.0,0.0,0.0,0.0,0.0,0.0,-0.5125,0.0,-0.6346,0.0,-0.5761,-0.5035,0.0,0.0,0.0,0.0,0.0,0.0,0.0,0.0,0.0,0.0,0.0,0.0,0.0,0.0,0.0,0.0,0.0,0.0,0.0,0.0,0.0,0.0,0.0,0.0,0.0,0.0,0.0,0.0,0.0,0.0,0.0,0.0,0.0,0.0,0.0,0.0,0.0,0.0,0.0,0.0,0.0,0.0,0.0,0.0,0.0,0.0,0.0,0.0,0.0,0.0,0.0,0.0,0.0,0.0,0.0,0.0,0.0,0.0,0.0,0.0,0.0,0.0,0.0,0.0,0.0,0.0,0.0,0.0,0.0,0.0,0.0,0.0,0.0,0.0,0.0,0.0,0.0,0.0,0.0,0.0,0.0,0.0,0.0,0.0,0.0,0.0,0.0,0.0,0.0,0.0,0.0,0.0,0.0,0.0,0.0,0.0,0.0,0.0,0.0,0.0,0.0,0.0,0.0,0.0,0.0,0.0,0.0,0.0,-0.501,-0.5936,-0.6569,-0.6675,-0.633,-0.5906,-0.5159,0.0,0.0,0.0,0.0,0.0,0.0,0.0,0.0,0.0,0.0,0.0,0.0,0.0,0.0,0.0,0.0,0.0,0.0,0.0,0.0,0.0,0.0,0.0,0.0,0.0,0.0,0.0,0.0,0.0,0.0,0.0,0.0,0.0,0.0,0.0,0.0,0.0,0.0,0.0,0.0,0.0,0.0,0.0,0.0,0.0,0.0,0.0,0.0,0.0,0.0,0.0,0.0,0.0,0.0,0.0,0.0,0.0,0.0,0.0,0.0,0.0,0.0,0.0,0.0,0.0,0.0,0.0,0.0,0.0,0.0,0.0,0.0,0.0,0.0,0.0,0.0,0.0,0.0,0.0,0.0,0.0,0.0,0.0,0.0,0.0,0.0,0.0,0.0,0.0,0.0,0.0,0.0,0.0,0.0,0.0,0.0,0.0,0.0,0.0,0.0,0.0,0.0,0.0,0.0,0.0,0.0,0.0,0.0,0.0,-0.5725,-0.6108,-0.6441,-0.6678,-0.6013,-0.5615,0.0,0.0,0.0,0.0,0.0,0.0,0.0,0.0,0.0,0.0,0.0,0.0,0.0,0.0,0.0,0.0,0.0,0.0,0.0,0.0,0.0,0.0,0.0,0.0,0.0,0.0,0.0,0.0,0.0,0.0,0.0,0.0,0.0,0.0,0.0,0.0,0.0,0.0,0.0,0.0,0.0,0.0,0.0,0.0,0.0,0.0,0.0,0.0,0.0,0.0,0.0,0.0,0.0,0.0,0.0,0.0,0.0,0.0,0.0,0.0,0.0,0.0,0.0,0.0,0.0,0.0,0.0,0.0,0.0,0.0,0.0,0.0,0.0,0.0,0.0,0.0,0.0,0.0,0.0,0.0,0.0,0.0,0.0,0.0,0.0,0.0,0.0,0.0,0.0,0.0,0.0,0.0,0.0,0.0,0.0,0.0,0.0,0.0,0.0,0.0,0.0,0.0,0.0,0.0,0.0,0.0,0.0,0.0,0.0,-0.6173,-0.6403,-0.6774,-0.73,-0.6548,-0.6196,-0.6381,0.0,0.0,0.0,0.0,0.0,0.0,0.0,0.0,0.0,0.0,0.0,0.0,0.0,0.0,0.0,0.0,0.0,0.0,0.0,0.0,0.0,0.0,0.0,0.0,0.0,0.0,0.0,0.0,0.0,0.0,0.0,0.0,0.0,0.0,0.0,0.0,0.0,0.0,0.0,0.0,0.0,0.0,0.0,0.0,0.0,0.0,0.0,0.0,0.0,0.0,0.0,0.0,0.0,0.0,0.0,0.0,0.0,0.0,0.0,0.0,0.0,0.0,0.0,0.0,0.0,0.0,0.0,0.0,0.0,0.0,0.0,0.0,0.0,0.0,0.0,0.0,0.0,0.0,0.0,0.0,0.0,0.0,0.0,0.0,0.0,0.0,0.0,0.0,0.0,0.0,0.0,0.0,0.0,0.0,0.0,0.0,0.0,0.0,0.0,0.0,0.0,0.0,0.0,0.0,0.0,0.0,0.0,0.0,-0.7177,-0.7406,-0.7665,-0.801,-0.7476,-0.7062,0.0,0.0,0.0,0.0,0.0,0.0,0.0,0.0,0.0,0.0,0.0,0.0,0.0,0.0,0.0,0.0,0.0,0.0,0.0,0.0,0.0,0.0,0.0,0.0,0.0,0.0,0.0,0.0,0.0,0.0,0.0,0.0,0.0,0.0,0.0,0.0,0.0,0.0,0.0,0.0,0.0,0.0,0.0,0.0,0.0,0.0,0.0,0.0,0.0,0.0,0.0,0.0,0.0,0.0,0.0,0.0,0.0,0.0,0.0,0.0,0.0,0.0,0.0,0.0,0.0,0.0,0.0,0.0,0.0,0.0,0.0,0.0,0.0,0.0,0.0,0.0,0.0,0.0,0.0,0.0,0.0,0.0,0.0,0.0,0.0,0.0,0.0,0.0,0.0,0.0,0.0,0.0,0.0,0.0,0.0,0.0,0.0,0.0,0.0,0.0,0.0,0.0,0.0,0.0,0.0,0.0,0.0,0.0,0.0,-0.8348,-0.8734,-0.8821,-0.8691,-0.901,-0.8817,0.0,0.0,0.0,0.0,0.0,0.0,0.0,0.0,0.0,0.0,0.0,0.0,0.0,0.0,0.0,0.0,0.0,0.0,0.0,0.0,0.0,0.0,0.0,0.0,0.0,0.0,0.0,0.0,0.0,0.0,0.0,0.0,0.0,0.0,0.0,0.0,0.0,0.0,0.0,0.0,0.0,0.0,0.0,0.0,0.0,0.0,0.0,0.0,0.0,0.0,0.0,0.0,0.0,0.0,0.0,0.0,0.0,0.0,0.0,0.0,0.0,0.0,0.0,0.0,0.0,0.0,0.0,0.0,0.0,0.0,0.0,0.0,0.0,0.0,0.0,0.0,0.0,0.0,0.0,0.0,0.0,0.0,0.0,0.0,0.0,0.0,0.0,0.0,0.0,0.0,0.0,0.0,0.0,0.0,0.0,0.0,0.0,0.0,0.0,0.0,0.0,0.0,0.0,0.0,0.0,0.0,0.0,0.0,-0.7837,-0.925,-1.0374,-1.0748,-1.0307,-1.0341,-0.9962,0.0,0.0,0.0,0.0,0.0,0.0,0.0,0.0,0.0,0.0,0.0,0.0,0.0,0.0,0.0,0.0,0.0,0.0,0.0,0.0,0.0,0.0,0.0,0.0,0.0,0.0,0.0,0.0,0.0,0.0,0.0,0.0,0.0,0.0,0.0,0.0,0.0,0.0,0.0,0.0,0.0,0.0,0.0,0.0,0.0,0.0,0.0,0.0,0.0,0.0,0.0,0.0,0.0,0.0,0.0,0.0,0.0,0.0,0.0,0.0,0.0,0.0,0.0,0.0,0.0,0.0,0.0,0.0,0.0,0.0,0.0,0.0,0.0,0.0,0.0,0.0,0.0,0.0,0.0,0.0,0.0,0.0,0.0,0.0,0.0,0.0,0.0,0.0,0.0,0.0,0.0,0.0,0.0,0.0,0.0,0.0,0.0,0.0,0.0,0.0,0.0,0.0,0.0,0.0,0.0,0.0,0.0,0.0,-0.8973,-1.0049,-1.2032,-1.2837,-1.2369,-1.1544,-1.0702,0.0,0.0,0.0,0.0,0.0,0.0,0.0,0.0,0.0,0.0,0.0,0.0,0.0,0.0,0.0,0.0,0.0,0.0,0.0,0.0,0.0,0.0,0.0,0.0,0.0,0.0,0.0,0.0,0.0,0.0,0.0,0.0,0.0,0.0,0.0,0.0,0.0,0.0,0.0,0.0,0.0,0.0,0.0,0.0,0.0,0.0,0.0,0.0,0.0,0.0,0.0,0.0,0.0,0.0,0.0,0.0,0.0,0.0,0.0,0.0,0.0,0.0,0.0,0.0,0.0,0.0,0.0,0.0,0.0,0.0,0.0,0.0,0.0,0.0,0.0,0.0,0.0,0.0,0.0,0.0,0.0,0.0,0.0,0.0,0.0,0.0,0.0,0.0,0.0,0.0,0.0,0.0,0.0,0.0,0.0,0.0,0.0,0.0,0.0,0.0,0.0,0.0,0.0,0.0,0.0,0.0,0.0,0.0,-1.0178,-1.1815,-1.2454,-1.3012,-1.3531,-1.2785,-1.1608,0.0,0.0,0.0,0.0,0.0,0.0,0.0,0.0,0.0,0.0,0.0,0.0,0.0,0.0,0.0,0.0,0.0,0.0,0.0,0.0,0.0,0.0,0.0,0.0,0.0,0.0,0.0,0.0,0.0,0.0,0.0,0.0,0.0,0.0,0.0,0.0,0.0,0.0,0.0,0.0,0.0,0.0,0.0,0.0,0.0,0.0,0.0,0.0,-0.8062,0.0,0.0,0.0,0.0,0.0,0.0,0.0,0.0,0.0,0.0,0.0,0.0,0.0,0.0,0.0,0.0,0.0,0.0,0.0,0.0,0.0,0.0,0.0,0.0,0.0,0.0,0.0,0.0,0.0,0.0,0.0,0.0,0.0,0.0,0.0,0.0,0.0,0.0,0.0,0.0,0.0,0.0,0.0,0.0,0.0,0.0,0.0,0.0,0.0,0.0,0.0,0.0,0.0,0.0,0.0,0.0,0.0,0.0,0.0,-1.1199,-1.2384,-1.2984,-1.3393,-1.3679,-1.3006,-1.1865,0.0,0.0,0.0,0.0,0.0,0.0,0.0,0.0,0.0,0.0,0.0,0.0,0.0,0.0,0.0,0.0,0.0,0.0,0.0,0.0,0.0,0.0,0.0,0.0,0.0,0.0,0.0,0.0,0.0,0.0,0.0,0.0,0.0,0.0,0.0,0.0,0.0,0.0,0.0,0.0,0.0,0.0,0.0,0.0,0.0,0.0,0.0,0.0,0.0,0.0,0.0,0.0,0.0,0.0,0.0,0.0,0.0,0.0,0.0,0.0,0.0,0.0,0.0,0.0,0.0,0.0,0.0,0.0,0.0,0.0,0.0,0.0,0.0,0.0,0.0,0.0,0.0,0.0,0.0,0.0,0.0,0.0,0.0,0.0,0.0,0.0,0.0,0.0,0.0,0.0,0.0,0.0,0.0,0.0,0.0,0.0,0.0,0.0,0.0,0.0,0.0,0.0,0.0,0.0,0.0,0.0,0.0,-1.1094,-1.2087,-1.2705,-1.3501,-1.3756,-1.3447,-1.2753,-1.1855,-1.0757,0.0,0.0,0.0,0.0,0.0,0.0,0.0,0.0,0.0,0.0,0.0,0.0,0.0,0.0,0.0,0.0,0.0,0.0,0.0,0.0,0.0,0.0,0.0,0.0,0.0,0.0,0.0,0.0,0.0,0.0,0.0,0.0,0.0,0.0,0.0,0.0,0.0,0.0,-0.2979,-0.4156,0.0,0.0,0.0,0.0,0.0,0.0,0.0,0.0,-0.8669,0.0,0.0,0.0,0.0,0.0,0.0,0.0,0.0,0.0,0.0,0.0,0.0,0.0,0.0,0.0,0.0,0.0,0.0,0.0,0.0,0.0,0.0,0.0,0.0,0.0,0.0,0.0,0.0,0.0,0.0,0.0,0.0,0.0,0.0,0.0,0.0,0.0,0.0,0.0,0.0,0.0,0.0,0.0,0.0,0.0,0.0,0.0,0.0,0.0,0.0,0.0,0.0,0.0,0.0,0.0,0.0,-1.1768,-1.2058,-1.2662,-1.3654,-1.3838,-1.3656,-1.3192,-1.2657,-1.2029,-1.1266,0.0,0.0,0.0,0.0,0.0,0.0,0.0,0.0,0.0,0.0,0.0,0.0,0.0,0.0,0.0,0.0,0.0,0.0,0.0,0.0,0.0,0.0,0.0,0.0,0.0,0.0,0.0,0.0,0.0,0.0,0.0,0.0,0.0,0.0,0.0,0.0,0.0,0.0,0.0,-0.5377,-0.6687,0.0,0.0,0.0,0.0,0.0,0.0,0.0,0.0,-1.0331,0.0,0.0,0.0,0.0,0.0,0.0,0.0,0.0,0.0,0.0,0.0,0.0,0.0,0.0,0.0,0.0,0.0,0.0,0.0,0.0,0.0,0.0,0.0,0.0,0.0,0.0,0.0,0.0,0.0,0.0,0.0,0.0,0.0,0.0,0.0,0.0,0.0,0.0,0.0,0.0,0.0,0.0,0.0,0.0,0.0,0.0,0.0,0.0,0.0,0.0,0.0,0.0,0.0,0.0,0.0,-1.1573,-1.2373,-1.304,-1.3671,-1.3716,-1.3471,-1.2953,-1.2343,-1.1811,0.0,0.0,0.0,0.0,0.0,0.0,0.0,0.0,0.0,0.0,0.0,0.0,0.0,0.0,0.0,0.0,0.0,0.0,0.0,0.0,0.0,0.0,0.0,0.0,0.0,0.0,0.0,0.0,0.0,0.0,0.0,0.0,0.0,0.0,0.0,0.0,0.0,0.0,0.0,0.0,-0.6474,-0.7563,-0.6603,0.0,0.0,0.0,0.0,0.0,0.0,-1.0898,-1.1531,0.0,0.0,0.0,0.0,0.0,0.0,0.0,0.0,0.0,0.0,0.0,0.0,0.0,0.0,0.0,0.0,0.0,0.0,0.0,0.0,0.0,0.0,0.0,0.0,0.0,0.0,0.0,0.0,0.0,0.0,0.0,0.0,0.0,0.0,0.0,0.0,0.0,0.0,0.0,0.0,0.0,0.0,0.0,0.0,0.0,0.0,0.0,0.0,0.0,0.0,0.0,0.0,0.0,0.0,0.0,-1.1021,-1.2224,-1.306,-1.3371,-1.3414,-1.3178,-1.2721,-1.2115,-1.1663,0.0,0.0,0.0,0.0,0.0,0.0,0.0,0.0,0.0,0.0,0.0,0.0,0.0,0.0,0.0,0.0,0.0,0.0,0.0,0.0,0.0,0.0,0.0,0.0,0.0,0.0,0.0,0.0,0.0,0.0,0.0,0.0,0.0,0.0,0.0,0.0,0.0,0.0,0.0,0.0,0.0,-0.8381,-0.7325,-0.8466,0.0,0.0,0.0,0.0,-1.073,-1.1749,0.0,0.0,0.0,0.0,0.0,0.0,0.0,0.0,0.0,0.0,0.0,0.0,0.0,0.0,0.0,0.0,0.0,0.0,0.0,0.0,0.0,0.0,0.0,0.0,0.0,0.0,0.0,0.0,0.0,0.0,0.0,0.0,0.0,0.0,0.0,0.0,0.0,0.0,0.0,0.0,0.0,0.0,0.0,0.0,0.0,0.0,0.0,0.0,0.0,0.0,0.0,0.0,0.0,0.0,0.0,0.0,-1.0701,-1.1609,-1.2421,-1.3098,-1.3132,-1.2908,-1.2452,-1.2445,-1.2105,0.0,0.0,0.0,0.0,0.0,0.0,0.0,0.0,0.0,0.0,0.0,0.0,0.0,0.0,0.0,0.0,0.0,0.0,0.0,0.0,0.0,0.0,0.0,0.0,0.0,0.0,0.0,0.0,0.0,0.0,0.0,0.0,0.0,0.0,0.0,0.0,0.0,0.0,0.0,0.0,0.0,-0.9354,-0.8608,-0.9602,-1.0586,0.0,0.0,0.0,-1.1939,-1.2521,0.0,0.0,0.0,0.0,0.0,0.0,0.0,0.0,0.0,0.0,0.0,0.0,0.0,0.0,0.0,0.0,0.0,0.0,0.0,0.0,0.0,0.0,0.0,0.0,0.0,0.0,0.0,0.0,0.0,0.0,0.0,0.0,0.0,0.0,0.0,0.0,0.0,0.0,0.0,0.0,0.0,0.0,0.0,0.0,0.0,0.0,0.0,0.0,0.0,0.0,0.0,0.0,0.0,0.0,0.0,-0.9494,-1.1446,-1.2619,-1.3436,-1.3892,-1.4527,-1.4254,-1.3016,-1.2983,-1.266,0.0,0.0,0.0,0.0,0.0,0.0,0.0,0.0,0.0,0.0,0.0,0.0,0.0,0.0,0.0,0.0,0.0,0.0,0.0,0.0,0.0,0.0,0.0,0.0,0.0,0.0,0.0,0.0,0.0,0.0,0.0,0.0,0.0,0.0,0.0,0.0,0.0,0.0,0.0,0.0,0.0,0.0,-0.9415,-1.0208,0.0,0.0,0.0,-1.1363,-1.2535,0.0,0.0,0.0,0.0,0.0,0.0,0.0,0.0,0.0,0.0,0.0,0.0,0.0,0.0,0.0,0.0,0.0,0.0,0.0,0.0,0.0,0.0,0.0,0.0,0.0,0.0,0.0,0.0,0.0,0.0,0.0,0.0,0.0,0.0,0.0,0.0,0.0,0.0,0.0,0.0,0.0,0.0,0.0,0.0,0.0,0.0,0.0,0.0,0.0,0.0,0.0,0.0,0.0,0.0,0.0,0.0,0.0,-1.1954,-1.3267,-1.4176,-1.4675,-1.5471,-1.5215,-1.3646,-1.3548,0.0,0.0,0.0,0.0,0.0,0.0,0.0,0.0,0.0,0.0,0.0,0.0,0.0,0.0,0.0,0.0,0.0,0.0,0.0,0.0,0.0,0.0,0.0,0.0,0.0,0.0,0.0,-0.4395,0.0,0.0,0.0,0.0,0.0,0.0,0.0,0.0,0.0,0.0,0.0,0.0,0.0,0.0,-1.0229,-1.0175,-1.0941,-1.1545,0.0,0.0,-1.2227,-1.2991,-1.3478,-1.3823,0.0,0.0,0.0,0.0,0.0,0.0,0.0,0.0,0.0,0.0,0.0,0.0,0.0,0.0,0.0,0.0,0.0,0.0,0.0,0.0,0.0,0.0,0.0,0.0,0.0,0.0,0.0,0.0,0.0,0.0,0.0,0.0,0.0,0.0,0.0,0.0,0.0,0.0,0.0,0.0,0.0,0.0,0.0,0.0,0.0,0.0,0.0,0.0,0.0,0.0,0.0,0.0,0.0,0.0,0.0,-1.1676,-1.2705,-1.3838,-1.5078,-1.5192,-1.4844,-1.4166,-1.4177,-1.3378,0.0,0.0,0.0,0.0,0.0,0.0,0.0,0.0,0.0,0.0,0.0,0.0,0.0,0.0,0.0,0.0,0.0,0.0,0.0,0.0,0.0,0.0,0.0,0.0,0.0,0.0,0.0,0.0,0.0,0.0,0.0,0.0,0.0,0.0,0.0,0.0,0.0,0.0,0.0,0.0,0.0,-1.115,-1.0942,-1.2167,-1.2864,0.0,0.0,-1.3648,-1.3392,-1.428,-1.4731,-1.3955,0.0,0.0,0.0,0.0,0.0,0.0,0.0,0.0,0.0,0.0,0.0,0.0,0.0,0.0,0.0,0.0,0.0,0.0,0.0,0.0,0.0,0.0,0.0,0.0,0.0,0.0,0.0,0.0,0.0,0.0,0.0,0.0,0.0,0.0,0.0,0.0,0.0,0.0,0.0,0.0,0.0,0.0,0.0,0.0,0.0,0.0,0.0,0.0,0.0,0.0,0.0,0.0,0.0,-0.9964,-1.2463,-1.397,-1.5043,-1.5749,-1.6637,-1.6252,-1.4581,-1.4657,-1.397,0.0,0.0,0.0,0.0,0.0,0.0,0.0,0.0,0.0,0.0,0.0,0.0,0.0,0.0,0.0,0.0,0.0,0.0,0.0,0.0,0.0,0.0,0.0,0.0,0.0,0.0,0.0,0.0,-0.5591,-0.6362,-0.6828,0.0,0.0,0.0,0.0,0.0,0.0,0.0,0.0,0.0,0.0,-1.1538,-1.2642,-1.3016,0.0,0.0,-1.4495,-1.491,-1.5144,-1.5296,-1.5256,-1.4724,-1.4744,0.0,0.0,0.0,0.0,0.0,0.0,0.0,0.0,0.0,0.0,0.0,0.0,0.0,0.0,0.0,0.0,0.0,0.0,0.0,0.0,0.0,0.0,0.0,0.0,0.0,0.0,0.0,0.0,0.0,0.0,0.0,0.0,0.0,0.0,0.0,0.0,0.0,0.0,0.0,0.0,0.0,0.0,0.0,0.0,0.0,0.0,0.0,0.0,0.0,0.0,0.0,0.0,-1.039,-1.3097,-1.4657,-1.5778,-1.6432,-1.7301,-1.6883,-1.521,-1.4981,-1.4338,0.0,0.0,0.0,0.0,0.0,0.0,0.0,0.0,0.0,0.0,0.0,0.0,0.0,0.0,0.0,0.0,0.0,0.0,0.0,0.0,0.0,0.0,0.0,0.0,0.0,0.0,0.0,0.0,-0.6047,-0.6745,-0.6649,0.0,0.0,0.0,0.0,0.0,0.0,0.0,0.0,0.0,0.0,-1.248,-1.3907,-1.4113,-1.4362,-1.4995,-1.5438,-1.5767,-1.5944,-1.595,-1.5777,-1.5399,0.0,0.0,0.0,0.0,0.0,0.0,0.0,0.0,0.0,0.0,0.0,0.0,0.0,0.0,0.0,0.0,0.0,0.0,0.0,0.0,0.0,0.0,0.0,0.0,0.0,0.0,0.0,0.0,0.0,0.0,0.0,0.0,0.0,0.0,0.0,0.0,0.0,0.0,0.0,0.0,0.0,0.0,0.0,0.0,0.0,0.0,0.0,0.0,0.0,0.0,0.0,0.0,0.0,0.0,-1.3354,-1.446,-1.5651,-1.7062,-1.6686,-1.6265,-1.5863,-1.5236,-1.444,-1.347,0.0,0.0,0.0,0.0,0.0,0.0,0.0,0.0,0.0,0.0,0.0,0.0,0.0,0.0,0.0,0.0,0.0,0.0,0.0,0.0,0.0,0.0,0.0,0.0,0.0,0.0,-0.4816,-0.6121,-0.6842,0.0,0.0,0.0,0.0,0.0,0.0,0.0,0.0,0.0,0.0,-1.3343,-1.4327,-1.466,-1.5511,-1.5859,-1.5251,-1.5867,-1.6153,-1.5459,-1.6024,-1.6383,0.0,0.0,0.0,0.0,0.0,0.0,0.0,0.0,0.0,0.0,0.0,0.0,0.0,0.0,0.0,0.0,0.0,0.0,0.0,0.0,0.0,0.0,0.0,0.0,0.0,0.0,0.0,-0.5054,-0.476,0.0,0.0,0.0,0.0,0.0,0.0,0.0,0.0,0.0,0.0,0.0,-0.7604,-0.8532,0.0,0.0,0.0,0.0,0.0,0.0,0.0,0.0,0.0,0.0,0.0,0.0,-1.1723,-1.3981,-1.5211,-1.6134,-1.6822,-1.6645,-1.6199,-1.5599,-1.5126,-1.4141,-1.2536,0.0,0.0,0.0,0.0,0.0,0.0,0.0,0.0,0.0,0.0,0.0,0.0,0.0,0.0,0.0,0.0,0.0,0.0,0.0,0.0,0.0,0.0,0.0,0.0,0.0,-0.5229,0.0,0.0,0.0,0.0,0.0,0.0,0.0,0.0,0.0,0.0,0.0,-1.1727,-1.287,-1.3913,-1.4943,-1.6014,-1.6192,-1.652,0.0,0.0,0.0,0.0,0.0,0.0,0.0,0.0,0.0,0.0,0.0,0.0,0.0,0.0,-1.9703,-1.7234,-1.636,-1.587,-1.5505,0.0,0.0,0.0,0.0,0.0,0.0,0.0,0.0,0.0,0.0,0.0,0.0,0.0,0.0,0.0,0.0,-0.4995,0.0,0.0,0.0,0.0,0.0,0.0,0.0,0.0,-0.6669,-0.7716,-0.8543,-0.9679,-1.0383,0.0,-1.1341,-1.0627,0.0,0.0,0.0,0.0,0.0,0.0,0.0,0.0,-1.276,-1.4706,-1.5716,-1.6359,-1.6648,-1.6369,-1.5923,-1.5389,-1.5006,-1.3963,-1.2312,-1.1008,-0.9804,0.0,0.0,0.0,0.0,0.0,0.0,0.0,0.0,0.0,0.0,0.0,0.0,0.0,0.0,0.0,0.0,0.0,0.0,0.0,0.0,0.0,0.0,0.0,-0.5882,0.0,0.0,0.0,0.0,0.0,0.0,0.0,0.0,0.0,-0.9463,-1.1192,-1.2863,-1.4027,-1.4996,-1.5984,-1.7079,0.0,0.0,0.0,0.0,0.0,0.0,0.0,-1.8646,-1.8498,-1.8895,-1.9076,-1.8649,-1.9625,-2.0314,-1.9906,0.0,0.0,-1.8307,-1.7618,-1.7218,-1.6841,-1.7167,-1.7532,-1.7769,-1.83,-1.9031,0.0,0.0,0.0,0.0,0.0,0.0,0.0,0.0,-0.6434,-0.6376,0.0,-0.6,0.0,0.0,0.0,0.0,0.0,0.0,0.0,0.0,-0.7373,-0.8491,-0.8989,-1.0379,-1.1379,-1.2054,-1.3183,-1.2715,-1.0851,-1.0019,0.0,0.0,0.0,0.0,0.0,0.0,-1.4094,-1.5376,-1.595,-1.6348,-1.664,-1.5839,-1.5382,-1.5352,-1.4801,-1.3966,-1.2767,-1.2179,-1.1009,-0.9125,-0.9013,0.0,0.0,0.0,0.0,0.0,0.0,0.0,0.0,0.0,0.0,0.0,0.0,0.0,0.0,0.0,0.0,0.0,0.0,0.0,0.0,-0.5492,0.0,0.0,0.0,0.0,0.0,0.0,0.0,0.0,0.0,0.0,-1.0705,-1.2577,-1.4372,-1.5348,0.0,0.0,0.0,0.0,-1.7668,-1.8512,-1.8433,-1.8575,-1.9454,-1.9911,-2.0014,-1.972,0.0,0.0,-1.993,-2.0386,-2.0534,-1.947,-1.9865,-2.0397,-2.064,-1.9755,-1.9041,-1.8622,-1.8554,-1.8605,-1.8672,-1.9081,-1.975,-0.7614,0.0,0.0,0.0,0.0,-0.6822,-0.7024,-0.7482,-0.7066,-0.6804,-0.6642,-0.6317,0.0,0.0,0.0,0.0,0.0,0.0,-0.6131,-0.6068,-0.8029,-0.908,-0.9473,-1.136,-1.2289,-1.2303,-1.3111,-1.3027,-1.22,-1.2386,-1.1621,-0.9986,0.0,0.0,0.0,0.0,-1.5026,-1.6024,-1.6381,-1.6472,-1.6286,-1.5714,-1.5279,-1.5046,-1.4684,-1.4127,-1.3294,-1.2522,-1.1431,-0.9926,-0.9597,0.0,0.0,0.0,0.0,0.0,0.0,0.0,0.0,0.0,0.0,0.0,0.0,0.0,0.0,0.0,0.0,0.0,0.0,0.0,-0.5751,-0.6247,-0.6864,0.0,0.0,0.0,0.0,0.0,0.0,0.0,0.0,0.0,-1.217,-1.3153,-1.4319,0.0,0.0,-1.7239,-1.7741,-1.8264,-1.8819,-1.9403,0.0,0.0,0.0,-2.0454,-2.0298,-2.0818,-2.1173,-2.1302,-2.0985,-2.0908,-2.0677,-2.0069,-2.0146,-2.0348,-2.0407,-1.9962,-1.9453,-1.9127,-1.9222,-1.9575,-2.0067,-2.0481,-2.1136,-0.7321,-0.7109,-0.7081,-0.7238,-0.7534,-0.7361,-0.7423,-0.7697,-0.7407,-0.7139,-0.6889,-0.6657,-0.6396,-0.6108,-0.5996,0.0,0.0,0.0,-0.6278,-0.6338,-0.8397,-0.9445,-0.9743,-1.1775,-1.2737,-1.2586,-1.3038,-1.3114,-1.2881,-1.361,-1.3209,-1.1734,0.0,0.0,-1.3978,-1.48,-1.5557,-1.6246,-1.6412,-1.6335,-1.6095,-1.5639,-1.5236,-1.4907,-1.4633,-1.4269,-1.3704,-1.3085,-1.2144,-1.0902,-1.0462,-0.9419,0.0,0.0,0.0,0.0,0.0,0.0,0.0,0.0,0.0,0.0,0.0,-0.6808,0.0,0.0,0.0,0.0,-0.5546,-0.5548,-0.5822,-0.6351,0.0,0.0,0.0,0.0,0.0,0.0,0.0,-1.1745,-1.2404,-1.2958,-1.3347,-1.3872,-1.4572,-1.5486,-1.6633,-1.7577,-1.8147,0.0,-1.9664,-2.0345,-2.0418,-2.0753,-2.1735,-2.1428,-2.1254,-2.1775,-2.1859,-2.1722,-2.1439,-2.1225,-2.0908,-2.0446,-2.0292,-2.0292,-2.0292,-2.0103,-1.9898,-1.9675,-1.9795,-2.0083,-2.0527,-2.0793,-2.1347,-0.6527,-0.6449,-0.7191,-0.7624,-0.7824,-0.7828,-0.7762,-0.7633,-0.7452,-0.7321,-0.7176,-0.7015,-0.6965,-0.6939,-0.6643,0.0,0.0,-0.643,-0.6418,-0.6382,-0.8505,-0.9509,-0.9706,-1.1673,-1.271,-1.2802,-1.302,-1.3093,-1.316,-1.3998,-1.4234,-1.3952,-1.3993,-1.4351,-1.5034,-1.5432,-1.5826,-1.6166,-1.6131,-1.6136,-1.6095,-1.5609,-1.5192,-1.4904,-1.4614,-1.4269,-1.3909,-1.3587,-1.292,-1.1806,-1.1442,-1.0499,-0.8959,0.0,0.0,0.0,0.0,0.0,0.0,0.0,0.0,0.0,0.0,0.0,0.0,0.0,0.0,0.0,-0.6226,0.0,-0.5199,-0.6015,0.0,0.0,0.0,-0.8991,-0.979,-1.1179,-1.236,-1.3114,0.0,0.0,0.0,0.0,-1.4995,-1.5755,-1.6954,-1.8003,-1.8571,-1.933,-2.0222,-2.099,-2.128,-2.1595,-2.2365,-2.2508,-2.2449,-2.2525,-2.2568,-2.2234,-2.1559,-2.1353,-2.1071,-2.042,-2.0292,-2.0292,-2.0292,-2.0275,-2.0292,-2.0257,-2.0266,-2.0283,-2.0311,-2.0329,-2.069,-0.5467,-0.5529,-0.6358,-0.7206,-0.7934,-0.7934,-0.7908,-0.7885,-0.7453,-0.7257,-0.7185,-0.6705,-0.6608,-0.6706,-0.6696,-0.6672,-0.6569,-0.6683,-0.6572,-0.6446,-0.776,-0.8814,-0.9653,-1.0979,-1.2014,-1.278,-1.302,-1.3093,-1.3115,-1.3998,-1.4365,-1.4303,-1.4782,-1.519,-1.5449,-1.5873,-1.6102,-1.6129,-1.6131,-1.6136,-1.6079,-1.5394,-1.5024,-1.5038,-1.4215,-1.3572,-1.325,-1.2928,-1.2332,-1.1455,-1.0956,-1.0322,-0.9539,-0.8519,0.0,0.0,0.0,0.0,0.0,0.0,0.0,0.0,0.0,-0.7591,-0.6733,0.0,-0.789,0.0,-0.7097,-0.6685,-0.6481,-0.6522,0.0,0.0,-0.8198,-0.9191,-1.0933,-1.1613,-1.2444,-1.3829,-1.4293,-1.4532,-1.4579,-1.4796,-1.5085,-1.5523,-1.6212,-1.6905,-1.7476,-1.8979,-2.012,-2.0444,-2.1476,-2.234,-2.2509,-2.2603,-2.2577,-2.2603,-2.2362,-2.1961,-2.1482,-2.1174,-2.0848,-2.0394,-2.0292,-2.0292,-2.0292,-2.0292,-2.0292,-2.0292,-2.0292,-2.0292,-2.0292,-2.0292,-2.0428,-0.432,-0.4402,-0.5365,-0.639,-0.7338,-0.7789,-0.7942,-0.7793,-0.7388,-0.7138,-0.6992,-0.6689,-0.6603,-0.6692,-0.6763,-0.6755,-0.6695,-0.6608,-0.6539,-0.6487,-0.7528,-0.8566,-0.9608,-1.0681,-1.1765,-1.2797,-1.2811,-1.2888,-1.3121,-1.3779,-1.4188,-1.4398,-1.509,-1.5535,-1.5785,-1.5827,-1.5815,-1.5805,-1.6004,-1.6162,-1.6319,-1.5792,-1.5307,-1.4897,-1.4261,-1.3592,-1.2819,-1.2726,-1.2325,-1.1489,-1.1046,-1.0527,-0.9797,-0.8998,-0.8534,0.0,0.0,0.0,0.0,0.0,0.0,0.0,0.0,0.0,0.0,0.0,-0.8265,0.0,-0.7517,0.0,-0.6447,-0.6412,-0.6767,-0.7478,-0.8034,-0.9008,-1.0447,-1.1102,-1.2111,-1.3832,-1.4159,-1.4512,-1.51,-1.5323,-1.5464,-1.569,-1.5951,-1.6421,-1.7329,-1.914,-2.0431,-2.0542,-2.1666,-2.2534,-2.2379,-2.2199,-2.2088,-2.2079,-2.1876,-2.161,-2.1251,-2.1011,-2.0754,-2.0377,-2.0292,-2.0292,-2.0292,-2.0292,-2.0292,-2.0292,-2.0292,-2.0292,-2.0292,-2.0292,-2.0337,-0.3146,-0.3199,-0.4287,-0.5184,-0.6105,-0.7297,-0.7743,-0.7646,-0.7338,-0.7039,-0.6745,-0.6745,-0.6745,-0.6745,-0.6745,-0.6745,-0.6745,-0.6489,-0.6387,-0.6487,-0.7378,-0.8421,-0.9657,-1.0534,-1.1619,-1.2748,-1.2527,-1.2612,-1.2956,-1.3363,-1.3832,-1.4286,-1.5006,-1.5631,-1.6046,-1.5763,-1.5555,-1.559,-1.5971,-1.6376,-1.6771,-1.6349,-1.5693,-1.4848,-1.4491,-1.3771,-1.2638,-1.2753,-1.2497,-1.1699,-1.1377,-1.0862,-1.0059,-0.9504,-0.904,0.0,-0.8722,0.0,0.0,0.0,0.0,0.0,0.0,0.0,0.0,-0.9668,-0.8913,-0.7725,-0.7952,-0.7541,-0.6098,-0.6178,-0.642,-0.6726,-0.7631,-0.8527,-0.9376,-1.0277,-1.1581,-1.3347,-1.3673,-1.4266,-1.5393,-1.5785,-1.5885,-1.5885,-1.5849,-1.6172,-1.7246,-1.8933,-2.0169,-2.0456,-2.1348,-2.1695,-2.1805,-2.1499,-2.1207,-2.1191,-2.1131,-2.1043,-2.0716,-2.0589,-2.0538,-2.0332,-2.0292,-2.0292,-2.0292,-2.0292,-2.0292,-2.0292,-2.0292,-2.0292,-2.0292,-2.0292,-2.0292,-0.2099,-0.2173,-0.32,-0.3717,-0.4063,-0.5922,-0.7188,-0.7892,-0.7388,-0.6939,-0.6489,-0.6489,-0.6489,-0.6489,-0.6489,-0.6489,-0.6489,-0.6437,-0.6387,-0.6387,-0.6584,-0.7726,-0.9558,-0.9801,-1.0935,-1.27,-1.2522,-1.2379,-1.2318,-1.269,-1.3132,-1.361,-1.465,-1.5484,0.0,0.0,0.0,0.0,-1.6533,-1.6812,-1.7204,-1.63,-1.5867,-1.5926,-1.4281,0.0,-1.2983,-1.2454,-1.2105,-1.1905,-1.1316,0.0,0.0,0.0,0.0,0.0,0.0,0.0,0.0,0.0,0.0,0.0,-1.0882,-1.0834,-1.067,-1.1008,-1.071,-0.954,-0.9099,-0.8486,-0.7516,-0.6699,-0.6453,-0.6749,-0.7071,-0.793,-0.9495,-0.9998,-1.0811,-1.2438,-1.3452,-1.4164,-1.4546,-1.5298,-1.5891,-1.5879,-1.5704,-1.5688,-1.5891,-1.7163,-1.7914,-1.7951,-1.8879,-1.9823,-2.1292,-2.0692,-2.0103,-2.0144,-1.9925,-1.9803,-1.9753,-1.9463,-1.957,-2.0102,-2.0292,-2.0292,-2.0292,-2.0292,-2.0292,-2.0292,-2.0292,-2.0292,-2.0292,-2.0292,-2.0292,-0.1768,0.0,-0.2298,-0.2777,0.0,-0.4798,-0.6084,-0.7235,-0.7188,-0.6889,-0.6437,-0.6387,-0.6387,-0.6387,-0.6387,-0.6387,-0.6387,-0.6387,-0.6387,-0.6387,-0.6387,-0.7524,-0.9608,-0.9608,-1.0743,-1.2759,-1.2646,-1.2404,-1.2145,-1.2643,-1.3179,-1.3682,-1.4636,-1.5643,-1.6746,-1.7139,-1.7261,-1.7025,-1.7025,-1.727,-1.7659,-1.6965,-1.6423,-1.608,0.0,0.0,0.0,0.0,0.0,0.0,0.0,0.0,0.0,0.0,0.0,-1.0502,-1.0631,-1.0785,-1.0904,-1.1124,-1.1421,-1.1854,-1.2397,-1.2379,-1.1639,-1.2003,-1.177,-1.0637,-1.0309,-0.9512,-0.8091,-0.7423,-0.7017,-0.6839,-0.6852,-0.7397,-0.8446,-0.8741,-0.9406,-1.0969,-1.1778,-1.2622,-1.4046,-1.4648,-1.5298,-1.5767,-1.5662,-1.5441,-1.5429,-1.6285,-1.7154,-1.7687,-1.793,-1.8465,-1.9366,-1.9122,-1.8838,-1.9138,-1.9224,-1.9315,-1.978,-1.967,-1.9729,-2.0192,-2.0292,-2.0292,-2.0292,-2.0292,-2.0292,-2.0292,-2.0292,-2.0292,-2.0292,-2.0292,-2.0419,-0.1758,-0.1712,-0.1701,-0.2188,-0.2987,-0.3781,-0.4929,-0.6234,0.0,0.0,0.0,-0.6387,-0.6387,-0.6387,-0.6387,-0.6387,-0.6387,-0.6387,-0.6387,-0.6387,-0.6387,-0.7428,-0.9308,-0.9509,-1.0641,-1.2462,-1.271,-1.2564,-1.2151,-1.2689,-1.3312,-1.401,-1.472,-1.5884,-1.7424,-1.7838,-1.7838,-1.7514,-1.7514,-1.7676,-1.7991,-1.7505,-1.6897,-1.6208,-1.5786,-1.5085,-1.4156,-1.4114,-1.3823,-1.3283,-1.2638,-1.2011,-1.1378,-1.1129,-1.0986,-1.0974,-1.1216,-1.153,-1.1928,-1.1986,-1.2199,-1.2807,-1.3501,-1.3537,-1.2653,-1.2848,-1.2563,-1.1597,-1.1366,-1.0529,-0.8761,-0.817,-0.7779,-0.7141,-0.6895,-0.6995,-0.7425,-0.7545,-0.8218,-0.9447,-1.004,-1.1048,-1.3347,-1.3965,-1.4467,-1.5446,-1.5429,-1.5176,-1.5013,-1.5556,-1.6481,-1.7267,-1.7113,-1.7179,-1.7622,-1.7367,-1.7397,-1.8001,-1.821,-1.865,-1.9446,-1.9774,-1.9911,-2.0246,-2.0292,-2.0292,-2.0292,-2.0292,-2.0292,-2.0292,-2.0292,-2.0292,-2.0292,-2.0292,-2.051,-0.1806,-0.1794,-0.1742,-0.1767,-0.1964,-0.2739,-0.3924,-0.5429,-0.6634,-0.6886,-0.6387,-0.6387,-0.6387,-0.6387,-0.6387,-0.6387,-0.6387,-0.6387,-0.6387,0.0,-0.6387,-0.7033,-0.8269,-0.916,-1.0243,-1.1419,-1.236,-1.2564,-1.2183,-1.2369,-1.3002,-1.3981,-1.4664,-1.6,-1.7789,-1.7959,-1.7959,-1.7919,-1.7919,-1.7959,-1.7991,-1.6901,-1.6632,-1.717,-1.5581,-1.4991,-1.5571,-1.4362,-1.3644,-1.3527,-1.2337,-1.1573,-1.1455,-1.1118,-1.1033,-1.1221,-1.1433,-1.1745,-1.2199,-1.2258,-1.259,-1.3326,-1.3719,-1.3758,-1.3385,-1.3578,-1.3488,-1.285,-1.2086,-1.137,-1.0681,-0.9103,-0.8124,-0.8035,-0.7341,-0.6995,-0.7421,-0.7642,-0.7956,-0.8437,-0.9452,-1.055,-1.1907,-1.2956,-1.3909,-1.4834,-1.4767,-1.4328,-1.399,-1.4051,-1.463,-1.5175,-1.4906,-1.5252,-1.6394,-1.6447,-1.6177,-1.617,-1.6311,-1.6734,-1.7762,-1.8041,-1.8557,-1.9965,-2.0192,-2.0246,-2.0246,-2.0292,-2.0292,-2.0292,-2.0292,-2.0292,-2.0292,-2.0337,-2.0609,-0.1794,-0.172,-0.1732,-0.1601,-0.1483,-0.2275,-0.3171,-0.4227,-0.5532,-0.6234,-0.6387,-0.6387,-0.6387,-0.6387,-0.6387,-0.6387,-0.6387,-0.6387,-0.6387,-0.6387,-0.6387,-0.6983,-0.8024,-0.911,-1.0141,-1.1214,-1.2138,-1.244,-1.211,-1.2055,-1.2815,-1.4398,-1.5876,-1.7074,-1.7951,-1.7991,-1.7991,-1.7991,-1.7991,-1.7991,-1.7991,-1.7411,-1.7276,-1.7475,-1.6569,-1.6198,-1.6438,-1.5185,-1.4485,-1.4485,-1.2883,-1.2002,-1.2032,-1.1554,-1.1417,-1.1642,-1.1892,-1.2189,-1.2476,-1.2801,-1.3181,-1.3682,-1.3966,-1.4064,-1.3921,-1.3753,-1.3588,-1.334,-1.2657,-1.196,-1.1272,-1.0333,-0.9304,-0.8273,-0.773,-0.7363,-0.7169,-0.7235,-0.749,-0.792,-0.8512,-0.9467,-1.0746,-1.1902,-1.2931,-1.3795,-1.3864,-1.3665,-1.3337,-1.329,-1.3524,-1.4033,-1.3919,-1.4058,-1.4895,-1.4806,-1.4813,-1.5229,-1.5371,-1.5839,-1.6861,-1.7421,-1.8172,-1.8934,-1.95,-1.9874,-1.992,-1.992,-2.0011,-2.0292,-2.0292,-2.0292,-2.0337,-2.0862,-2.1516,-0.1726,-0.1702,-0.1667,-0.1484,-0.1162,-0.1714,-0.2266,-0.2972,-0.4176,-0.5231,-0.5984,-0.6284,-0.6387,-0.6387,-0.6387,-0.6387,-0.6387,-0.6387,-0.6387,-0.6387,-0.6387,-0.683,-0.7677,-0.8715,-0.978,-1.075,-1.1622,-1.2025,-1.1978,-1.1829,-1.2778,-1.4776,-1.6706,-1.7749,-1.7991,-1.7991,-1.7991,-1.7991,-1.7781,-1.77,-1.77,-1.7538,-1.7356,-1.7336,-1.7192,-1.7066,-1.6751,-1.5607,-1.4847,-1.4651,-1.3066,-1.2168,-1.2212,-1.1771,-1.1657,-1.1966,-1.2203,-1.2484,-1.2782,-1.3302,-1.3688,-1.3894,-1.4147,-1.4298,-1.425,-1.3823,-1.3497,-1.3448,-1.3104,-1.2516,-1.1717,-1.1268,-1.0534,-0.8905,-0.8269,-0.7783,-0.7291,-0.6992,-0.7124,-0.7683,-0.7903,-0.8507,-0.9776,-1.0788,-1.1689,-1.2628,-1.3036,-1.3101,-1.304,-1.2905,-1.3007,-1.3201,-1.3394,-1.3443,-1.3394,-1.3539,-1.3865,-1.4567,-1.4615,-1.5181,-1.6116,-1.7095,-1.7654,-1.7762,-1.8519,-1.9072,-1.9263,-1.95,-1.9783,-2.0147,-2.0292,-2.0382,-2.0645,-2.1481,-2.2306,-0.1707,-0.1695,-0.1645,-0.1315,-0.0859,-0.0707,-0.1059,-0.1865,-0.292,-0.3977,-0.4935,-0.5937,-0.6387,-0.6387,-0.6387,-0.6387,-0.6387,-0.6387,-0.6387,-0.6387,-0.6387,-0.6487,-0.6684,-0.7677,-0.8585,-0.9477,-1.0491,-1.1285,-1.1695,-1.1926,-1.299,-1.4866,-1.6034,-1.7066,-1.787,-1.7991,-1.7991,-1.8,-1.7237,-1.6821,-1.6788,-1.6049,-1.5985,-1.6732,-1.6413,-1.6316,-1.6345,-1.4954,-1.3822,-1.3193,-1.2105,-1.1413,-1.144,-1.1359,-1.1537,-1.1952,-1.2043,-1.2357,-1.2997,-1.358,-1.3876,-1.3918,-1.4147,-1.4304,-1.425,-1.3823,-1.3497,-1.3443,-1.3244,-1.2905,-1.2613,-1.1765,-1.0974,-1.0382,-0.9057,-0.8074,-0.8035,-0.7587,-0.7297,-0.7612,-0.7879,-0.8411,-0.9394,-0.9801,-1.0479,-1.1855,-1.2185,-1.2379,-1.2624,-1.2807,-1.2813,-1.291,-1.3001,-1.3098,-1.3152,-1.334,-1.3534,-1.3678,-1.363,-1.4148,-1.4943,-1.5365,-1.5555,-1.6492,-1.7397,-1.8048,-1.8503,-1.9072,-1.9691,-2.0056,-2.0292,-2.051,-2.1132,-2.1882,-2.2359,-0.1704,-0.1699,-0.1641,-0.1313,-0.0758,-0.0353,-0.0353,-0.0757,-0.1764,-0.2519,-0.3073,-0.473,-0.5787,-0.6387,-0.6387,-0.6387,-0.6387,-0.6387,-0.6387,-0.6387,-0.6387,-0.6387,-0.6537,-0.7478,-0.8185,-0.8604,-1.0058,-1.0862,-1.1172,-1.2042,-1.3218,-1.4384,-1.5448,-1.6535,-1.7554,-1.7635,-1.7505,-1.7196,-1.6198,-1.5455,-1.4991,-1.5088,-1.5255,-1.5455,-1.5372,-1.5289,-1.5282,-1.4112,-1.3269,-1.2972,-1.1935,-1.1311,-1.1311,-1.1311,-1.1527,-1.1969,-1.2447,-1.2859,-1.33,-1.3701,-1.3978,-1.4123,-1.41,-1.407,-1.4022,-1.3582,-1.3244,-1.3249,-1.3055,-1.2662,-1.1965,-1.1473,-1.073,-0.96,-0.9057,-0.8619,-0.7733,-0.7982,-0.8081,-0.7892,-0.7939,-0.8134,-0.8627,-0.9069,-0.9805,-1.089,-1.1385,-1.1727,-1.1917,-1.2365,-1.2759,-1.2813,-1.2856,-1.2905,-1.2953,-1.3007,-1.3104,-1.3098,-1.3104,-1.3389,-1.3763,-1.4472,-1.4937,-1.5188,-1.6318,-1.7163,-1.7436,-1.8195,-1.8912,-1.9554,-2.0201,-2.0518,-2.1275,-2.1926,-2.2448,-0.1711,-0.1643,-0.1488,-0.1162,-0.0758,-0.0202,0.0,0.0,-0.116,-0.1563,-0.1814,-0.3575,-0.478,-0.5532,-0.6084,-0.6387,-0.6387,-0.6387,-0.6387,-0.6387,-0.6387,-0.6387,-0.6487,-0.7179,-0.7704,-0.814,-0.9484,-1.0412,-1.0804,-1.1854,-1.3021,-1.3999,-1.4824,-1.5959,-1.7229,-1.7196,-1.6919,-1.6535,-1.533,-1.4287,-1.3698,-1.4077,-1.4455,-1.4587,-1.4747,-1.4706,-1.4496,-1.3444,-1.2729,-1.2516,-1.1725,-1.1311,-1.1311,-1.1311,-1.1527,-1.1986,-1.2648,-1.3129,-1.3371,-1.3641,-1.3862,-1.4034,-1.3877,-1.3786,-1.3684,-1.3147,-1.27,-1.2608,-1.2214,-1.1575,-1.137,-1.0925,-1.0043,-0.8665,-0.8962,-0.8665,-0.7882,-0.818,-0.8233,-0.8038,-0.7988,-0.7988,-0.8088,-0.8528,-0.9118,-0.9854,-1.0449,-1.1086,-1.1224,-1.1868,-1.2408,-1.271,-1.2813,-1.2807,-1.2807,-1.2813,-1.2807,-1.2807,-1.2807,-1.291,-1.3001,-1.3709,-1.4082,-1.419,-1.552,-1.6412,-1.6741,-1.7365,-1.8458,-1.9317,-1.9965,-2.0518,-2.1266,-2.1917,-2.2492,-0.1785,-0.1591,-0.1077,-0.0859,-0.0758,-0.0252,0.0,-0.005,-0.111,-0.1563,-0.1664,-0.2771,-0.3274,-0.3525,-0.5331,-0.6337,-0.6387,-0.6387,-0.6387,-0.6387,-0.6387,-0.6387,-0.6387,-0.6484,-0.6921,-0.7657,-0.8621,-0.9793,-1.1118,-1.1381,-1.2277,-1.3915,-1.4126,-1.5213,-1.6886,-1.6517,-1.6206,-1.6026,-1.4615,-1.3529,-1.3063,-1.2905,-1.3379,-1.4223,-1.4803,-1.4629,-1.3957,-1.2991,-1.2112,-1.1435,-1.1348,-1.1311,-1.1311,-1.1305,-1.1527,-1.2014,-1.25,-1.2899,-1.3163,-1.3372,-1.3516,-1.3485,-1.3437,-1.3443,-1.3141,-1.2209,-1.1663,-1.1663,-1.0538,-1.0145,-1.073,-1.0141,-0.9554,-0.9209,-0.8566,-0.8319,-0.8574,-0.7882,-0.7587,-0.7839,-0.7988,-0.7988,-0.7988,-0.8038,-0.8333,-0.8726,-0.892,-0.9464,-1.0783,-1.1219,-1.1765,-1.2511,-1.2807,-1.2807,-1.2807,-1.2807,-1.2807,-1.2807,-1.2813,-1.2813,-1.2813,-1.2861,-1.291,-1.3292,-1.4573,-1.552,-1.5988,-1.6976,-1.835,-1.9279,-1.992,-2.0555,-2.1266,-2.1917,-2.2403,-0.1667,-0.1413,-0.097,-0.0707,-0.0505,-0.0151,0.0,0.0,-0.0404,-0.0605,-0.0757,-0.1714,-0.2167,-0.2268,-0.3674,-0.473,-0.5386,-0.6084,-0.6387,-0.6387,-0.6387,-0.6387,-0.6387,-0.6387,-0.6517,-0.6961,-0.7837,-0.9183,-1.0689,-1.1295,-1.2267,-1.3362,-1.3639,-1.4426,-1.5594,-1.5643,-1.5164,-1.4441,-1.3613,-1.2899,-1.2277,-1.2412,-1.2741,-1.3082,-1.3294,-1.3039,-1.232,-1.1897,-1.1559,-1.1311,-1.1311,-1.1311,-1.1311,-1.1483,-1.1771,-1.2201,-1.2597,-1.294,-1.331,-1.3435,-1.3195,-1.2597,-1.2403,-1.196,-1.1326,-1.069,-1.0342,-1.0145,-0.9258,-0.8859,-0.8958,-0.8764,-0.8269,-0.7723,-0.7822,-0.7826,-0.7733,-0.7882,-0.8134,-0.7889,-0.7889,-0.7988,-0.7988,-0.7988,-0.7939,-0.7836,-0.8329,-0.9118,-0.9998,-1.0681,-1.1521,-1.2462,-1.2807,-1.2807,-1.2807,-1.2807,-1.2807,-1.2807,-1.2807,-1.2813,-1.2813,-1.2813,-1.2856,-1.3098,-1.41,-1.5242,-1.5994,-1.726,-1.8542,-1.9317,-1.9957,-2.0363,-2.1266,-2.1604,-2.1968,-0.1445,-0.1151,-0.0816,-0.0556,-0.0404,-0.0101,0.0,0.0,0.0,0.0,0.0,-0.0757,-0.1059,-0.1261,-0.2217,-0.3022,-0.3877,-0.5233,-0.6037,-0.6387,-0.6387,-0.6387,-0.6387,-0.6387,-0.6387,-0.6625,-0.777,-0.9236,-1.0774,-1.1465,-1.219,-1.3021,-1.3052,-1.3633,-1.451,-1.4461,-1.3915,-1.3275,-1.2814,-1.2235,-1.1693,-1.2112,-1.2277,-1.2112,-1.2283,-1.2198,-1.1645,-1.1435,-1.1311,-1.1311,-1.1311,-1.1311,-1.1311,-1.1483,-1.1771,-1.2119,-1.2423,-1.2711,-1.3037,-1.2905,-1.2452,-1.1809,-1.1268,-1.0583,-0.9899,-0.941,-0.9114,-0.8863,-0.812,-0.7478,-0.7478,-0.7478,-0.7182,-0.6584,-0.708,-0.7335,-0.6942,-0.7584,-0.7885,-0.7693,-0.7743,-0.7892,-0.7939,-0.7942,-0.769,-0.7235,-0.7832,-0.8379,-0.9065,-0.9998,-1.1077,-1.2068,-1.2613,-1.271,-1.2807,-1.2807,-1.2807,-1.2807,-1.2807,-1.2807,-1.2807,-1.2807,-1.2856,-1.3093,-1.3859,-1.5051,-1.6297,-1.7602,-1.8586,-1.9368,-1.9687,-1.9963,-2.0572,-2.1078,-2.1175,-0.1173,-0.0954,-0.0564,-0.0455,-0.0404,-0.0151,0.0,0.0,0.0,0.0,0.0,0.0,0.0,0.0,-0.121,-0.1663,-0.2217,-0.3927,-0.5334,-0.6187,-0.6337,-0.6387,-0.6387,-0.6387,-0.6387,-0.6531,-0.8313,-0.9972,-1.1306,-1.1645,-1.2043,-1.2402,-1.2539,-1.3052,-1.3971,-1.3264,-1.2863,-1.2687,-1.2155,-1.1607,-1.1435,-1.1989,-1.1983,-1.1521,-1.1989,-1.2277,-1.2277,-1.1645,-1.1311,-1.1311,-1.1311,-1.1311,-1.1267,-1.1219,-1.1408,-1.1641,-1.189,-1.2073,-1.221,-1.1632,-1.1224,-1.0823,-1.0145,-0.9554,-0.916,-0.8467,-0.7975,-0.7822,-0.7179,-0.6487,-0.6537,-0.6537,-0.6537,-0.6387,-0.6587,-0.6637,-0.6742,-0.6795,-0.6995,-0.7444,-0.7593,-0.7693,-0.7842,-0.7743,-0.7441,-0.7238,-0.7141,-0.7388,-0.8124,-0.9061,-0.9993,-1.1126,-1.1965,-1.2414,-1.2608,-1.2807,-1.2807,-1.2807,-1.2807,-1.2807,-1.2807,-1.2807,-1.2807,-1.305,-1.41,-1.5289,-1.6947,-1.8149,-1.8528,-1.9175,-1.9331,-1.946,-1.9799,-2.0157,-2.0031,-0.1439,-0.1168,-0.1026,-0.0707,-0.0404,-0.0303,-0.0202,0.0,0.0,0.0,0.0,0.0,0.0,0.0,-0.0404,-0.0908,-0.1714,-0.3073,-0.4279,-0.5284,-0.6037,-0.6387,-0.6387,-0.6387,-0.6387,-0.6778,-0.8519,-0.9642,-1.0238,-1.1512,-1.2437,-1.2742,-1.2654,-1.2752,-1.3058,-1.2709,-1.232,-1.1854,-1.1559,-1.1348,-1.1305,-1.1521,-1.1521,-1.1354,-1.1521,-1.1645,-1.165,-1.1435,-1.1311,-1.1311,-1.1311,-1.1311,-1.1176,-1.0694,-1.0581,-1.0873,-1.0359,-1.0212,-1.0542,-1.0329,-0.9797,-0.9156,-0.8662,-0.812,-0.7524,-0.7179,-0.6933,-0.6933,-0.6584,-0.6387,-0.6387,-0.6387,-0.6387,-0.6387,-0.6387,-0.6437,-0.6539,-0.6692,-0.6942,-0.7238,-0.7338,-0.7388,-0.7441,-0.7338,-0.7241,-0.6992,-0.6845,-0.7092,-0.7826,-0.8273,-0.9304,-1.0828,-1.1468,-1.2063,-1.2462,-1.2764,-1.2861,-1.2856,-1.2807,-1.2807,-1.2807,-1.2807,-1.2807,-1.3286,-1.434,-1.5602,-1.7306,-1.8178,-1.8475,-1.8823,-1.8989,-1.9079,-1.9077,-1.8927,-1.8715,-0.1226,-0.0956,-0.0821,-0.0556,-0.0252,-0.0252,-0.0151,0.0,0.0,0.0,0.0,0.0,0.0,0.0,0.0,0.0,-0.111,-0.252,-0.3575,-0.4381,-0.5784,-0.6387,-0.6387,-0.6387,-0.6933,-0.7726,-0.8962,-0.9905,-1.0491,-1.1679,-1.248,-1.2519,-1.2427,-1.2246,-1.2216,-1.2068,-1.1731,-1.1348,-1.1311,-1.1311,-1.1311,-1.1311,-1.1311,-1.1311,-1.1311,-1.1311,-1.1311,-1.1311,-1.1311,-1.1224,-1.0997,-1.0646,-1.0299,-0.9685,-0.9516,-0.9705,-0.9483,-0.9269,-0.9483,-0.9263,-0.8764,-0.8124,-0.7627,-0.7179,-0.6534,-0.6387,-0.6387,-0.6387,-0.6387,-0.6387,-0.6387,-0.6387,-0.6387,-0.6387,-0.6387,-0.6387,-0.6437,-0.6539,-0.6742,-0.6989,-0.7042,-0.7089,-0.7188,-0.7089,-0.6992,-0.6845,-0.6745,-0.6742,-0.7381,-0.7776,-0.8962,-1.0092,-1.0979,-1.1624,-1.2322,-1.2667,-1.291,-1.291,-1.2856,-1.2807,-1.2807,-1.2813,-1.2813,-1.348,-1.4436,-1.552,-1.7034,-1.747,-1.7851,-1.8209,-1.8458,-1.8029,-1.7741,-1.7439,-1.721,-0.0746,-0.0424,-0.0154,-0.0101,-0.005,-0.005,-0.005,0.0,0.0,0.0,0.0,0.0,0.0,0.0,0.0,-0.0151,-0.0505,-0.2268,-0.3374,-0.4028,-0.5381,-0.6387,-0.6387,-0.6387,-0.7329,-0.8913,-0.9456,-1.0498,-1.1755,-1.2273,-1.2204,-1.195,-1.1919,-1.1656,-1.156,-1.137,-1.1354,-1.1311,-1.1311,-1.1311,-1.1311,-1.1311,-1.1311,-1.1311,-1.1311,-1.1311,-1.1311,-1.1176,-1.1132,-1.1089,-1.0294,-0.9506,-0.8759,-0.85,-0.8464,-0.852,-0.876,-0.8738,-0.8741,-0.8261,-0.7872,-0.7723,-0.7033,-0.6387,-0.6437,-0.6387,-0.6387,-0.6387,-0.6387,-0.6387,-0.6387,-0.6387,-0.6387,-0.6387,-0.6387,-0.6387,-0.6387,-0.6387,-0.6539,-0.6742,-0.6792,-0.6842,-0.7039,-0.6892,-0.6792,-0.6692,-0.6589,-0.6537,-0.6684,-0.7229,-0.7925,-0.8962,-1.0096,-1.0841,-1.1438,-1.237,-1.257,-1.2516,-1.2662,-1.2856,-1.2807,-1.2813,-1.305,-1.3721,-1.4334,-1.5466,-1.6227,-1.6617,-1.7078,-1.7484,-1.7303,-1.6695,-1.6322,-1.6097,-1.5884,-0.1005,-0.073,-0.0612,-0.0455,-0.0303,-0.0303,-0.0151,0.0,0.0,0.0,0.0,0.0,0.0,0.0,0.0,-0.0404,-0.1311,-0.2569,-0.3677,-0.4481,-0.5734,-0.6387,-0.6387,-0.6437,-0.7129,-0.8467,-0.9406,-1.0271,-1.1492,-1.2309,-1.249,-1.2231,-1.2005,-1.1828,-1.1628,-1.1386,-1.1316,-1.1311,-1.1311,-1.1311,-1.1311,-1.1311,-1.1311,-1.1311,-1.1267,-1.1262,-1.1219,-1.0603,-1.025,-1.0207,-0.9375,-0.8807,-0.8368,-0.7848,-0.7501,-0.7573,-0.7194,-0.6979,-0.7039,-0.6987,-0.6825,-0.6833,-0.6637,-0.6437,-0.6387,-0.6387,-0.6387,-0.6387,-0.6387,-0.6387,-0.6387,-0.6387,-0.6387,-0.6387,-0.6387,-0.6387,-0.6387,-0.6387,-0.6437,-0.6489,-0.6539,-0.6589,-0.6587,-0.6589,-0.6539,-0.6539,-0.6489,-0.6437,-0.6534,-0.6634,-0.7229,-0.8081,-0.9069,-0.9764,-1.06,-1.1634,-1.2127,-1.2078,-1.2365,-1.2953,-1.2856,-1.2807,-1.319,-1.3763,-1.3956,-1.4854,-1.5236,-1.5574,-1.6116,-1.6684,-1.6081,-1.5487,-1.5204,-1.4951,-1.4761,-0.0844,-0.0674,-0.0509,-0.0353,-0.0252,-0.0252,-0.0151,0.0,0.0,0.0,0.0,0.0,0.0,0.0,0.0,0.0,-0.1663,-0.2719,-0.3776,-0.4832,-0.5884,-0.6387,-0.6487,-0.6781,-0.7624,-0.8665,-0.9747,-1.0832,-1.1814,-1.2511,-1.2581,-1.2269,-1.2164,-1.1881,-1.1537,-1.1391,-1.1311,-1.1311,-1.1311,-1.1311,-1.1311,-1.1311,-1.1311,-1.1181,-1.0954,-1.0603,-1.0077,-0.92,-0.8719,-0.8632,-0.8193,-0.7753,-0.7319,-0.6892,-0.6638,-0.6679,-0.6341,-0.6248,-0.6317,-0.6372,-0.6381,-0.6437,-0.6387,-0.6387,-0.6387,-0.6387,-0.6387,-0.6387,-0.6387,-0.6387,-0.6387,-0.6387,-0.6387,-0.6387,-0.6387,-0.6387,-0.6387,-0.6387,-0.6387,-0.6387,-0.6387,-0.6387,-0.6387,-0.6387,-0.6387,-0.6437,-0.6437,-0.6387,-0.6437,-0.6437,-0.6634,-0.7534,-0.8379,-0.9164,-1.0105,-1.1135,-1.1775,-1.1727,-1.2073,-1.2705,-1.2759,-1.2662,-1.3001,-1.3383,-1.3667,-1.3981,-1.4362,-1.4779,-1.5235,-1.5434,-1.4858,-1.4481,-1.4237,-1.3971,-1.3724,-0.0369,-0.031,-0.0102,0.0,0.0,0.0,0.0,0.0,0.0,0.0,0.0,0.0,0.0,0.0,0.0,-0.0656,-0.1865,-0.2821,-0.3927,-0.4983,-0.5937,-0.6387,-0.6484,-0.708,-0.817,-0.9361,-1.0583,-1.157,-1.2301,-1.2737,-1.2526,-1.2208,-1.2078,-1.1774,-1.1429,-1.1316,-1.1311,-1.1311,-1.1311,-1.1311,-1.1224,-1.1132,-1.0954,-1.0868,-1.012,-0.9331,-0.8544,-0.7713,-0.7231,-0.7007,-0.6966,-0.6567,-0.5922,-0.5884,-0.5955,-0.6054,-0.6225,-0.6311,-0.6301,-0.6391,-0.6387,-0.6387,-0.6387,-0.6387,-0.6387,-0.6387,-0.6387,-0.6387,-0.6387,-0.6387,-0.6387,-0.6387,-0.6387,-0.6387,-0.6387,-0.6387,-0.6387,-0.6387,-0.6387,-0.6387,-0.6387,-0.6387,-0.6387,-0.6387,-0.6387,-0.6387,-0.6387,-0.6387,-0.6387,-0.6437,-0.6637,-0.7089,-0.7879,-0.8662,-0.9649,-1.0685,-1.1179,-1.1477,-1.1873,-1.2311,-1.2414,-1.2462,-1.2662,-1.2942,-1.3208,-1.3398,-1.3684,-1.4074,-1.4423,-1.4357,-1.3883,-1.3662,-1.3415,-1.3082,-1.279,-0.0262,-0.0102,-0.0051,0.0,0.0,0.0,0.0,0.0,0.0,0.0,0.0,0.0,0.0,0.0,0.0,-0.1009,-0.272,-0.3324,-0.4178,-0.5984,-0.6237,-0.6387,-0.6437,-0.6734,-0.7822,-0.9209,-0.9805,-1.0984,-1.229,-1.2528,-1.2344,-1.2127,-1.191,-1.1639,-1.1359,-1.1224,-1.1267,-1.1267,-1.1262,-1.1132,-1.0959,-1.0472,-1.0164,-1.0033,-0.9244,-0.8368,-0.7577,-0.7228,-0.6745,-0.6216,-0.5994,-0.5952,-0.5799,-0.5847,-0.5947,-0.6051,-0.6226,-0.6309,-0.6382,-0.6418,-0.6387,-0.6387,-0.6387,-0.6387,-0.6387,-0.6387,-0.6387,-0.6387,-0.6387,-0.6387,-0.6387,-0.6387,-0.6387,-0.6387,-0.6387,-0.6387,-0.6387,-0.6387,-0.6387,-0.6387,-0.6387,-0.6387,-0.6387,-0.6387,-0.6387,-0.6387,-0.6387,-0.6387,-0.6387,-0.6387,-0.6639,-0.6942,-0.7285,-0.7975,-0.852,-0.9604,-1.0489,-1.113,-1.1668,-1.2165,-1.2214,-1.2313,-1.2587,-1.2689,-1.2672,-1.2936,-1.3147,-1.3019,-1.327,-1.3118,-1.3108,-1.304,-1.2912,-1.2412,-1.2283,-0.0104,0.0,0.0,0.0,0.0,0.0,0.0,0.0,0.0,0.0,0.0,0.0,0.0,-0.0707,-0.0858,-0.1915,-0.3676,-0.4529,-0.5281,-0.6237,-0.6387,-0.6387,-0.6387,-0.6537,-0.7329,-0.8814,-0.9993,-1.1077,-1.1813,-1.2278,-1.2296,-1.2094,-1.1806,-1.1591,-1.1207,-1.0868,-1.0603,-1.0472,-1.0207,-0.9994,-0.9859,-0.9554,-0.8938,-0.8627,-0.8061,-0.7404,-0.6523,-0.6438,-0.6171,-0.5822,-0.5691,-0.5691,-0.5723,-0.589,-0.6015,-0.6094,-0.626,-0.6358,-0.6373,-0.6387,-0.6387,-0.6387,-0.6387,-0.6387,-0.6387,-0.6387,-0.6387,-0.6387,-0.6387,-0.6387,-0.6387,-0.6387,-0.6387,-0.6387,-0.6387,-0.6387,-0.6387,-0.6387,-0.6387,-0.6387,-0.6387,-0.6387,-0.6387,-0.6387,-0.6387,-0.6387,-0.6387,-0.6387,-0.6387,-0.6437,-0.6539,-0.6792,-0.6889,-0.7238,-0.7534,-0.8425,-0.9752,-1.0538,-1.137,-1.1965,-1.236,-1.2426,-1.2581,-1.2575,-1.2505,-1.2527,-1.2666,-1.2445,-1.2466,-1.2713,-1.2814,-1.268,-1.2577,-1.2412,-1.2369,0.0,0.0,0.0,0.0,0.0,0.0,0.0,0.0,0.0,0.0,0.0,0.0,-0.0555,-0.1361,-0.1513,-0.2821,-0.4531,-0.5734,-0.6287,-0.6337,-0.6387,-0.6387,-0.6387,-0.6537,-0.6833,-0.7922,-0.9698,-1.0828,-1.1405,-1.1903,-1.2035,-1.1833,-1.1529,-1.0999,-1.0676,-1.0168,-0.9685,-0.9593,-0.9113,-0.8807,-0.8632,-0.8456,-0.7885,-0.7139,-0.6918,-0.6567,-0.5997,-0.5822,-0.5733,-0.5688,-0.5568,-0.5486,-0.5583,-0.5901,-0.6086,-0.6097,-0.6295,-0.6363,-0.6381,-0.6387,-0.6387,-0.6387,-0.6387,-0.6387,-0.6387,-0.6387,-0.6387,-0.6387,-0.6387,-0.6387,-0.6387,-0.6387,-0.6387,-0.6387,-0.6387,-0.6387,-0.6387,-0.6387,-0.6387,-0.6387,-0.6387,-0.6387,-0.6387,-0.6387,-0.6387,-0.6387,-0.6387,-0.6387,-0.6387,-0.6437,-0.6539,-0.6642,-0.6792,-0.6892,-0.7141,-0.7185,-0.8517,-0.9436,-1.0462,-1.1269,-1.1953,-1.2347,-1.2342,-1.2414,-1.24,-1.2396,-1.2412,-1.2436,-1.247,-1.2618,-1.2705,-1.2662,-1.2577,-1.2491,-1.2406,0.0,0.0,0.0,0.0,0.0,0.0,0.0,0.0,0.0,0.0,0.0,0.0,-0.0606,-0.1412,-0.1613,-0.2821,-0.4782,-0.5937,-0.6387,-0.6387,-0.6387,-0.6387,-0.6387,-0.6437,-0.6537,-0.7129,-0.881,-1.0243,-1.0983,-1.1764,-1.159,-1.0953,-1.0429,-0.9906,-0.9354,-0.8807,-0.8719,-0.8675,-0.8368,-0.8237,-0.8061,-0.7621,-0.6962,-0.6174,-0.6083,-0.5952,-0.5824,-0.5691,-0.5688,-0.5652,-0.4958,-0.4624,-0.4741,-0.5442,-0.5944,-0.605,-0.6257,-0.6387,-0.6387,-0.6387,-0.6387,-0.6387,-0.6387,-0.6387,-0.6387,-0.6387,-0.6387,-0.6387,-0.6387,-0.6387,-0.6387,-0.6387,-0.6387,-0.6387,-0.6387,-0.6387,-0.6387,-0.6387,-0.6387,-0.6387,-0.6387,-0.6387,-0.6387,-0.6387,-0.6387,-0.6387,-0.6387,-0.6387,-0.6387,-0.6387,-0.6437,-0.6539,-0.6692,-0.6742,-0.6895,-0.6739,-0.7176,-0.7987,-0.8943,-0.9986,-1.0789,-1.1745,-1.2099,-1.2149,-1.2208,-1.2204,-1.2236,-1.2351,-1.2486,-1.2631,-1.2662,-1.2705,-1.24,-1.21,-1.2186,0.0,0.0,0.0,0.0,0.0,0.0,0.0,0.0,0.0,0.0,0.0,0.0,-0.0606,-0.1513,-0.2268,-0.3626,-0.5334,-0.6087,-0.6387,-0.6387,-0.6387,-0.6387,-0.6387,-0.6387,-0.6387,-0.6833,-0.8021,-0.9061,-0.962,-1.0834,-1.0762,-0.9997,-0.9427,-0.8992,-0.8472,-0.8061,-0.7841,-0.7713,-0.736,-0.7095,-0.7095,-0.6571,-0.6086,-0.5866,-0.5688,-0.5688,-0.5699,-0.5758,-0.5515,-0.5011,-0.461,-0.4131,-0.4109,-0.4596,-0.5406,-0.548,-0.6041,-0.6387,-0.6387,-0.6387,-0.6387,-0.6387,-0.6387,-0.6387,-0.6387,-0.6387,-0.6387,-0.6387,-0.6387,-0.6387,-0.6387,-0.6387,-0.6387,-0.6387,-0.6387,-0.6387,-0.6387,-0.6387,-0.6387,-0.6387,-0.6387,-0.6387,-0.6387,-0.6387,-0.6387,-0.6387,-0.6387,-0.6387,-0.6387,-0.6387,-0.6387,-0.6439,-0.6539,-0.6592,-0.6684,-0.6617,-0.6548,-0.7115,-0.784,-0.8883,-0.9875,-1.0968,-1.162,-1.1877,-1.1914,-1.2037,-1.2133,-1.2273,-1.2441,-1.2619,-1.2662,-1.2571,-1.2057,-1.1794,-1.1837,0.0,0.0,0.0,0.0,0.0,0.0,0.0,0.0,0.0,0.0,0.0,0.0,-0.0606,-0.1714,-0.3022,-0.458,-0.6337,-0.6387,-0.6387,-0.6387,-0.6387,-0.6387,-0.6387,-0.6387,-0.6437,-0.6584,-0.7577,-0.7971,-0.8534,-0.9694,-0.9716,-0.9064,-0.8566,-0.8173,-0.7742,-0.7095,-0.6877,-0.6571,-0.6174,-0.5733,-0.5688,-0.5688,-0.5688,-0.5688,-0.5688,-0.5688,-0.5696,-0.5478,-0.5094,-0.4472,-0.3946,-0.3543,-0.3202,-0.3864,-0.4475,-0.4835,-0.5792,-0.6276,-0.6387,-0.6387,-0.6387,-0.6387,-0.6387,-0.6387,-0.6387,-0.6387,-0.6387,-0.6387,-0.6387,-0.6387,-0.6387,-0.6387,-0.6387,-0.6387,-0.6387,-0.6387,-0.6387,-0.6387,-0.6387,-0.6387,-0.6387,-0.6387,-0.6387,-0.6387,-0.6387,-0.6387,-0.6387,-0.6387,-0.6387,-0.6387,-0.6387,-0.6387,-0.6437,-0.6437,-0.6473,-0.6537,-0.6651,-0.6948,-0.7687,-0.8547,-0.9393,-1.0313,-1.083,-1.1273,-1.1822,-1.1909,-1.2051,-1.224,-1.2491,-1.2662,-1.2705,-1.24,-1.1843,-1.1408,-1.1273,0.0,0.0,0.0,0.0,0.0,0.0,0.0,0.0,0.0,0.0,0.0,0.0,-0.0606,-0.1916,-0.3626,-0.5133,-0.6087,-0.6387,-0.6487,-0.6587,-0.6487,-0.6487,-0.6487,-0.6387,-0.6387,-0.6534,-0.7378,-0.7922,-0.8082,-0.8885,-0.8815,-0.7998,-0.7519,-0.7056,-0.6453,-0.6219,-0.5866,-0.5866,-0.5777,-0.5688,-0.5688,-0.5688,-0.5688,-0.5688,-0.5688,-0.5688,-0.5607,-0.5155,-0.4497,-0.4095,-0.263,-0.23,-0.2819,-0.3173,-0.3907,-0.4768,-0.5679,-0.6387,-0.6287,-0.6337,-0.6287,-0.6237,-0.6237,-0.6387,-0.6087,-0.6034,-0.6034,-0.6387,-0.6287,-0.6237,-0.6187,-0.6337,-0.6387,-0.6387,-0.6387,-0.6387,-0.6387,-0.6387,-0.6387,-0.6387,-0.6387,-0.6387,-0.6387,-0.6387,-0.6387,-0.6387,-0.6387,-0.6387,-0.6387,-0.6387,-0.6387,-0.6387,-0.6379,-0.6376,-0.6432,-0.65,-0.6566,-0.6858,-0.7384,-0.807,-0.8669,-0.9351,-1.0016,-1.0539,-1.1151,-1.1788,-1.2023,-1.224,-1.2534,-1.2528,-1.2314,-1.1972,-1.1499,-1.1106,-1.0582,0.0,0.0,0.0,0.0,0.0,0.0,0.0,0.0,0.0,0.0,0.0,0.0,-0.0908,-0.2469,-0.3626,-0.483,-0.6087,-0.6387,-0.6783,-0.6933,-0.6783,-0.6734,-0.7033,-0.6736,-0.6387,-0.6537,-0.6783,-0.6983,-0.7381,-0.7816,-0.7862,-0.6973,-0.6608,-0.634,-0.5746,-0.5691,-0.5733,-0.5733,-0.5688,-0.5688,-0.5688,-0.5688,-0.5688,-0.5688,-0.5688,-0.5646,-0.5402,-0.4915,-0.4101,-0.35,-0.2107,-0.1372,-0.1724,-0.239,-0.3473,-0.3827,-0.4883,-0.5436,-0.5536,-0.6037,-0.5934,-0.5634,-0.5434,-0.5183,-0.483,-0.468,-0.468,-0.4578,-0.458,-0.488,-0.5384,-0.5484,-0.5884,-0.6137,-0.6337,-0.6387,-0.6387,-0.6387,-0.6387,-0.6387,-0.6337,-0.6137,-0.6034,-0.5984,-0.6084,-0.6387,-0.6337,-0.6287,-0.6337,-0.6387,-0.6387,-0.6387,-0.6373,-0.6363,-0.6448,-0.6491,-0.6449,-0.662,-0.6873,-0.7453,-0.7739,-0.8311,-0.9046,-0.9784,-1.0474,-1.1105,-1.1731,-1.2112,-1.2277,-1.21,-1.1886,-1.1192,-1.0501,-0.9758,-0.9235,0.0,0.0,0.0,0.0,0.0,0.0,0.0,0.0,0.0,0.0,0.0,0.0,-0.1211,-0.2821,-0.3374,-0.4427,-0.6337,-0.6387,-0.7083,-0.7329,-0.7129,-0.708,-0.7279,-0.6983,-0.6387,-0.6387,-0.6487,-0.6537,-0.6685,-0.6915,-0.6914,-0.6128,-0.6103,-0.589,-0.5763,-0.5688,-0.5688,-0.5688,-0.5688,-0.5688,-0.5688,-0.5688,-0.551,-0.5377,-0.5332,-0.525,-0.4892,-0.4064,-0.312,-0.2569,-0.1605,-0.0991,-0.1439,-0.2501,-0.3673,-0.4178,-0.4983,-0.4684,-0.4732,-0.488,-0.5031,-0.473,-0.4381,-0.413,-0.3577,-0.3225,-0.3225,-0.3475,-0.3425,-0.3828,-0.423,-0.4582,-0.5183,-0.5734,-0.6187,-0.6287,-0.6337,-0.6187,-0.5937,-0.5687,-0.5584,-0.5432,-0.5381,-0.5381,-0.5682,-0.6184,-0.6284,-0.6184,-0.6274,-0.6315,-0.6385,-0.6369,-0.6312,-0.6293,-0.6295,-0.6365,-0.6338,-0.6395,-0.6645,-0.6759,-0.6939,-0.7473,-0.8168,-0.8899,-0.968,-1.012,-1.0593,-1.1289,-1.1935,-1.1671,-1.1235,-1.0193,-0.9366,-0.8627,-0.8149,0.0,0.0,0.0,0.0,0.0,0.0,0.0,0.0,0.0,0.0,0.0,0.0,-0.121,-0.2771,-0.3374,-0.4379,-0.6387,-0.6387,-0.7083,-0.7329,-0.7083,-0.7129,-0.7279,-0.6983,-0.6287,-0.6237,-0.5984,-0.5984,-0.6231,-0.5825,-0.6029,-0.6067,-0.5893,-0.5791,-0.5721,-0.5688,-0.5688,-0.5688,-0.5688,-0.5688,-0.5688,-0.5555,-0.524,-0.4612,-0.435,-0.4017,-0.3122,-0.2405,-0.1926,-0.1685,-0.1028,-0.1194,-0.2049,-0.3013,-0.4076,-0.4728,-0.4682,-0.418,-0.3726,-0.3626,-0.3475,-0.3374,-0.3274,-0.3173,-0.267,-0.2972,-0.3123,-0.2822,-0.2571,-0.2923,-0.3475,-0.4079,-0.4329,-0.4883,-0.5233,-0.5482,-0.5632,-0.5784,-0.5484,-0.5085,-0.4782,-0.463,-0.4227,-0.4126,-0.4628,-0.5129,-0.5579,-0.5529,-0.5981,-0.6108,-0.6255,-0.6257,-0.6173,-0.613,-0.6097,-0.6117,-0.6097,-0.6125,-0.6283,-0.6152,-0.6058,-0.6656,-0.7401,-0.7929,-0.8632,-0.9026,-0.9462,-1.0019,-1.0496,-1.089,-1.0544,-0.9453,-0.8627,-0.7969,-0.7621,0.0,0.0,0.0,0.0,0.0,0.0,0.0,0.0,0.0,0.0,0.0,0.0,-0.121,-0.272,-0.3324,-0.4379,-0.6187,-0.6387,-0.708,-0.7329,-0.7129,-0.7129,-0.7129,-0.6431,-0.5384,-0.5284,-0.488,-0.4429,-0.4359,-0.4502,-0.4726,-0.4946,-0.5438,-0.5711,-0.5696,-0.5644,-0.5599,-0.5599,-0.5644,-0.5688,-0.5555,-0.506,-0.4656,-0.4387,-0.3583,-0.3369,-0.2855,-0.1927,-0.1547,-0.1294,-0.1022,-0.158,-0.2402,-0.3362,-0.4171,-0.462,-0.4171,-0.342,-0.267,-0.272,-0.2922,-0.2267,-0.2167,-0.2017,0.0,0.0,0.0,-0.1211,0.0,-0.1664,-0.2267,-0.2569,-0.292,-0.3626,-0.4178,-0.4528,-0.4728,-0.488,-0.458,-0.3977,-0.3827,-0.3676,-0.3222,-0.272,-0.3373,-0.4024,-0.4475,-0.4964,-0.5461,-0.5892,-0.5983,-0.6154,-0.6072,-0.601,-0.5977,-0.5926,-0.5874,-0.591,-0.5941,-0.5838,-0.5777,-0.5997,-0.67,-0.7139,-0.7621,-0.8149,-0.854,-0.8711,-0.91,-0.9579,-0.9366,-0.8715,-0.7969,-0.7401,-0.7228,0.0303,0.0,0.0,0.0,0.0,0.0,0.0,0.0,0.0,0.0,0.0,0.0,-0.116,-0.272,-0.3275,-0.4379,-0.5934,-0.6487,-0.708,-0.7229,-0.7083,-0.6977,-0.6675,-0.5929,-0.4732,-0.428,-0.3728,-0.3324,-0.3417,-0.31,-0.3483,-0.4087,-0.458,-0.4905,-0.5646,-0.5374,-0.5149,-0.4926,-0.4882,-0.4882,-0.4656,-0.4253,-0.3583,-0.3358,-0.2688,-0.2209,-0.1816,-0.115,-0.0934,-0.0903,-0.0965,-0.1416,-0.232,-0.3235,-0.3894,-0.3695,-0.3246,-0.2702,-0.2113,-0.1764,-0.1965,-0.1261,-0.111,-0.0706,0.0,0.0,0.0,0.0,0.0,0.0,0.0,-0.1562,-0.2016,-0.2771,-0.3374,-0.3776,-0.3726,-0.3776,-0.3324,-0.2821,-0.272,0.0,0.0,0.0,-0.2052,-0.2857,-0.3624,-0.4246,-0.4925,-0.5349,-0.5658,-0.5821,-0.5972,-0.5918,-0.5866,-0.5836,-0.5809,-0.5793,-0.5836,-0.583,-0.5819,-0.5952,-0.6041,-0.6438,-0.6877,-0.7316,-0.7577,-0.7749,-0.7965,-0.8313,-0.8053,-0.7885,-0.7709,-0.7228,-0.7183,0.0908,0.0,0.0,0.0,0.0,0.0,0.0,0.0,0.0,0.0,0.0,0.0,-0.1109,-0.272,-0.3073,-0.4329,-0.5834,-0.6334,-0.6883,-0.7332,-0.6584,-0.6426,-0.5922,-0.5077,-0.3778,-0.3376,-0.2821,-0.262,-0.287,-0.252,-0.2719,-0.301,-0.3391,-0.3987,-0.5419,-0.4746,-0.3896,-0.3181,-0.3181,-0.3269,-0.3269,-0.309,-0.2509,-0.2061,-0.1614,-0.1129,-0.0729,0.0,0.0,0.0,0.0,-0.1196,-0.2498,-0.3164,-0.3769,-0.4063,-0.3476,-0.2666,-0.1656,-0.0705,0.0,0.0,0.0,0.0,0.0,0.0,0.0,0.0,0.0,0.0,0.0,0.0,0.0,-0.1706,-0.2356,-0.2565,-0.2464,-0.2469,-0.1965,-0.171,-0.156,0.0,0.0,0.0,0.0,-0.1596,-0.2612,-0.3434,-0.4238,-0.4895,-0.524,-0.5629,-0.5871,-0.5841,-0.5798,-0.5768,-0.5699,-0.5688,-0.5733,-0.5733,-0.5733,-0.5777,-0.5866,-0.5955,-0.6216,-0.6745,-0.6741,-0.6741,-0.7092,-0.7441,-0.7401,-0.7231,-0.7139,-0.7095,-0.7095,0.0958,0.0,0.0,0.0,0.0,0.0,0.0,0.0,0.0,0.0,0.0,0.0,0.0,-0.1965,-0.3021,-0.4028,-0.5233,-0.6287,-0.6833,-0.6734,-0.5834,-0.5482,-0.4878,-0.3723,-0.2571,-0.2017,-0.1613,0.0,-0.1009,0.0,0.0,-0.1837,-0.2424,-0.3189,-0.3628,-0.3449,-0.3135,-0.2956,-0.2956,-0.2911,-0.2778,-0.224,-0.1704,-0.1301,-0.0808,0.0,0.0,0.0,0.0,0.0,0.0,-0.1266,-0.2315,-0.297,-0.355,-0.3265,-0.2546,-0.2262,-0.1067,0.0,0.0,0.0,0.0,0.0,0.0,0.0,0.0,0.0,0.0,0.0,0.0,0.0,0.0,0.0,-0.0842,-0.0849,-0.0852,-0.0856,-0.0706,-0.0603,-0.0451,0.0,0.0,0.0,0.0,0.0,-0.1601,-0.2554,-0.3403,-0.4264,-0.4905,-0.5433,-0.5729,-0.5712,-0.5688,-0.5688,-0.5688,-0.5688,-0.5688,-0.5733,-0.5733,-0.5688,-0.5733,-0.5822,-0.5952,-0.6083,-0.6038,-0.6035,-0.639,-0.6612,-0.652,-0.6789,-0.7054,-0.7095,-0.7095,0.1312,0.0,0.0,0.0,0.0,0.0,0.0,0.0,0.0,0.0,0.0,0.0,-0.0606,-0.1664,-0.272,-0.3778,-0.4784,-0.5436,-0.5837,-0.5684,-0.4732,-0.4078,-0.3224,-0.2368,-0.1664,0.0,0.0,0.0,0.0,0.0,0.0,-0.0973,0.0,-0.1709,-0.1928,-0.2061,-0.2152,-0.1883,-0.1614,-0.1659,-0.1569,-0.1301,-0.0942,-0.0718,0.0,0.0,0.0,0.0,0.0,0.0,0.0,0.0,-0.1907,-0.2438,-0.2866,-0.2119,-0.1519,-0.128,-0.0379,0.0,0.0,0.0,0.0,0.0,0.0,0.0,0.0,0.0,0.0,0.0,0.0,0.0,0.0,0.0,0.0,0.0,0.0,0.0,0.0,0.0,0.0,0.0,0.0,0.0,0.0,0.0,-0.0654,-0.1622,-0.2584,-0.3402,-0.4389,-0.5103,-0.5557,-0.5644,-0.5644,-0.5688,-0.5688,-0.5688,-0.5688,-0.5688,-0.5688,-0.5688,-0.5688,-0.5688,-0.5777,-0.573,-0.5371,-0.5324,-0.5411,-0.5497,-0.5542,-0.603,-0.6833,-0.7054,-0.7095,0.1965,0.0202,0.0,0.0,0.0,0.0,0.0,0.0,0.0,0.0,0.0,0.0,0.0,-0.1513,-0.2571,-0.3476,-0.428,-0.4583,-0.4732,-0.4431,-0.3627,-0.2771,-0.2116,-0.1513,-0.0908,0.0,0.0,0.0,0.0,0.0,0.0,0.0,0.0,0.0,0.0,-0.0942,-0.1032,-0.0719,0.0,0.0,0.0,0.0,0.0,0.0,0.0,0.0,0.0,0.0,0.0,0.0,0.0,0.0,-0.1085,-0.1508,-0.1471,-0.1252,-0.0658,0.0,0.0,0.0,0.0,0.0,0.0,0.0,0.0,0.0,0.0,0.0,0.0,0.0,0.0,0.0,0.0,0.0,0.0,0.0,0.0,0.0,0.0,0.0,0.0,0.0,0.0,0.0,0.0,0.0,0.0,-0.1099,-0.1963,-0.2426,-0.3455,-0.4685,-0.5151,-0.5463,-0.5552,-0.551,-0.5688,-0.5688,-0.5688,-0.5688,-0.5688,-0.5688,-0.5688,-0.5688,-0.5599,-0.5419,-0.4971,-0.4476,-0.4072,-0.4206,-0.4472,-0.5272,-0.6118,-0.683,-0.701,0.2368,0.1109,0.0303,0.0,0.0,0.0,0.0,0.0,0.0,0.0,0.0,0.0,0.0,-0.0555,-0.1563,-0.2216,-0.272,-0.3224,-0.3575,-0.3274,-0.2571,-0.2016,-0.1412,-0.0858,-0.0353,0.0,0.0,0.0,0.0,0.0,0.0,0.0,0.0,0.0,0.0,0.0,0.0,0.0,0.0,0.0,0.0,0.0,0.0,0.0,0.0,0.0,0.0,0.0,0.0,0.0,0.0,0.0,-0.0315,-0.0993,-0.1402,-0.1312,0.0,0.0,0.0,0.0,0.0,0.0,0.0,0.0,0.0,0.0,0.0,0.0,0.0,0.0,0.0,0.0,0.0,0.0,0.0,0.0,0.0,0.0,0.0,0.0,0.0,0.0,0.0,0.0,0.0,0.0,0.0,0.0,-0.1357,-0.1814,-0.2628,-0.3905,-0.4478,-0.4746,-0.506,-0.5151,-0.5466,-0.5688,-0.5688,-0.5688,-0.5688,-0.5688,-0.5688,-0.5419,-0.4971,-0.4701,-0.4478,-0.3896,-0.3135,-0.3223,-0.3489,-0.4469,-0.5361,-0.5938,-0.6517,0.2972,0.1563,0.0908,0.0404,0.0,0.0,0.0,0.0,0.0,0.0,0.0,0.0,0.0,0.0,-0.1102,-0.17,-0.1764,-0.2247,-0.2595,-0.2318,-0.1513,-0.111,-0.0656,0.0,0.0,0.0,0.0,0.0,0.0,0.0,0.0,0.0,0.0,0.0,0.0,0.0,0.0,0.0,0.0,0.0,0.0,0.0,0.0,0.0,0.0,0.0,0.0,0.0,0.0,0.0,0.0,0.0,0.0,-0.0584,-0.0808,-0.0674,0.0,0.0,0.0,0.0,0.0,0.0,0.0,0.0,0.0,0.0,0.0,0.0,0.0,0.0,0.0,0.0,0.0,0.0,0.0,0.0,0.0,0.0,0.0,0.0,0.0,0.0,0.0,0.0,0.0,0.0,0.0,0.0,-0.081,-0.1307,-0.2118,-0.3229,-0.3583,-0.3896,-0.4255,-0.4659,-0.5015,-0.5374,-0.5688,-0.5688,-0.5644,-0.524,-0.4882,-0.4478,-0.403,-0.3717,-0.3358,-0.2777,-0.2241,-0.2285,-0.2329,-0.2953,-0.3755,-0.4599,-0.5132,0.3575,0.1764,0.156,0.0805,0.0,0.0,0.0,0.0,0.0,0.0,0.0,0.0,0.0,0.0,-0.0892,-0.1237,-0.124,-0.1431,-0.1487,0.0,-0.0707,0.0,0.0,0.0,0.0,0.0,0.0,0.0,0.0,0.0,0.0,0.0,0.0,0.0,0.0,0.0,0.0,0.0,0.0,0.0,0.0,0.0,0.0,0.0,0.0,0.0,0.0,0.0,0.0,0.0,0.0,0.0,0.0,0.0,0.0,0.0,0.0,0.0,0.0,0.0,0.0,0.0,0.0,0.0,0.0,0.0,0.0,0.0,0.0,0.0,0.0,0.0,0.0,0.0,0.0,0.0,0.0,0.0,0.0,0.0,0.0,0.0,0.0,0.0,0.0,0.0,0.0,0.0,0.0,0.0,0.0,0.0,-0.2644,-0.2911,-0.3358,-0.3807,-0.4433,-0.4882,-0.5196,-0.5104,-0.4656,-0.4297,-0.3896,-0.3582,-0.3224,-0.2509,-0.2017,-0.1569,-0.1211,-0.0943,-0.1032,-0.1345,-0.2059,-0.2994,-0.3929,0.4029,0.2666,0.1043,0.0199,0.0,0.0,0.0,0.0,0.0,0.0,0.0,0.0,0.0,0.0,0.0,0.0,0.0,0.0,0.0,0.0,0.0,0.0,0.0,0.0,0.0,0.0,0.0,0.0,0.0,0.0,0.0,0.0,0.0,0.0,0.0,0.0,0.0,0.0,0.0,0.0,0.0,0.0,0.0,0.0,0.0,0.0,0.0,0.0,0.0,0.0,0.0,0.0,0.0,0.0,0.0,0.0,0.0,0.0,0.0,0.018,0.0314,0.0628,0.0852,0.121,0.0,0.0406,0.0,0.0,0.0,0.0,0.0,0.0,0.0,0.0,0.0,0.0,0.0,0.0,0.0,0.0,0.0,0.0,0.0,0.0,0.0,0.0,0.0,0.0,0.0,0.0,0.0,0.0,0.0,-0.1883,-0.2374,-0.2867,-0.3494,-0.3717,-0.3896,-0.3805,-0.3671,-0.3358,-0.3001,-0.2778,-0.2376,-0.1704,-0.1122,-0.0718,-0.0359,0.0,0.0,0.0,0.0,-0.1389,-0.2504,0.48,0.3531,0.1507,0.039,0.0,0.0,0.0,0.0,0.0,0.0,0.0,0.0,0.0,0.0,0.0,0.0,0.0,0.0,0.0,0.0,0.0,0.0,0.0,0.0,0.0,0.0,0.0,0.0,0.0,0.0,0.0,0.0,0.0,0.0,0.0,0.0,0.0,0.0,0.0,0.0,0.0,0.0,0.0,0.0,0.0,0.0,0.0,0.0,0.0,0.0,0.0,0.0,0.0,0.0,0.0,0.0,0.0,0.018,0.0224,0.0404,0.0717,0.1164,0.1478,0.1836,0.2371,0.1797,0.1663,0.0,0.0,0.0,0.0,0.0,0.0,0.0,0.0,0.0,0.0,0.0,0.0,0.0,0.0,0.0,0.0,0.0,0.0,0.0,0.0,0.0,0.0,0.0,0.0,0.0,0.0,0.0,-0.1749,-0.2107,-0.2464,-0.2598,-0.2688,-0.2643,-0.2598,-0.2374,-0.2151,0.0,0.0,-0.0943,-0.0404,0.0,0.0,0.0,0.0,0.0,0.0,0.0,-0.112,0.5554,0.4279,0.2417,0.114,0.0,0.0,0.0,0.0,0.0,0.0,0.0,0.0,0.0,0.0,0.0,0.0,0.0,0.0,0.0,0.0,0.0,0.0,0.0,0.0,0.0,0.0,0.0,0.0,0.0,0.0,0.0,0.0,0.0,0.0,0.0,0.0,0.0,0.0,0.0,0.0,0.0,0.0,0.0,0.0,0.0,0.0,0.0,0.0,0.0,0.0,0.0,0.0,0.0,0.0,0.0,0.0225,0.0314,0.0404,0.0493,0.0628,0.1254,0.1836,0.2104,0.2594,0.3173,0.3443,0.3355,0.2865,0.2195,0.1346,0.1077,0.0,0.0,0.0,0.0,0.0,0.0,0.0,0.0,0.0,0.0,0.0,0.0,0.0,0.0,0.0,0.0,0.0,0.0,0.0,0.0,0.0,0.0,0.0,0.0,0.0,0.0,-0.1614,-0.1659,-0.1614,-0.1569,-0.1345,0.0,0.0,0.0,0.0,0.0,0.0,0.0,0.0,0.0,0.0,0.0,0.0,0.0,0.5486,0.4413,0.3129,0.2481,0.2322,0.2301,0.1884,0.1195,0.1105,0.0723,0.0,0.0,0.0,0.0048,0.0,0.1109,0.1145,0.1145,0.1153,0.0,0.0658,0.0,0.0,0.0,0.0,0.0,0.0,0.0,0.0,0.0,0.0,0.0,0.0,0.0,0.0,0.0,0.0,0.0,0.0,0.0,0.0,0.0,0.0,0.0,0.0,0.0,0.0,0.0,0.0,0.0,0.018,0.0359,0.0449,0.0494,0.0449,0.0449,0.0583,0.0628,0.0718,0.0897,0.1524,0.255,0.2996,0.3757,0.438,0.5095,0.483,0.4476,0.3537,0.1928,0.1346,0.0628,0.0,0.0,0.0,0.0,0.0,0.0,0.0,0.0,0.0,0.0,0.0,0.0,0.0,0.0,0.0,0.0,0.0,0.0,0.0,0.0,0.0,0.0,0.0,0.0,0.0,0.0,0.0,0.0,0.0,0.0,0.0,0.0,0.0,0.0,0.0,0.0,0.0,0.0,0.0,0.0,0.0,0.0,0.0]}]]